[[{"header":{"parameterUnit":"m.s-1","parameterCategory":1,"la1":30.6,"la2":28.766,"lo1":-90.7593,"lo2":-88.6598,"dy":0.0162,"dx":0.0183,"nx":116,"ny":114,"refTime":"2023-04-14T00:00:00:Z","depth":0,"parameterNumber":2,"parameterNumberName":"U-component_of_WINDS"},"data":[0.0,0.0,0.0,0.0,0.0,0.0,0.0,0.0,0.0,0.0,0.0,0.0,0.0,0.0,0.0,0.0,0.0,0.0,0.0,0.0,0.0,0.0,0.0,0.0,0.0,0.0,0.0,0.0,0.0,0.0,0.0,0.0,0.0,0.0,0.0,0.0,0.0,0.0,0.0,0.0,0.0,0.0,0.0,0.0,0.0,0.0,0.0,0.0,0.0,0.0,0.0,0.0,0.0,0.0,0.0,0.0,0.0,0.0,0.0,0.0,0.0,0.0,0.0,0.0,0.0,0.0,0.0,0.0,0.0,0.0,0.0,0.0,0.0,0.0,0.0,0.0,0.0,0.0,0.0,0.0,0.0,0.0,0.0,0.0,0.0,0.0,0.0,0.0,0.0,0.0,0.0,0.0,0.0,0.0,0.0,0.0,0.0,0.0,0.0,0.0,0.0,0.0,0.0,0.0,0.0,0.0,0.0,0.0,0.0,0.0,0.0,0.0,0.0,0.0,0.0,0.0,0.0,0.0,0.0,0.0,0.0,0.0,0.0,0.0,0.0,0.0,0.0,0.0,0.0,0.0,0.0,0.0,0.0,0.0,0.0,0.0,0.0,0.0,0.0,0.0,0.0,0.0,0.0,0.0,0.0,0.0,0.0,0.0,0.0,0.0,0.0,0.0,0.0,0.0,0.0,0.0,0.0,0.0,0.0,0.0,0.0,0.0,0.0,0.0,0.0,0.0,0.0,0.0,0.0,0.0,0.0,0.0,0.0,0.0,0.0,0.0,0.0,0.0,0.0,0.0,0.0,0.0,0.0,0.0,0.0,0.0,0.0,0.0,0.0,0.0,0.0,0.0,0.0,0.0,0.0,0.0,0.0,0.0,0.0,0.0,0.0,0.0,0.0,0.0,0.0,0.0,0.0,0.0,0.0,0.0,0.0,0.0,0.0,0.0,0.0,0.0,0.0,0.0,0.0,0.0,0.0,0.0,0.0,0.0,0.0,0.0,0.0,0.0,0.0,0.0,0.0,0.0,0.0,0.0,0.0,0.0,0.0,0.0,0.0,0.0,0.0,0.0,0.0,0.0,0.0,0.0,0.0,0.0,0.0,0.0,0.0,0.0,0.0,0.0,0.0,0.0,0.0,0.0,0.0,0.0,0.0,0.0,0.0,0.0,0.0,0.0,0.0,0.0,0.0,0.0,0.0,0.0,0.0,0.0,0.0,0.0,0.0,0.0,0.0,0.0,0.0,0.0,0.0,0.0,0.0,0.0,0.0,0.0,0.0,0.0,0.0,0.0,0.0,0.0,0.0,0.0,0.0,0.0,0.0,0.0,0.0,0.0,0.0,0.0,0.0,0.0,0.0,0.0,0.0,0.0,0.0,0.0,0.0,0.0,0.0,0.0,0.0,0.0,0.0,0.0,0.0,0.0,0.0,0.0,0.0,0.0,0.0,0.0,0.0,0.0,0.0,0.0,0.0,0.0,0.0,0.0,0.0,0.0,0.0,0.0,0.0,0.0,0.0,0.0,0.0,0.0,0.0,0.0,0.0,0.0,0.0,0.0,0.0,0.0,0.0,0.0,0.0,0.0,0.0,0.0,0.0,0.0,0.0,0.0,0.0,0.0,0.0,0.0,0.0,0.0,0.0,0.0,0.0,0.0,0.0,0.0,0.0,0.0,0.0,0.0,0.0,0.0,0.0,0.0,0.0,0.0,0.0,0.0,0.0,0.0,0.0,0.0,0.0,0.0,0.0,0.0,0.0,0.0,0.0,0.0,0.0,0.0,0.0,0.0,0.0,0.0,0.0,0.0,0.0,0.0,0.0,0.0,0.0,0.0,0.0,0.0,0.0,0.0,0.0,0.0,0.0,0.0,0.0,0.0,0.0,0.0,0.0,0.0,0.0,0.0,0.0,0.0,0.0,0.0,0.0,0.0,0.0,0.0,0.0,0.0,0.0,0.0,0.0,0.0,0.0,0.0,0.0,0.0,0.0,0.0,0.0,0.0,0.0,0.0,0.0,0.0,0.0,0.0,0.0,0.0,0.0,0.0,0.0,0.0,0.0,0.0,0.0,0.0,0.0,0.0,0.0,0.0,0.0,0.0,0.0,0.0,0.0,0.0,0.0,0.0,0.0,0.0,0.0,0.0,0.0,0.0,0.0,0.0,0.0,0.0,0.0,0.0,0.0,0.0,0.0,0.0,0.0,0.0,0.0,0.0,0.0,0.0,0.0,0.0,0.0,0.0,0.0,0.0,0.0,0.0,0.0,0.0,0.0,0.0,0.0,0.0,0.0,0.0,0.0,0.0,0.0,0.0,0.0,0.0,0.0,0.0,0.0,0.0,0.0,0.0,0.0,0.0,0.0,0.0,0.0,0.0,0.0,0.0,0.0,0.0,0.0,0.0,0.0,0.0,0.0,0.0,0.0,0.0,0.0,0.0,0.0,0.0,0.0,0.0,0.0,0.0,0.0,0.0,0.0,0.0,0.0,0.0,0.0,0.0,0.0,0.0,0.0,0.0,0.0,0.0,0.0,0.0,0.0,0.0,0.0,0.0,0.0,0.0,0.0,0.0,0.0,0.0,0.0,0.0,0.0,0.0,0.0,0.0,0.0,0.0,0.0,0.0,0.0,0.0,0.0,0.0,0.0,0.0,0.0,0.0,0.0,0.0,0.0,0.0,0.0,0.0,0.0,0.0,0.0,0.0,0.0,0.0,0.0,0.0,0.0,0.0,0.0,0.0,0.0,0.0,0.0,0.0,0.0,0.0,0.0,0.0,0.0,0.0,0.0,0.0,0.0,0.0,0.0,0.0,0.0,0.0,0.0,0.0,0.0,0.0,0.0,0.0,0.0,0.0,0.0,0.0,0.0,0.0,0.0,0.0,0.0,0.0,0.0,0.0,0.0,0.0,0.0,0.0,0.0,0.0,0.0,0.0,0.0,0.0,0.0,0.0,0.0,0.0,0.0,0.0,0.0,0.0,0.0,0.0,0.0,0.0,0.0,0.0,0.0,0.0,0.0,0.0,0.0,0.0,0.0,0.0,0.0,0.0,0.0,0.0,0.0,0.0,0.0,0.0,0.0,0.0,0.0,0.0,0.0,0.0,0.0,0.0,0.0,0.0,0.0,0.0,0.0,0.0,0.0,0.0,0.0,0.0,0.0,0.0,0.0,0.0,0.0,0.0,0.0,0.0,0.0,0.0,0.0,0.0,0.0,0.0,0.0,0.0,0.0,0.0,0.0,0.0,0.0,0.0,0.0,0.0,0.0,0.0,0.0,0.0,0.0,0.0,0.0,0.0,0.0,0.0,0.0,0.0,0.0,0.0,0.0,0.0,0.0,0.0,0.0,0.0,0.0,0.0,0.0,0.0,0.0,0.0,0.0,0.0,0.0,0.0,0.0,0.0,0.0,0.0,0.0,0.0,0.0,0.0,0.0,0.0,0.0,0.0,0.0,0.0,0.0,0.0,0.0,0.0,0.0,0.0,0.0,0.0,0.0,0.0,0.0,0.0,0.0,0.0,0.0,0.0,0.0,0.0,0.0,0.0,0.0,0.0,0.0,0.0,0.0,0.0,0.0,0.0,0.0,0.0,0.0,0.0,0.0,0.0,0.0,0.0,0.0,0.0,0.0,0.0,0.0,0.0,0.0,0.0,0.0,0.0,0.0,0.0,0.0,0.0,0.0,0.0,0.0,0.0,0.0,0.0,0.0,0.0,0.0,0.0,0.0,0.0,0.0,0.0,0.0,0.0,0.0,0.0,0.0,0.0,0.0,0.0,0.0,0.0,0.0,0.0,0.0,0.0,0.0,0.0,0.0,0.0,0.0,0.0,0.0,0.0,0.0,0.0,0.0,0.0,0.0,0.0,0.0,0.0,0.0,0.0,0.0,0.0,0.0,0.0,0.0,0.0,0.0,0.0,0.0,0.0,0.0,0.0,0.0,0.0,0.0,0.0,0.0,0.0,0.0,0.0,0.0,0.0,0.0,0.0,0.0,0.0,0.0,0.0,0.0,0.0,0.0,0.0,0.0,0.0,0.0,0.0,0.0,0.0,0.0,0.0,0.0,0.0,0.0,0.0,0.0,0.0,0.0,0.0,0.0,0.0,0.0,0.0,0.0,0.0,0.0,0.0,0.0,0.0,0.0,0.0,0.0,0.0,0.0,0.0,0.0,0.0,0.0,0.0,0.0,0.0,0.0,0.0,0.0,0.0,0.0,0.0,0.0,0.0,0.0,0.0,0.0,0.0,0.0,0.0,0.0,0.0,0.0,0.0,0.0,0.0,0.0,0.0,0.0,0.0,0.0,0.0,0.0,0.0,0.0,0.0,0.0,0.0,0.0,0.0,0.0,0.0,0.0,0.0,0.0,0.0,0.0,0.0,0.0,0.0,0.0,0.0,0.0,0.0,0.0,0.0,0.0,0.0,0.0,0.0,0.0,0.0,0.0,0.0,0.0,0.0,0.0,0.0,0.0,0.0,0.0,0.0,0.0,0.0,0.0,0.0,0.0,0.0,0.0,0.0,0.0,0.0,0.0,0.0,0.0,0.0,0.0,0.0,0.0,0.0,0.0,0.0,0.0,0.0,0.0,0.0,0.0,0.0,0.0,0.0,0.0,0.0,0.0,0.0,0.0,0.0,0.0,0.0,0.0,0.0,0.0,0.0,0.0,0.0,0.0,0.0,0.0,0.0,0.0,0.0,0.0,0.0,0.0,0.0,0.0,0.0,0.0,0.0,0.0,0.0,0.0,0.0,0.0,0.0,0.0,0.0,0.0,0.0,0.0,0.0,0.0,0.0,0.0,0.0,0.0,0.0,0.0,0.0,0.0,0.0,0.0,0.0,0.0,0.0,0.0,0.0,0.0,0.0,0.0,0.0,0.0,0.0,0.0,0.0,0.0,0.0,0.0,0.0,0.0,0.0,0.0,0.0,0.0,0.0,0.0,0.0,0.0,0.0,0.0,0.0,0.0,0.0,0.0,0.0,0.0,0.0,0.0,0.0,0.0,0.0,0.0,0.0,0.0,0.0,0.0,0.0,0.0,0.0,0.0,0.0,0.0,0.0,0.0,0.0,0.0,0.0,0.0,0.0,0.0,0.0,0.0,0.0,0.0,0.0,0.0,0.0,0.0,0.0,0.0,0.0,0.0,0.0,0.0,0.0,0.0,0.0,0.0,0.0,0.0,0.0,0.0,0.0,0.0,0.0,0.0,0.0,0.0,0.0,0.0,0.0,0.0,0.0,0.0,0.0,0.0,0.0,0.0,0.0,0.0,0.0,0.0,0.0,0.0,0.0,0.0,0.0,0.0,0.0,0.0,0.0,0.0,0.0,0.0,0.0,0.0,0.0,0.0,0.0,0.0,0.0,0.0,0.0,0.0,0.0,0.0,0.0,0.0,0.0,0.0,0.0,0.0,0.0,0.0,0.0,0.0,0.0,0.0,0.0,0.0,0.0,0.0,0.0,0.0,0.0,0.0,0.0,0.0,0.0,0.0,0.0,0.0,0.0,0.0,0.0,0.0,0.0,0.0,0.0,0.0,0.0,0.0,0.0,0.0,0.0,0.0,0.0,0.0,0.0,0.0,0.0,0.0,0.0,0.0,0.0,0.0,0.0,0.0,0.0,0.0,0.0,0.0,0.0,0.0,0.0,0.0,0.0,0.0,0.0,0.0,0.0,0.0,0.0,0.0,0.0,0.0,0.0,0.0,0.0,0.0,0.0,0.0,0.0,0.0,0.0,0.0,0.0,0.0,0.0,0.0,0.0,0.0,0.0,0.0,0.0,0.0,0.0,0.0,0.0,0.0,0.0,0.0,0.0,0.0,0.0,0.0,0.0,0.0,0.0,0.0,0.0,0.0,0.0,0.0,0.0,0.0,0.0,0.0,0.0,0.0,0.0,0.0,0.0,0.0,0.0,0.0,0.0,0.0,0.0,0.0,0.0,0.0,0.0,0.0,0.0,0.0,0.0,0.0,0.0,0.0,0.0,0.0,0.0,0.0,0.0,0.0,0.0,0.0,0.0,0.0,0.0,0.0,0.0,0.0,0.0,0.0,0.0,0.0,0.0,0.0,0.0,0.0,0.0,0.0,0.0,0.0,0.0,0.0,0.0,0.0,0.0,0.6537,0.0,0.0,0.0,0.0,0.0,0.0,0.0,0.0,0.0,0.0,0.0,0.0,0.0,0.0,0.0,0.0,0.0,0.0,0.0,0.0,0.0,0.0,0.0,0.0,0.0,0.0,0.0,0.0,0.0,0.0,0.0,0.0,0.0,0.0,0.0,0.0,0.0,0.0,0.0,0.0,0.0,0.0,0.0,0.0,0.0,0.0,0.0,0.0,0.0,0.0,0.0,0.0,0.0,0.0,0.0,0.0,0.0,0.0,0.0,0.0,0.0,0.0,0.0,0.0,0.0,0.0,0.0,0.0,0.0,0.0,0.0,0.0,0.0,0.0,0.0,0.0,0.0,0.0,0.0,0.0,0.0,0.0,0.0,0.0,0.0,0.0,0.0,0.0,0.0,0.0,0.0,0.0,0.0,0.0,0.0,0.0,0.0,0.0,0.0,0.0,0.0,0.0,0.0,0.0,0.0,0.0,0.0,0.0,0.0,0.0,0.0,0.0,0.0,0.0,0.0,0.0,0.6661,0.0,0.0,0.0,0.0,0.0,0.0,0.0,0.0,0.0,0.0,0.0,0.0,0.0,0.0,0.0,0.0,0.0,0.0,0.0,0.0,0.0,0.0,0.0,0.0,0.0,0.0,0.0,0.0,0.0,0.0,0.0,0.0,0.0,0.0,0.0,0.0,0.0,0.0,0.0,0.0,0.0,0.0,0.0,0.0,0.0,0.0,0.0,0.0,0.0,0.0,0.0,0.0,0.0,0.0,0.0,0.0,0.0,0.0,0.0,0.0,0.0,0.0,0.0,0.0,0.0,0.0,0.0,0.0,0.0,0.0,0.0,0.0,0.0,0.0,0.0,0.0,0.0,0.0,0.0,0.0,0.0,0.0,0.0,0.0,0.0,0.0,0.0,0.0,0.0,0.0,0.0,0.0,0.0,0.0,0.0,0.0,0.0,0.0,0.0,0.0,0.0,0.0,0.0,0.0,0.0,0.0,0.0,0.0,0.63,0.63,0.63,0.63,0.63,0.6293,0.6125,0.6256,0.6567,0.6567,0.0,0.0,0.0,0.0,0.0,0.0,0.0,0.0,0.0,0.0,0.0,0.0,0.0,0.0,0.0,0.0,0.0,0.0,0.0,0.0,0.0,0.0,0.0,0.0,0.0,0.0,0.0,0.0,0.0,0.0,0.0,0.0,0.0,0.0,0.0,0.0,0.0,0.0,0.0,0.0,0.0,0.0,0.0,0.0,0.0,0.0,0.0,0.0,0.0,0.0,0.0,0.0,0.0,0.0,0.0,0.0,0.0,0.0,0.0,0.0,0.0,0.0,0.0,0.0,0.0,0.0,0.0,0.0,0.0,0.0,0.0,0.0,0.0,0.0,0.0,0.0,0.0,0.0,0.0,0.0,0.0,0.0,0.0,0.0,0.0,0.0,0.58,0.58,0.0,0.0,0.0,0.0,0.0,0.0,0.0,0.0,0.0,0.0,0.0,0.0,0.0,0.6269,0.6269,0.6289,0.63,0.63,0.63,0.63,0.63,0.63,0.63,0.6296,0.6279,0.0,0.761,0.761,0.0,0.0,0.0,0.0,0.0,0.0,0.0,0.0,0.0,0.0,0.0,0.0,0.0,0.0,0.0,0.0,0.0,0.0,0.0,0.0,0.0,0.0,0.0,0.0,0.0,0.0,0.0,0.0,0.0,0.0,0.0,0.0,0.0,0.0,0.0,0.0,0.0,0.0,0.0,0.0,0.0,0.0,0.0,0.0,0.0,0.0,0.0,0.0,0.0,0.0,0.0,0.0,0.0,0.0,0.0,0.0,0.0,0.0,0.0,0.0,0.0,0.0,0.0,0.0,0.0,0.0,0.0,0.0,0.0,0.0,0.0,0.0,0.0,0.0,0.0,0.0,0.0,0.0,0.0,0.0,0.0,0.0,0.0,0.0,0.0,0.6079,0.6079,0.6079,0.6079,0.6079,0.0,0.0,0.0,0.0,0.0,0.0,0.0,0.0,0.0,0.63,0.6378,0.6419,0.6419,0.6484,0.6529,0.6529,0.6529,0.6863,0.7473,0.7473,0.7852,0.8489,0.8489,0.8742,0.9079,0.8176,0.8328,0.9229,0.0,0.0,0.0,0.0,1.2305,1.2305,0.0,0.0,0.0,0.0,0.0,0.0,0.0,0.0,0.0,0.0,0.0,0.0,0.0,0.0,0.0,0.0,0.0,0.0,0.0,0.0,0.0,0.0,0.0,0.0,0.0,0.0,0.0,0.0,0.0,0.0,0.0,0.0,0.0,0.0,0.0,0.0,0.0,0.0,0.0,0.0,0.0,0.0,0.0,0.0,0.0,0.0,0.0,0.0,0.0,0.0,0.0,0.0,0.0,0.0,0.0,0.0,0.0,0.0,0.0,0.0,0.0,0.0,0.0,0.0,0.0,0.0,0.0,0.0,0.0,0.0,0.0,0.0,0.0,0.0,0.0,0.0,0.0,0.63,0.63,0.63,0.63,0.63,0.0,0.0,0.0,0.0,0.0,0.0,0.6354,0.6392,0.6392,0.6392,0.6495,0.6549,0.6549,0.6644,0.6702,0.6702,0.6742,0.7187,0.8027,0.8047,0.8546,0.9348,0.9348,0.9499,0.9665,0.8781,0.8559,0.8942,1.0455,1.1185,1.1507,1.2243,1.2532,1.2532,0.0,0.0,0.0,0.0,0.0,0.0,0.0,0.0,0.0,0.0,0.0,0.0,0.0,0.0,0.0,0.0,0.0,0.0,0.0,0.0,0.0,0.0,0.0,0.0,0.0,0.0,0.0,0.0,0.0,0.0,0.0,0.0,0.0,0.0,0.0,0.0,0.0,0.0,0.0,0.0,0.0,0.0,0.0,0.0,0.0,0.0,0.0,0.0,0.0,0.0,0.0,0.0,0.0,0.0,0.0,0.0,0.0,0.0,0.0,0.0,0.0,0.0,0.0,0.0,0.0,0.0,0.0,0.0,0.0,0.0,0.0,0.0,0.0,0.0,0.0,0.0,0.0,0.0,0.0,0.63,0.63,0.0,0.0,0.0,0.0,0.63,0.6426,0.6481,0.6481,0.662,0.6678,0.6678,0.6685,0.6688,0.6688,0.6698,0.6702,0.6702,0.6826,0.6919,0.6986,0.7098,0.7128,0.7065,0.7065,0.76,0.8581,0.9645,1.0634,1.1501,1.1626,1.223,1.3081,1.3147,1.314,1.314,0.0,0.0,0.0,0.0,0.0,0.0,0.0,0.0,0.0,0.0,0.0,0.0,0.0,0.0,0.0,0.0,0.0,0.0,0.0,0.0,0.0,0.0,0.0,0.0,0.0,0.0,0.0,0.0,0.0,0.0,0.0,0.0,0.0,0.0,0.0,0.0,0.0,0.0,0.0,0.0,0.0,0.0,0.0,0.0,0.0,0.0,0.0,0.0,0.0,0.0,0.0,0.0,0.0,0.0,0.0,0.0,0.0,0.0,0.0,0.0,0.0,0.0,0.0,0.0,0.0,0.0,0.0,0.0,0.0,0.0,0.0,0.0,0.0,0.0,0.0,0.0,0.0,0.0,0.0,0.6426,0.6436,0.0,0.6552,0.6563,0.6563,0.6563,0.661,0.662,0.662,0.6763,0.6826,0.6826,0.7031,0.7155,0.7155,0.7231,0.7278,0.7278,0.8151,0.8982,0.9772,1.0628,1.1425,1.2103,1.2103,1.2316,1.2671,1.3117,1.265,1.1762,1.2413,1.2883,1.3193,1.3193,1.3193,1.3193,0.0,0.0,0.0,0.0,0.0,0.0,0.0,0.0,0.0,0.0,0.0,0.0,0.0,0.0,0.0,0.0,0.0,0.0,0.0,0.0,0.0,0.0,0.0,0.0,0.0,0.0,0.0,0.0,0.0,0.0,0.0,0.0,0.0,0.0,0.0,0.0,0.0,0.0,0.0,0.0,0.0,0.0,0.0509,0.0,0.0,0.0,0.0,0.0,0.0,0.0,0.0,0.0,0.0,0.0,0.0,0.0,0.0,0.0,0.0,0.0,0.0,0.0,0.0,0.0,0.0,0.0,0.0,0.0,0.0,0.0,0.0,0.0,0.0,0.0,0.0,0.0,0.0,0.0,0.6464,0.6559,0.6569,0.661,0.6692,0.6749,0.6755,0.6755,0.6871,0.6926,0.6926,0.7071,0.7134,0.7134,0.7346,0.7471,0.7471,0.755,0.76,0.76,0.8499,0.9337,1.016,1.1049,1.2094,1.3244,1.3244,1.3682,1.4389,1.4389,1.3764,1.2889,1.3546,1.3801,1.3801,1.3801,1.3801,1.3801,0.0,0.0,0.0,0.0,0.0,0.0,0.0,0.0,0.0,0.0,0.0,0.0,0.0,0.0,0.0,0.0,0.0,0.0,0.0,0.0,0.0,0.0,0.0,0.0,0.0,0.0,0.0,0.0,0.0,0.0,0.0,0.0,0.0,0.0,0.0,0.0,0.0,0.0,0.0,0.0,0.0,0.0,0.1489,0.0,0.0,0.0,0.0,0.0,0.0,0.0,0.0,0.0,0.0,0.0,0.0,0.0,0.0,0.0,0.0,0.0,0.0,0.0,0.0,0.0,0.0,0.0,0.0,0.0,0.0,0.0,0.0,0.0,0.0,0.0,0.0,0.0,0.6501,0.6631,0.6709,0.6715,0.6719,0.6722,0.6729,0.684,0.6928,0.6928,0.7214,0.7403,0.7403,0.7522,0.7607,0.7607,0.7611,0.7614,0.7614,0.7614,0.7614,0.7614,0.7825,0.7938,0.7942,0.8143,0.8879,0.9986,0.9986,1.1243,1.3286,1.3286,1.3979,1.5013,1.5015,1.5008,1.5008,1.5008,1.5008,1.5008,0.0,0.0,0.0,0.0,0.0,0.0,0.0,0.0,0.0,0.0,0.0,0.0,0.0,0.0,0.0,0.0,0.0,0.0,0.0,0.0,0.0,0.0,0.0,0.0,0.0,0.0,0.0,0.0,0.0,0.0,0.0,0.0,0.0,0.0,0.0,0.0,0.0,0.0,0.0,0.0,0.0,0.0,0.1646,0.0,0.0,0.0,0.0,0.0,0.0,0.0,0.0,0.0,0.0,0.0,0.0,0.0,0.0,0.0,0.0,0.0,0.0,0.0,0.0,0.0,0.0,0.0,0.0,0.0,0.0,0.0,0.0,0.0,0.0,0.0,0.0,0.686,0.6668,0.677,0.6884,0.6985,0.7119,0.7253,0.7343,0.739,0.7417,0.7417,0.7492,0.7536,0.7536,0.7675,0.7753,0.7753,0.7837,0.7895,0.7895,0.7895,0.7895,0.7919,0.9847,1.0765,1.0842,1.278,1.3843,1.4159,1.4159,1.4508,1.5087,1.5087,1.5281,1.5545,1.5153,1.5008,1.5008,1.5008,1.5008,1.5008,0.0,0.0,0.0,0.0,0.0,0.0,0.0,0.0,0.0,0.0,0.0,0.0,0.0,0.0,0.0,0.0,0.0,0.0,0.0,0.0,0.0,0.0,0.0,0.0,0.0,0.0,0.0,0.0,0.0,0.0,0.0,0.0,0.0,0.0,0.0,0.0,0.0,0.0,0.0,0.0,0.0,0.0,0.2303,0.2974,0.3447,0.3709,0.326,0.3104,0.3104,0.3104,0.0,0.0,0.0,0.0,0.0,0.0,0.0,0.0,0.0,0.0,0.0,0.0,0.0,0.0,0.0,0.0,0.0,0.0,0.0,0.0,0.0,0.0,0.0,0.0,0.706,0.72,0.7092,0.7153,0.7219,0.73,0.7414,0.7525,0.759,0.7651,0.7689,0.7689,0.7746,0.776,0.776,0.7837,0.7881,0.7881,0.7969,0.8258,0.8825,0.885,0.9118,0.9653,1.1165,1.1896,1.195,1.3475,1.4465,1.4997,1.4997,1.5313,1.5808,1.5808,1.5808,0.0,0.0,0.0,0.0,0.0,1.5354,1.5354,0.0,0.0,0.0,0.0,0.0,0.0,0.0,0.0,0.0,0.0,0.0,0.0,0.0,0.0,0.0,0.0,0.0,0.0,0.0,0.0,0.0,0.0,0.0,0.0,0.0,0.0,0.0,0.0,0.0,0.0,0.0,0.0,0.0,0.0,0.0,0.0,0.0,0.0,0.0,0.0,0.0,0.0,0.2985,0.3553,0.4172,0.4606,0.3786,0.3487,0.3487,0.3458,0.0,0.0,0.0,0.0,0.0,0.0,0.0,0.0,0.0,0.0,0.0,0.0,0.0,0.0,0.0,0.0,0.0,0.0,0.0,0.0,0.0,0.0,0.0,0.0,0.7322,0.7491,0.7604,0.7638,0.7645,0.7628,0.7638,0.7648,0.7648,0.7763,0.7814,0.7814,0.7939,0.7988,0.7988,0.0,0.0,0.0,0.0,0.8871,1.0194,1.0219,1.0705,1.1682,1.1969,1.2042,1.1901,1.2212,1.2987,1.4118,1.4118,1.4752,1.5808,1.5808,1.5808,1.5808,1.5808,1.5808,1.5808,1.5808,1.5808,1.5808,0.0,0.0,0.0,0.0,0.0,0.0,0.0,0.0,0.0,0.0,0.0,0.0,0.0,0.0,0.0,0.0,0.0,0.0,0.0,0.0,0.0,0.0,0.0,0.0,0.0,0.0,0.0,0.0,0.0,0.0,0.0,0.0,0.0,0.0,0.0,0.0,0.0,0.0,0.0,0.0,0.0,0.0,0.2184,0.4989,0.5559,0.4948,0.56,0.5844,0.5828,0.5723,0.5689,0.5689,0.5689,0.0,0.0,0.0,0.0,0.0,0.0,0.0,0.0,0.0,0.0,0.0,0.0,0.0,0.0,0.0,0.0,0.0,0.0,0.0,0.0,0.7485,0.7631,0.7736,0.7767,0.7851,0.7885,0.7784,0.7854,0.7929,0.7929,0.7956,0.7969,0.7969,0.7996,0.7988,0.7988,0.7988,0.8506,0.9583,0.9608,1.0219,1.1507,1.1536,1.1146,1.0391,0.0,0.0,1.1969,1.4076,1.5194,1.5439,1.5439,1.5557,1.5808,1.5808,1.5808,1.5808,1.5808,1.5808,1.5808,1.5808,1.5808,1.5808,0.0,0.0,0.0,0.0,0.0,0.0,0.0,0.0,0.0,0.0,0.0,0.0,0.0,0.0,0.0,0.0,0.0,0.0,0.0,0.0,0.0,0.0,0.0,0.0,0.0,0.0,0.0,0.0,0.0,0.0,0.0,0.0,0.0,0.0,0.0,0.0,0.0,0.0,0.0,0.0,0.0,0.0,0.1933,0.4163,0.4947,0.4978,0.5498,0.6094,0.6597,0.6525,0.6501,0.6501,0.6501,0.6501,0.6501,0.0,0.0,0.0,0.0,0.0,0.0,0.0,0.0,0.0,0.0,0.0,0.0,0.0,0.0,0.7197,0.0,0.0,0.7614,0.7692,0.7804,0.7902,0.7902,0.7966,0.7986,0.7908,0.7966,0.7988,0.7988,0.7988,0.7988,0.7988,0.7988,0.7988,0.7988,0.7988,0.8308,0.897,0.8994,0.9632,1.095,1.095,1.1287,1.1964,1.3271,1.3878,1.3908,1.5194,1.5808,1.5808,1.5808,1.5808,1.5815,1.5985,1.6139,1.6242,1.6242,1.6061,1.5808,1.5808,1.5808,1.5808,0.0,0.0,0.0,0.0,0.0,0.0,0.0,0.0,0.0,0.0,0.0,0.0,0.0,0.0,0.0,0.0,0.0,0.0,0.0,0.0,0.0,0.0,0.0,0.0,0.0,0.0,0.0,0.0,0.0,0.0,0.0,0.0,0.0,0.0,0.0,0.0,0.0,0.0,0.0,0.0,0.0,0.0,0.1886,0.271,0.3827,0.5025,0.5215,0.5922,0.6742,0.6712,0.6702,0.6702,0.6702,0.6702,0.6702,0.6702,0.6702,0.0,0.0,0.0,0.0,0.0,0.0,0.0,0.0,0.0,0.7104,0.7389,0.7461,0.7519,0.7617,0.7756,0.7831,0.7831,0.7935,0.7988,0.7988,0.7988,0.8027,0.8054,0.8033,0.7988,0.7988,0.804,0.8057,0.8057,0.8084,0.8101,0.8101,0.8101,0.8198,0.8446,0.8743,0.9535,1.0868,1.116,1.2238,1.4074,1.4322,1.486,1.5602,1.5855,1.5975,1.5975,1.5975,1.5975,1.5995,1.6259,1.6524,1.6707,1.6707,1.6395,1.5968,1.5915,1.5888,1.5881,0.0,0.0,0.0,0.0,0.0,0.0,0.0,0.0,0.0,0.0,0.0,0.0,0.0,0.0,0.0,0.0,0.0,0.0,0.0,0.0,0.0,0.0,0.0,0.0,0.0,0.0,0.0,0.0,0.0,0.0,0.0,0.0,0.0,0.0,0.0,0.0,0.0,0.0,0.0,0.0,0.0,0.0,0.1823,0.1929,0.3368,0.5464,0.6362,0.6752,0.686,0.6746,0.6702,0.6702,0.6702,0.6702,0.6702,0.6702,0.0,0.6702,0.6702,0.6779,0.6914,0.7014,0.7193,0.7359,0.0,0.0,0.7536,0.7567,0.7675,0.7767,0.7784,0.7888,0.7989,0.7989,0.7978,0.7988,0.7988,0.7988,0.8067,0.8253,0.8098,0.7988,0.7988,0.8163,0.827,0.827,0.8386,0.8431,0.8431,0.8431,0.8971,1.0101,1.1401,1.27,1.3979,1.5307,1.5532,1.4711,1.5839,1.5864,1.4943,1.607,1.6607,1.6607,1.6607,1.6607,1.6613,1.6647,1.6673,1.6707,1.6707,1.6667,1.6573,1.6319,1.625,1.621,0.0,0.0,0.0,0.0,0.0,0.0,0.0,0.0,0.0,0.0,0.0,0.0,0.0,0.0,0.0,0.0,0.0,0.0,0.0,0.0,0.0,0.0,0.0,0.0,0.0,0.0,0.0,0.0,0.0,0.0,0.0,0.0,0.0,0.0,0.0,0.0,0.0,0.0,0.0,0.0,0.0,0.0,0.2929,0.3704,0.5001,0.6353,0.6123,0.6458,0.0,0.0,0.6935,0.6935,0.6935,0.6935,0.6935,0.6935,0.6935,0.0,0.7065,0.7204,0.0,0.0,0.7458,0.7543,0.7689,0.7723,0.7746,0.7814,0.7878,0.7918,0.7918,0.7969,0.7988,0.0,0.8091,0.8174,0.8174,0.8245,0.8319,0.8413,0.8336,0.8296,0.8296,0.8353,0.842,0.842,0.8475,0.8509,0.8509,0.9306,1.0028,1.0569,1.196,1.2961,1.3503,1.3314,1.3747,1.48,1.4464,1.4875,1.5928,1.6475,1.6707,1.6707,1.6707,1.6807,1.6993,1.6993,1.7086,1.7215,1.7215,1.7215,1.7161,1.6693,1.6526,1.6506,0.0,0.0,0.0,0.0,0.0,0.0,0.0,0.0,0.0,0.0,0.0,0.0,0.0,0.0,0.0,0.0,0.0,0.0,0.0,0.0,0.0,0.0,0.0,0.0,0.0,0.0,0.0,0.0,0.0,0.0,0.0,0.0,0.0,0.0,0.0,0.0,0.0,0.0,0.0,0.0,0.0,0.0,0.3742,0.509,0.6213,0.694,0.5802,0.5938,0.0,0.0,0.6628,0.6694,0.7007,0.7148,0.7181,0.7181,0.7212,0.7269,0.7427,0.0,0.0,0.7658,0.7689,0.7746,0.7827,0.7851,0.7881,0.7993,0.7988,0.7988,0.7988,0.805,0.8077,0.8077,0.8228,0.8355,0.8355,0.8444,0.8526,0.854,0.8547,0.856,0.8604,0.857,0.8547,0.8547,0.8584,0.8608,0.8608,0.9629,1.0203,1.0203,1.1588,1.2529,1.2919,1.231,1.319,1.5558,1.4493,1.5013,1.6947,1.6947,1.6947,1.6947,1.6947,1.7093,1.732,1.732,1.7414,1.7608,1.7608,1.7608,1.7555,1.7101,1.6894,1.6814,0.0,0.0,0.0,0.0,0.0,0.0,0.0,0.0,0.0,0.0,0.0,0.0,0.0,0.0,0.0,0.0,0.0,0.0,0.0,0.0,0.0,0.0,0.0,0.0,0.0,0.0,0.0,0.0,0.0,0.0,0.0,0.0,0.0,0.0,0.0,0.0,0.0,0.0,0.0,0.0,0.0,0.0,0.3747,0.5091,0.6213,0.694,0.5802,0.0,0.0,0.0,0.5447,0.5647,0.676,0.7244,0.0,0.7386,0.7491,0.0,0.0,0.0,0.7804,0.7804,0.7891,0.7978,0.7982,0.7982,0.7985,0.7988,0.7988,0.7988,0.7988,0.8163,0.8287,0.8287,0.841,0.8502,0.8502,0.8505,0.8537,0.8686,0.8703,0.8733,0.0,0.8764,0.8703,0.8703,0.8814,0.8896,0.8896,0.8923,0.8951,0.8951,1.0386,1.1846,1.3271,1.4587,1.6011,1.7503,1.747,1.7503,1.7582,1.7582,1.7582,1.7582,1.7582,1.7588,1.7595,1.7595,1.7602,1.7608,1.7608,1.7608,1.7608,1.7588,1.7401,1.7146,0.0,0.0,0.0,0.0,0.0,0.0,0.0,0.0,0.0,0.0,0.0,0.0,0.0,0.0,0.0,0.0,0.0,0.0,0.0,0.0,0.0,0.0,0.0,0.0,0.0,0.0,0.0,0.0,0.0,0.0,0.0,0.0,0.0,0.0,0.0,0.0,0.0,0.0,0.0,0.0,0.0,0.0,0.4969,0.5423,0.5764,0.5714,0.0,0.0,0.0,0.0,0.0,0.6621,0.7146,0.0,0.0,0.7515,0.0,0.774,0.0,0.0,0.7939,0.7939,0.7976,0.7988,0.7988,0.7988,0.7988,0.7988,0.7988,0.8047,0.8174,0.826,0.8325,0.842,0.8537,0.8632,0.8632,0.872,0.8777,0.8828,0.8835,0.0,0.0,0.0,0.0,0.8835,0.8882,0.8912,0.8912,0.9836,1.0347,1.0347,1.2697,1.418,1.469,1.515,1.6148,1.7608,1.7608,1.7608,1.7608,1.7608,1.7608,1.7608,1.7608,1.7608,1.7608,1.7608,1.7608,1.7608,1.7608,1.7608,1.7608,1.7608,1.7548,1.7448,0.0,0.0,0.0,0.0,0.0,0.0,0.0,0.0,0.0,0.0,0.0,0.0,0.0,0.0,0.0,0.0,0.0,0.0,0.0,0.0,0.0,0.0,0.0,0.0,0.0,0.0,0.0,0.0,0.0,0.0,0.0,0.0,0.0,0.0,0.0,0.0,0.0,0.0,0.0,0.0,0.0,0.0,0.4287,0.4767,0.4865,0.0,0.0,0.0,0.0,0.0,0.0,0.0,0.0,0.0,0.0,0.7712,0.7797,0.7868,0.7868,0.7939,0.7988,0.7988,0.7988,0.7988,0.7988,0.7988,0.7988,0.7988,0.8057,0.8153,0.8277,0.8383,0.8485,0.855,0.8693,0.8764,0.8764,0.8848,0.8912,0.8912,0.8912,0.8912,0.0,0.0,0.0,0.8912,0.8912,0.8912,0.8912,0.9805,1.0566,1.1078,1.2913,1.4368,1.539,1.539,1.6148,1.7608,1.7608,1.7608,1.7608,1.7608,1.7608,1.7608,1.7608,1.7608,1.7608,1.7608,1.7608,1.7608,1.7608,1.7608,1.7608,1.7608,1.7608,1.7608,0.0,0.0,0.0,0.0,0.0,0.0,0.0,0.0,0.0,0.0,0.0,0.0,0.0,0.0,0.0,0.0,0.0,0.0,0.0,0.0,0.0,0.0,0.0,0.0,0.0,0.0,0.0,0.0,0.0,0.0,0.0,0.0,0.0,0.0,0.0,0.0,0.0,0.0,0.0,0.0,0.0,0.0,0.2031,0.3244,0.0,0.0,0.0,0.0,0.0,0.0,0.0,0.0,0.0,0.0,0.0,0.7973,0.7988,0.7988,0.7988,0.7988,0.7988,0.7988,0.7988,0.7988,0.7988,0.7988,0.7988,0.7988,0.8163,0.8298,0.0,0.0,0.8713,0.872,0.8818,0.8912,0.8912,0.8912,0.8912,0.0,0.0,0.0,0.0,0.0,0.0,0.8912,0.0,0.8912,0.8912,0.8964,0.9644,1.1051,1.1242,1.2642,1.5364,1.547,1.6227,1.7608,1.7608,1.7608,1.7608,1.7608,1.7608,1.7608,1.7608,1.7608,1.7608,1.7608,1.7608,1.7608,1.7608,1.7608,1.7608,1.7608,1.7608,1.7608,0.0,0.0,0.0,0.0,0.0,0.0,0.0,0.0,0.0,0.0,0.0,0.0,0.0,0.0,0.0,0.0,0.0,0.0,0.0,0.0,0.0,0.0,0.0,0.0,0.0,0.0,0.0,0.0,0.0,0.0,0.0,0.0,0.0,0.0,0.0,0.0,0.0,0.0,0.0,0.0,0.0,0.0,0.322,0.0,0.0,0.0,0.0,0.0,0.0,0.0,0.0,0.0,0.0,0.0,0.7962,0.0,0.0,0.7988,0.7988,0.7988,0.7988,0.7988,0.7988,0.7988,0.7988,0.7988,0.7988,0.7988,0.8163,0.8328,0.0,0.0,0.0,0.8835,0.8885,0.0,0.8912,0.8912,0.0,0.8912,0.0,0.8912,0.8912,0.8912,0.0,0.0,0.8912,0.8912,0.8912,0.9943,1.0703,1.1078,1.3183,1.4663,1.539,1.6499,1.7226,1.7608,1.7608,1.7608,1.7608,1.7608,1.7608,1.7608,1.7608,1.7608,1.7608,1.7608,1.7608,1.7608,1.7608,1.7608,1.7608,1.7608,1.7608,1.7608,0.0,0.0,0.0,0.0,0.0,0.0,0.0,0.0,0.0,0.0,0.0,0.0,0.0,0.0,0.0,0.0,0.0,0.0,0.0,0.0,0.0,0.0,0.0,0.0,0.0,0.0,0.0,0.0,0.0,0.0,0.0,0.0,0.0,0.0,0.0,0.0,0.0,0.0,0.0,0.0,0.0,0.0,0.0,0.0,0.0,0.0,0.0,0.0,0.0,0.0,0.0,0.78,0.7864,0.7946,0.7988,0.7988,0.0,0.7988,0.7988,0.7988,0.803,0.8098,0.814,0.8157,0.8196,0.8209,0.8209,0.8209,0.8357,0.0,0.0,0.0,0.0,0.0,0.0,0.0,0.8912,0.8912,0.8912,0.0,0.8912,0.0,0.8912,0.8912,0.8912,0.0,0.8912,0.9182,0.9836,1.0644,1.1674,1.294,1.4556,1.5716,1.636,1.7199,1.7608,1.7608,1.7608,1.7608,1.7608,1.7608,1.7608,1.7608,0.0,1.7608,1.7608,1.7608,1.7608,1.7608,1.7608,1.7608,1.7608,1.7608,1.7608,1.7608,0.0,0.0,0.0,0.0,0.0,0.0,0.0,0.0,0.0,0.0,0.0,0.0,0.0,0.0,0.0,0.0,0.0,0.0,0.0,0.0,0.0,0.0,0.0,0.0,0.0,0.0,0.0,0.0,0.0,0.0,0.0,0.0,0.0,0.0,0.0,0.0,0.0,0.0,0.0,0.0,0.0,0.0,0.0,0.0,0.0,0.0,0.0,0.0,0.0,0.0,0.6961,0.7841,0.7973,0.7988,0.7988,0.7988,0.7988,0.7995,0.804,0.8044,0.8081,0.8284,0.8325,0.8355,0.8481,0.8509,0.8509,0.8509,0.0,0.871,0.871,0.8808,0.8912,0.8912,0.0,0.8912,0.8912,0.8912,0.8912,0.8912,0.8912,0.8919,0.8936,0.894,0.895,0.8967,0.897,0.9497,1.0731,1.1,1.2349,1.5037,1.531,1.6009,1.7312,1.7503,1.7608,1.7608,1.7608,1.7608,1.7608,1.7608,1.7608,1.7608,1.7608,1.7608,1.7608,1.7608,1.7608,1.7608,1.7608,1.7608,1.7608,1.7608,1.7608,1.7608,0.0,0.0,0.0,0.0,0.0,0.0,0.0,0.0,0.0,0.0,-0.5063,-0.3592,0.0,0.0,0.0,0.0,0.0,0.0,0.0,0.0,0.0,0.0,0.0,0.0,0.0,0.0,0.0,0.0,0.0,0.0,0.0,0.0,0.0,0.0,0.0,0.0,0.0,0.0,0.0,0.0,0.0,0.0,0.0,0.0,0.0,0.0,0.0,0.0,0.0,0.0,0.7799,0.7979,0.7982,0.7988,0.7988,0.7988,0.7988,0.8044,0.8197,0.8257,0.8291,0.8437,0.8471,0.8478,0.8502,0.8509,0.0,0.0,0.0,0.871,0.871,0.8808,0.8912,0.8912,0.0,0.0,0.0,0.0,0.8912,0.0,0.0,0.0,0.0,0.0,0.0,0.0,0.9306,0.9308,0.9275,1.0429,1.1887,1.3615,1.4797,1.5524,1.5769,1.6988,1.7608,1.7608,1.7608,1.7608,1.7608,1.7608,1.7608,1.7608,1.7608,0.0,1.7608,1.7608,1.7608,1.7608,1.7608,1.7608,1.7608,1.7608,1.7608,1.7608,0.0,0.0,0.0,0.0,0.0,0.0,0.0,-0.7095,-0.7095,-0.7095,-0.5063,-0.3592,-0.3592,-0.1456,0.0,0.0,0.0,0.0,0.0,0.0,0.0,0.0,0.0,0.0,0.0,0.0,0.0,0.0,0.0,0.0,0.0,0.0,0.0,0.0,0.0,0.0,0.0,0.0,0.0,0.0,0.0,0.0,0.0,0.0,0.0,0.0,0.0,0.0,0.0,0.0,0.7988,0.7988,0.7988,0.7988,0.7988,0.7988,0.7988,0.8047,0.8253,0.8298,0.8349,0.8547,0.8601,0.8621,0.8703,0.0,0.0,0.0,0.0,0.8777,0.8723,0.0,0.0,0.0,0.0,0.0,0.0,0.0,0.0,0.0,0.0,0.0,0.0,0.0,0.0,0.0,0.941,0.9659,1.0232,1.164,1.3116,1.4511,1.519,1.586,1.6552,1.7259,1.7608,1.7608,1.7608,1.7608,1.7608,1.7608,1.7608,1.7608,1.7608,0.0,1.7796,1.7796,1.7916,1.8083,1.8083,1.8083,1.8083,1.8083,1.8083,1.8083,0.0,0.0,0.0,0.0,0.0,0.0,0.0,-0.7095,-0.7095,-0.7095,-0.5063,-0.3592,-0.3592,-0.1456,0.0,0.0,0.0,0.0,0.0,0.0,0.0,0.0,0.0,0.0,0.0,0.0,0.0,0.0,0.0,0.0,0.0,0.0,0.0,0.0,0.0,0.0,0.0,0.0,0.0,0.0,0.0,0.0,0.0,0.0,0.0,0.0,0.0,0.0,0.0,0.0,0.7988,0.7988,0.7988,0.7988,0.7988,0.7988,0.7988,0.8054,0.8291,0.8342,0.8413,0.8686,0.8733,0.8764,0.8882,0.8885,0.0,0.0,0.8777,0.8825,0.8706,0.0,0.8912,0.0,0.0,0.0,0.0,0.0,0.0,0.0,0.0,0.0,0.0,0.0,0.0,0.0,0.9476,0.9935,1.1002,1.2476,1.3789,1.4823,1.548,1.6323,1.7303,1.7636,1.7776,1.7776,1.7776,1.7776,1.7776,1.7776,1.7776,1.7776,1.7776,0.0,0.0,1.8116,1.8249,1.849,1.849,1.849,1.849,1.849,1.849,1.849,0.0,0.0,0.0,0.0,0.0,0.0,0.0,-0.7095,-0.7095,-0.7095,-0.5063,-0.3592,-0.3592,-0.1456,0.0,0.0,0.0,0.0,0.0,0.0,0.0,0.0,0.0,0.0,0.0,0.0,0.0,0.0,0.0,0.0,0.0,0.0,0.0,0.0,0.0,0.0,0.0,0.0,0.0,0.0,0.0,0.0,0.0,0.0,0.0,0.0,0.0,0.0,0.0,0.0,0.0,0.7988,0.7988,0.7988,0.7988,0.7988,0.0,0.0,0.8384,0.8488,0.8537,0.8814,0.8889,0.8892,0.8906,0.0,0.0,0.8713,0.872,0.8726,0.8713,0.8808,0.0,0.0,0.0,0.8912,0.0,0.0,0.0,0.0,0.0,0.0,0.0,0.0,0.0,0.9741,0.9751,0.9722,0.9594,1.1125,1.2027,1.2153,1.4827,1.6307,1.6428,1.7742,1.841,1.841,1.841,1.841,1.841,1.841,1.841,1.841,1.841,0.0,0.0,1.845,1.8464,1.849,1.849,1.849,1.849,1.849,1.849,1.849,0.0,0.0,0.0,0.0,0.0,0.0,-0.7095,-0.7095,-0.7095,-0.7095,-0.5063,-0.3592,-0.3592,-0.1456,0.0,0.0,0.0,0.0,0.0,0.0,0.0,0.0,0.0,0.0,0.0,0.0,0.0,0.0,0.0,0.0,0.0,0.0,0.0,0.0,0.0,0.0,0.0,0.0,0.0,0.0,0.0,0.0,0.0,0.0,0.0,0.0,0.0,0.0,0.0,0.0,0.0,0.0,0.7988,0.7988,0.0,0.0,0.7988,0.806,0.8321,0.8444,0.8533,0.872,0.8841,0.8912,0.8912,0.0,0.0,0.8591,0.8645,0.8682,0.8587,0.8747,0.8912,0.0,0.0,0.0,0.0,0.0,0.0,0.0,0.0,0.0,0.0,0.0,0.9731,0.9788,0.9792,1.0187,1.1037,1.1702,1.2847,1.4565,1.579,1.6809,1.7625,1.82,1.849,1.849,1.849,1.849,1.849,1.849,1.849,1.849,1.849,0.0,0.0,1.8751,1.8858,1.9047,1.9047,1.9047,1.9047,1.9047,1.9047,1.9047,0.0,0.0,0.0,0.0,0.0,-0.7095,-0.7095,-0.7095,-0.7095,-0.7095,-0.5063,-0.3592,-0.3592,-0.1456,0.0,0.0,0.0,0.0,0.0,0.0,0.0,0.0,0.0,0.0,0.0,0.0,0.0,0.0,0.0,0.0,0.0,0.0,0.0,0.0,0.0,0.0,0.0,0.0,0.0,0.0,0.0,0.0,0.0,0.0,0.0,0.0,0.0,0.0,0.0,0.0,0.0,0.0,0.0,0.0,0.0,0.0,0.7988,0.8047,0.8253,0.8369,0.8481,0.8604,0.8723,0.8777,0.0,0.0,0.856,0.8522,0.8567,0.8625,0.856,0.8737,0.8912,0.0,0.0,0.8912,0.8912,0.0,0.0,0.0,0.0,0.0,0.0,0.9676,0.9792,0.9792,0.9792,1.0721,1.2813,1.2903,1.405,1.6582,1.7107,1.7808,1.8751,1.8779,1.8779,1.8779,1.8779,1.8779,1.8779,1.8779,1.8779,1.8779,1.8779,0.0,0.0,1.9052,1.9178,1.9395,1.9395,1.9395,1.9395,1.9395,1.9395,1.9395,0.0,0.0,0.0,0.0,0.0,0.0,-0.7095,-0.7095,-0.7095,-0.7095,-0.5063,-0.3592,-0.3592,-0.1456,0.0,0.0,0.0,0.0,0.0,0.0,0.0,0.0,0.0,0.0,0.0,0.0,0.0,0.0,0.0,0.0,0.0,0.0,0.0,0.0,0.0,0.0,0.0,0.0,0.0,0.0,0.0,0.0,0.0,0.0,0.0,0.0,0.0,0.0,0.0,0.0,0.0,0.0,0.0,0.0,0.0,0.0,0.7988,0.8047,0.8253,0.8298,0.8332,0.8475,0.8512,0.8512,0.0,0.0,0.8342,0.8481,0.8509,0.853,0.8679,0.8808,0.8912,0.8912,0.0,0.0,0.8912,0.0,0.0,0.0,0.0,0.0,0.9591,0.9707,0.9792,0.9792,0.9792,0.0,1.4396,1.4574,1.5311,1.6932,1.8548,1.9388,1.9388,1.9388,1.9388,1.9388,1.9388,1.9388,1.9388,1.9388,1.9388,1.9388,0.0,0.0,0.0,1.9395,1.9395,1.9395,1.9395,1.9395,1.9395,1.9395,1.9395,1.9395,0.0,0.0,0.0,0.0,0.0,0.0,0.0,-0.7095,-0.7095,-0.7095,-0.5063,-0.3592,-0.3592,-0.1456,0.0,0.0,0.0,0.0,0.0,0.0,0.0,0.0,0.0,0.0,0.0,0.0,0.0,0.0,0.0,0.0,0.0,0.0,0.0,0.0,0.0,0.0,0.0,0.0,0.0,0.0,0.0,0.0,0.0,0.0,0.0,0.0,0.0,0.0,0.0,0.0,0.0,0.0,0.0,0.0,0.0,0.0,0.0,0.0,0.8074,0.8191,0.8308,0.8352,0.8437,0.8509,0.8509,0.0,0.8338,0.8478,0.8509,0.853,0.8682,0.8808,0.8912,0.8912,0.8912,0.0,0.0,0.0,0.0,0.0,0.0,0.9595,0.0,0.0,0.9792,0.9792,1.0812,1.2363,1.4485,1.5636,1.6973,1.8583,1.9127,1.9395,1.9395,1.9395,1.9395,1.9395,1.9395,1.9395,1.9395,1.9395,1.9395,0.0,0.0,0.0,0.0,1.9395,1.9395,1.9395,1.9395,1.9395,1.9395,1.9395,1.9395,1.9395,0.0,0.0,0.0,0.0,0.0,0.0,0.0,-0.7095,-0.7095,-0.7095,-0.5063,-0.3592,-0.3592,-0.1456,0.0,0.0,0.0,0.0,0.0,0.0,0.0,0.0,0.0,0.0,0.0,0.0,0.0,0.0,0.0,0.0,0.0,0.0,0.0,0.0,0.0,0.0,0.0,0.0,0.0,0.0,0.0,0.0,0.0,0.0,0.0,0.0,0.0,0.0,0.0,0.0,0.0,0.0,0.0,0.0,0.0,0.0,0.7988,0.0,0.0,0.8084,0.8184,0.8184,0.8252,0.0,0.0,0.0,0.8241,0.8468,0.8509,0.8547,0.873,0.8845,0.8912,0.8912,0.8912,0.0,0.0,0.0,0.0,0.9328,0.0,0.0,0.0,0.9792,0.9792,0.9792,1.1287,1.2898,1.4515,1.6138,1.7449,1.846,1.9068,1.9395,1.9395,1.9395,1.9395,1.9395,1.9395,1.9395,1.9395,1.9395,1.9395,0.0,0.0,0.0,0.0,1.9395,1.9395,1.9395,1.9395,1.9395,1.9395,1.9395,1.9395,1.9395,0.0,0.0,0.0,0.0,0.0,0.0,0.0,-0.7095,-0.7095,-0.7095,-0.5129,-0.3703,-0.3614,-0.1522,-0.009,0.0,0.0,0.0,0.0,0.0,0.0,0.0,0.0,0.0,0.0,0.0,0.0,0.0,0.0,0.0,0.0,0.0,0.0,0.0,0.0,0.0,0.0,0.0,0.0,0.0,0.0,0.0,0.0,0.0,0.0,0.0,0.0,0.0,0.0,0.0,0.0,0.0,0.0,0.0,0.0,0.0,0.0,0.0,0.0,0.0,0.0,0.0,0.0,0.0,0.0,0.0,0.0,0.8425,0.8515,0.8587,0.8855,0.8912,0.8912,0.8912,0.8912,0.8912,0.0,0.9072,0.0,0.0,0.9704,0.0,0.9792,0.9792,0.9792,0.9792,1.1287,1.2843,1.4361,1.5961,1.6821,1.6821,1.8402,1.9243,1.9243,1.9336,1.9395,1.9395,1.9395,1.9395,1.9395,1.9395,1.9395,0.0,0.0,0.0,0.0,1.9395,1.9395,1.9395,1.9395,1.9395,1.9395,1.9395,1.9395,1.9395,0.0,0.0,0.0,0.0,0.0,0.0,0.0,0.0,0.0,0.0,-0.5869,-0.4619,-0.3703,-0.2281,-0.1008,0.0,0.0,0.0,0.0,0.0,0.0,0.0,0.0,0.0,0.0,0.0,0.0,0.0,0.0,0.0,0.0,0.0,0.0,0.0,0.0,0.0,0.0,0.0,0.0,0.0,0.0,0.0,0.0,0.0,0.0,0.0,0.0,0.1712,0.0,0.0,0.0,0.0,0.0,0.0,0.0,0.0,0.7988,0.7988,0.7988,0.0,0.7988,0.7988,0.7988,0.0,0.0,0.0,0.0,0.0,0.0,0.8713,0.8875,0.8912,0.8912,0.8912,0.8912,0.8912,0.8912,0.0,0.0,0.9588,0.9704,0.9792,0.9792,0.9792,0.9792,0.9792,1.1287,1.2363,1.2753,1.4302,1.5163,1.5163,1.6703,1.7566,1.7566,1.8794,1.9395,1.9395,1.9395,1.9395,1.9395,1.9395,1.9395,0.0,0.0,0.0,1.9395,1.9395,1.9395,1.9395,1.9395,1.9395,1.9395,1.9395,1.9395,1.9395,0.0,0.0,0.0,0.0,0.0,0.0,0.0,0.0,0.0,0.0,0.0,0.0,0.0,0.0,0.0,0.0,0.0,0.0,0.0,0.0,0.0,0.0,0.0,0.0,0.0,0.0,0.0,0.0,0.0,0.0,0.0,0.0,0.0,0.0,0.0,0.0,0.0,0.0,0.0,0.0,0.0,0.0,0.0,0.0,0.0,0.0,0.0706,0.2238,0.0,0.4718,0.6301,0.7988,0.0,0.0,0.0,0.0,0.7988,0.7988,0.7988,0.7988,0.7988,0.7988,0.7988,0.8033,0.0,0.0,0.0,0.0,0.0,0.873,0.8882,0.8912,0.8912,0.8912,0.8912,0.0,0.0,0.0,0.954,0.969,0.9744,0.9792,0.0,0.9792,0.9792,0.9792,1.1287,1.2213,1.2213,1.374,1.4272,1.3526,1.5779,1.6997,1.6997,1.8613,1.9395,1.9395,1.9395,1.9395,1.9395,1.9395,1.9395,0.0,0.0,0.0,1.9395,1.9395,1.9395,1.9395,1.9395,1.9395,1.9395,1.9395,1.9395,1.9395,0.0,0.0,0.0,0.0,0.0,0.0,0.0,0.0,0.0,0.0,0.0,0.0,0.0,0.0,0.0,0.0,0.0,0.0,0.0,0.0,0.0,0.0,0.0,0.0,0.0,0.0,0.0,0.0,0.0,0.0,0.0,0.0,0.0,0.0,0.0,0.0,0.0,0.0,0.0,0.0,0.0,0.0,0.0,0.0,0.0,0.0,0.0,0.0,0.0,0.555,0.6883,0.7988,0.7988,0.0,0.0,0.0,0.0,0.0,0.7988,0.7988,0.7988,0.7988,0.7988,0.8054,0.826,0.0,0.0,0.0,0.0,0.0,0.0,0.8912,0.0,0.0,0.0,0.0,0.9374,0.9527,0.9663,0.9771,0.9792,0.0,0.9792,0.9792,0.9792,0.9792,1.1046,1.1826,1.1826,1.3142,1.3228,1.1886,1.495,1.6644,1.6644,1.8467,1.9395,1.9395,1.9395,1.9395,1.9395,1.9395,1.9395,1.9395,0.0,0.0,1.9395,1.9395,1.9395,1.9395,1.9395,1.9395,1.9395,1.9395,1.9395,1.9395,0.0,0.0,0.0,0.0,0.0,0.0,0.0,0.0,0.0,0.0,0.0,0.0,0.0,0.0,0.0,0.0,0.0,0.0,0.0,0.0,0.0,0.0,0.0,0.0,0.0,0.0,0.0,0.0,0.0,0.0,0.0,0.0,0.0,0.0,0.0,0.0,0.0,0.0,0.0,0.0,0.0,0.0,0.0,0.0,0.0,0.0,0.0,0.0,0.0,0.555,0.6883,0.7988,0.7988,0.0,0.0,0.0,0.0,0.0,0.7988,0.7988,0.7988,0.7988,0.7988,0.8054,0.826,0.0,0.0,0.0,0.0,0.0,0.0,0.8912,0.8912,0.0,0.0,0.9254,0.0,0.0,0.9663,0.9771,0.0,0.9792,0.9792,0.9792,0.9792,0.9792,1.0031,1.0179,1.0179,1.0391,1.0418,1.0183,1.3287,1.4955,1.4955,1.7935,1.9395,1.9395,1.9395,1.9395,1.9395,1.9395,1.9395,1.9395,0.0,1.9395,1.9395,1.9395,1.9395,1.9395,1.9395,1.9395,1.9395,1.9395,1.9395,1.9395,0.0,0.0,0.0,0.0,0.0,0.0,0.0,0.0,0.0,0.0,0.0,0.0,0.0,0.0,0.0,0.0,0.0,0.0,0.0,0.0,0.0,0.0,0.0,0.0,0.0,0.0,0.0,0.0,0.0,0.0,0.0,0.0,0.0,0.0,0.0,0.0,0.0,0.0,0.0,0.0,0.0,0.0,0.0,0.0,0.0,0.0,0.0,0.0,0.0,0.0,0.7487,0.7988,0.7988,0.0,0.0,0.0,0.0,0.0,0.7988,0.7988,0.8033,0.8143,0.8163,0.8204,0.8376,0.0,0.0,0.0,0.0,0.0,0.0,0.0,0.8936,0.9042,0.0,0.9449,0.9591,0.9676,0.9717,0.0,0.0,0.9792,0.9792,0.9792,0.9792,0.9792,0.9792,0.9792,0.9792,0.9792,0.9792,0.9792,1.2067,1.3706,1.4604,1.6915,1.8525,1.9395,1.9395,1.9395,1.9395,1.9395,1.9395,1.9395,0.0,1.9395,1.9395,1.9395,1.9395,1.9395,1.9395,1.9395,1.9395,1.9395,1.9395,1.9395,0.0,0.0,0.0,0.0,0.0,0.0,0.0,0.0,0.0,0.0,0.0,0.0,0.0,0.0,0.0,0.0,0.0,0.0,0.0,0.0,0.0,0.0,0.0,0.0,0.0,0.0,0.0,0.0,0.0,0.0,0.0,0.0,0.0,0.0,0.0,0.0,0.0,0.0,0.0,0.0,0.0,0.0,0.0,0.0,0.0,0.0,0.0,0.0,0.0,0.0,0.0,0.0,0.0,0.0,0.0,0.7988,0.7988,0.7988,0.7988,0.7988,0.805,0.8257,0.8298,0.8342,0.8519,0.0,0.0,0.0,0.0,0.0,0.0,0.8936,0.0,0.9257,0.9456,0.9622,0.9652,0.9721,0.9792,0.9792,0.9792,0.9792,0.9792,0.9792,0.9792,0.9792,0.9792,0.9792,0.9792,0.9792,0.9792,0.9792,1.1348,1.2963,1.4574,1.6197,1.7806,1.9395,1.9395,1.9395,1.9395,1.9395,1.9395,1.9395,1.9395,1.9395,1.9395,1.9395,1.9395,1.9395,1.9395,1.9395,1.9395,1.9395,1.9441,1.9495,0.0,0.0,0.0,0.0,0.0,0.0,0.0,0.0,0.0,0.0,0.0,0.0,0.0,0.0,0.0,0.0,0.0,0.0,0.0,0.0,0.0,0.0,0.0,0.0,0.0,0.0,0.0,0.0,0.0,0.0,0.0,0.0,0.0,0.0,0.0,0.0,0.0,0.0,0.0,0.0,0.0,0.0,0.0,0.0,0.0,0.0,0.0,0.0,0.0,0.0,0.0,0.0,0.0,0.0,0.7988,0.7988,0.7988,0.7988,0.7988,0.7988,0.805,0.8257,0.8298,0.0,0.8628,0.8703,0.0,0.0,0.0,0.0,0.0,0.9049,0.926,0.953,0.9595,0.9656,0.9758,0.0,0.9792,0.9792,0.9792,0.9792,0.9792,0.9792,0.9792,0.9792,0.9792,0.9792,0.9792,0.9792,0.9792,0.9792,1.1348,1.2963,1.4574,1.6197,1.7806,1.9395,1.9395,1.9395,1.9395,1.9395,1.9395,1.9395,1.9395,1.9395,1.9395,1.9395,1.9395,1.9395,1.9395,1.9395,1.9395,1.9395,1.9568,1.9766,0.0,0.0,0.0,0.0,0.0,0.0,0.0,0.0,0.0,0.0,0.0,0.0,0.0,0.0,0.0,0.0,0.0,0.0,0.0,0.0,0.0,0.0,0.0,0.0,0.0,0.0,0.0,0.0,0.0,0.0,0.0,0.0,0.0,0.0,0.0,0.0,0.0,0.0,0.0,0.0,0.0,0.0,0.0,0.0,0.0,0.0,0.0,0.0,0.0,0.0,0.7988,0.7988,0.7988,0.7988,0.7988,0.7988,0.7988,0.7988,0.7988,0.8084,0.8218,0.8393,0.0,0.0,0.0,0.0,0.0,0.0,0.0,0.0,0.0,0.0,0.9473,0.9591,0.9683,0.9727,0.9785,0.9792,0.9792,0.9792,0.9792,0.9792,0.9792,0.9792,0.9792,0.9792,0.9792,0.9792,0.9792,0.9792,0.9792,0.9792,1.0388,1.1468,1.3083,1.4688,1.6321,1.7923,1.8917,1.9395,1.9395,1.9395,1.9395,1.9395,1.9395,1.9395,1.9395,1.9395,1.9395,1.9415,1.9566,1.9639,1.9659,1.984,1.9943,2.0037,0.0,0.0,0.0,0.0,0.0,0.0,0.0,0.0,0.0,0.0,0.0,0.0,0.0,0.0,0.0,0.0,0.0,0.0,0.0,0.0,0.0,0.0,0.0,0.0,0.0,0.0,0.0,0.0,0.0,0.0,0.0,0.0,0.0,0.0,0.0,0.0,0.0,0.0,0.0,0.0,0.0,0.0,0.0,0.0,0.0,0.0,0.0,0.0,0.0,0.0,0.7988,0.7988,0.7988,0.7988,0.7988,0.7988,0.7988,0.7988,0.7988,0.8153,0.8328,0.0,0.0,0.0,0.0,0.0,0.0,0.0,0.0,0.0,0.0,0.0,0.0,0.0,0.9727,0.9792,0.9792,0.9792,0.9792,0.9792,0.9792,0.9792,0.9792,0.9792,0.9792,0.9792,0.9792,0.9792,0.9792,0.9792,0.9792,0.9792,0.9792,1.057,1.2183,1.3795,1.54,1.7026,1.8642,1.9395,1.9395,1.9395,1.9395,1.9395,1.9395,1.9395,1.9395,1.9395,1.9448,1.9562,1.982,1.994,1.996,2.013,2.0264,2.0374,0.0,0.0,0.0,0.0,0.0,0.0,0.0,0.0,0.0,0.0,0.0,0.0,0.0,0.0,0.0,0.0,0.0,0.0,0.0,0.0,0.0,0.0,0.0,0.0,0.0,0.0,0.0,0.0,0.0,0.0,0.0,0.0,0.0,0.0,0.0,0.0,0.0,0.0,0.0,0.0,0.0,0.0,0.0,0.0,0.0,0.0,0.0,0.0,0.0,0.0,0.7988,0.7988,0.7988,0.7988,0.7988,0.7988,0.7988,0.7988,0.7992,0.8153,0.8332,0.0,0.0,0.0,0.0,0.0,0.0,0.0,0.0,0.0,0.0,0.0,0.0,0.9768,0.9792,0.9792,0.9792,0.9792,0.9792,0.9792,0.9792,0.9792,0.9792,0.9792,0.9792,0.9792,0.9792,0.9792,0.9792,0.9792,0.9792,0.9792,0.9792,1.057,1.2157,1.3795,1.54,1.6997,1.8613,1.9395,1.9395,1.9395,1.9395,1.9395,1.9395,1.9395,1.9401,1.9401,1.9575,1.9833,2.0097,2.0204,2.0204,2.021,2.0428,2.0712,0.0,0.0,0.0,0.0,0.0,0.0,0.0,0.0,0.0,0.0,0.0,0.0,0.0,0.0,0.0,0.0,0.0,0.0,0.0,0.0,0.0,0.0,0.0,0.0,0.0,0.0,0.0,0.0,0.0,0.0,0.0,0.0,0.0,0.0,0.0,0.0,0.0,0.0,0.0,0.0,0.0,0.0,0.0,0.0,0.0,0.0,0.0,0.0,0.0,0.0,0.0,0.0,0.7711,0.736,0.6781,0.7711,0.7988,0.8037,0.8174,0.8335,0.0,0.8604,0.0,0.0,0.0,0.0,0.0,0.0,0.0,0.0,0.0,0.0,0.0,0.9785,0.9792,0.9792,0.9792,0.9792,0.9792,0.9792,0.9792,0.9792,0.9792,0.9792,0.9792,0.9792,0.9792,0.9792,0.9792,0.9792,0.9792,0.9792,0.9792,1.0031,1.0509,1.3228,1.4842,1.5341,1.8081,1.9395,1.9395,1.9395,1.9395,1.9395,1.9395,1.9515,1.9686,1.9887,1.9997,2.0104,2.0428,2.0541,2.0568,2.0775,2.0909,2.0982,0.0,0.0,0.0,0.0,0.0,0.0,0.0,0.0,0.0,0.0,0.0,0.0,0.0,0.0,0.0,0.0,0.0,0.0,0.0,0.0,0.0,0.0,0.0,0.0,0.0,0.0,0.0,0.0,0.0,0.0,0.0,0.0,0.0,0.0,0.0,0.0,0.0,0.0,0.0,0.0,0.0,0.0,0.0,0.0,0.0,0.0,0.0,0.0,0.0,0.0,0.0,0.0,0.6958,0.6656,0.6254,0.7612,0.7988,0.8047,0.8253,0.84,0.0,0.8672,0.8798,0.8926,0.9011,0.0,0.0,0.0,0.0,0.0,0.0,0.9734,0.0,0.9792,0.9792,0.9792,0.9792,0.9792,0.9792,0.9792,0.9792,0.9792,0.9792,0.9792,0.9792,0.9792,0.9792,0.9792,0.0,0.9792,0.9792,0.9792,0.9792,0.9792,0.9792,1.2988,1.4604,1.4634,1.7877,1.9062,1.846,1.9127,1.9461,1.9575,1.9659,1.9813,1.9993,2.0287,2.0408,2.0441,2.0735,2.0848,2.0869,2.1042,2.1109,2.1109,0.0,0.0,0.0,0.0,0.0,0.0,0.0,0.0,0.0,0.0,0.0,0.0,0.0,0.0,0.0,0.0,0.0,0.0,0.0,0.0,0.0,0.0,0.0,0.0,0.0,0.0,0.0,0.0,0.0,0.0,0.0,0.0,0.0,0.0,0.0,0.0,0.0,0.0,0.0,0.0,0.0,0.0,0.0,0.0,0.0,0.0,0.0,0.0,0.0,0.0,0.0,0.0,0.5929,0.5927,0.6104,0.7562,0.7988,0.805,0.827,0.841,0.0,0.8689,0.8808,0.0,0.9148,0.9221,0.9247,0.94,0.0,0.0,0.9768,0.9792,0.9792,0.9792,0.9792,0.9792,0.9792,0.9792,0.9792,0.9792,0.9792,0.9792,0.9792,0.9792,0.9792,0.9792,0.9792,0.0,0.9792,0.9792,0.9792,0.9792,0.9792,0.9792,0.9792,1.2843,1.4391,1.4421,1.7484,1.8198,1.685,1.8463,1.9354,1.9608,2.0056,2.0244,2.0264,2.0595,2.0746,2.0773,2.1002,2.1109,2.1109,2.1109,2.1109,2.1109,0.0,0.0,0.0,0.0,0.0,0.0,0.0,0.0,0.0,0.0,0.0,0.0,0.0,0.0,0.0,0.0,0.0,0.0,0.0,0.0,0.0,0.0,0.0,0.0,0.0,0.0,0.0,0.0,0.0,0.0,0.0,0.0,0.0,0.0,0.0,0.0,0.0,0.0,0.0,0.0,0.0,0.0,0.0,0.0,0.0,0.0,0.0,0.0,0.0,0.0,0.0,0.0,0.5325,0.5275,0.4893,0.7307,0.7988,0.8074,0.8364,0.8485,0.0,0.0,0.8885,0.895,0.9148,0.9274,0.9403,0.953,0.9676,0.9754,0.9785,0.9792,0.9792,0.9792,0.9792,0.9792,0.9792,0.9792,0.9792,0.9792,0.9792,0.9792,0.9792,0.9792,0.9792,0.9792,0.9792,0.0,0.9792,0.9792,0.9792,0.9792,0.9792,0.9792,0.9792,1.1736,1.2723,0.0,1.4688,1.5464,1.5173,1.6887,1.7811,1.8167,1.9851,2.0581,2.0601,2.0895,2.1015,2.1022,2.1082,2.1109,2.1109,2.1109,2.1109,2.1109,0.0,0.0,0.0,0.0,0.0,0.0,0.0,0.0,0.0,0.0,0.0,0.0,0.0,0.0,0.0,0.0,0.0,0.0,0.0,0.0,0.0,0.0,0.0,0.0,0.0,0.0,0.0,0.0,0.0,0.0,0.0,0.0,0.0,0.0,0.0,0.0,0.0,0.0,0.0,0.0,0.0,0.0,0.0,0.0,0.0,0.0101,0.0782,0.0,0.0,0.0,0.0,0.0,0.0,0.0,0.4516,0.7207,0.7988,0.8081,0.8401,0.0,0.0,0.8835,0.0,0.8967,0.924,0.9352,0.9445,0.9666,0.9741,0.9792,0.9792,0.9792,0.9792,0.9792,0.9792,0.9792,0.9792,0.9792,0.9792,0.9792,0.9792,0.9792,0.9792,0.9792,0.9792,0.9792,0.0,0.9792,0.9792,0.9792,0.9792,0.9792,0.9792,0.9792,0.9792,1.1408,1.2213,1.2217,1.3825,1.4291,1.3796,1.6345,1.7648,1.7937,1.9987,2.0882,2.0895,2.1049,2.1109,2.1109,2.1109,2.1109,2.1109,2.1109,2.1109,2.1109,0.0,0.0,0.0,0.0,0.0,0.0,0.0,0.0,0.0,0.0,0.0,0.0,0.0,0.0,0.0,0.0,0.0,0.0,0.0,0.0,0.0,0.0,0.0,0.0,0.0,0.0,0.0,0.0,0.0,0.0,0.0,0.0,0.0,0.0,0.0,0.0,0.0,0.0,0.0,0.0,0.0,0.0,0.0,0.0,0.0,0.0,0.0,0.0706,0.1486,0.0379,0.0,0.0,0.0,0.0,0.4516,0.7207,0.7988,0.8081,0.8401,0.0,0.8621,0.8848,0.8912,0.0,0.9313,0.941,0.9466,0.9761,0.9792,0.9792,0.9792,0.9792,0.9792,0.9792,0.9792,0.9792,0.9792,0.9792,0.9792,0.9792,0.9792,0.9792,0.9792,0.9792,0.9792,0.9792,0.0,0.9792,0.9792,0.9792,0.9792,0.9792,0.9792,0.9792,0.9792,1.111,1.1796,1.1796,1.3144,1.3262,1.2398,1.5603,1.7315,1.7823,1.9808,2.0817,2.1109,2.1109,2.1109,2.1109,2.1109,2.1109,2.1109,2.1109,2.1109,2.1109,0.0,0.0,0.0,0.0,0.0,0.0,0.0,0.0,0.0,0.0,0.0,0.0,0.0,0.0,0.0,0.0,0.0,0.0,0.0,0.0,0.0,0.0,0.0,0.0,0.0,0.0,0.0,0.0,0.0,0.0,0.0,0.0,0.0,0.0,0.0,0.0,0.0,0.0,0.0,0.0,0.0,0.0,0.0,0.0,0.0,0.0,0.0,0.0126,0.0227,0.005,0.0126,0.0,0.0,0.0,0.4516,0.7207,0.7988,0.8081,0.0,0.0,0.8862,0.0,0.8912,0.8987,0.0,0.0,0.9466,0.0,0.9792,0.9792,0.9792,0.9792,0.9792,0.9792,0.9792,0.9792,0.9792,0.9792,0.9792,0.9792,0.9792,0.9792,0.9792,0.9792,0.9792,0.0,0.9792,0.9792,0.9792,0.9792,0.9792,0.9792,0.9792,0.9792,0.9792,1.0001,1.0119,1.0122,1.047,1.0634,1.0689,1.2776,1.4638,1.6292,1.8072,1.9712,2.1109,2.1109,2.1109,2.1109,2.1109,2.1109,2.1109,2.1109,2.1109,2.1109,0.0,0.0,0.0,0.0,0.0,0.0,0.0,0.0,0.0,0.0,0.0,0.0,0.0,0.0,0.0,0.0,0.0,0.0,0.0,0.0,0.0,0.0,0.0,0.0,0.0,0.0,0.0,0.0,0.0,0.0,0.0,0.0,0.0,0.0,0.0,0.0,0.0,0.0,0.0,0.0,0.0,0.0,0.0,0.0,0.0,0.0,0.0,0.0,0.0,0.0,0.0,0.0328,0.2264,0.0,0.0,0.0,0.7409,0.8081,0.8401,0.8706,0.8912,0.0,0.8912,0.8987,0.9313,0.0,0.9466,0.9761,0.9792,0.9792,0.9792,0.9792,0.9792,0.9792,0.9792,0.9792,0.9792,0.9792,0.9792,0.9792,0.9792,0.9792,0.9792,0.9792,0.9792,0.0,0.9792,0.9792,0.9792,0.9792,0.9792,0.9792,0.9792,0.9792,0.9792,0.9792,0.9836,0.992,1.0103,1.0256,1.0434,1.1355,1.3277,1.601,1.7725,1.9483,2.1109,2.1109,2.1109,2.1109,2.1109,2.1109,2.1109,2.1109,2.1109,2.1109,0.0,0.0,0.0,0.0,0.0,0.0,0.0,0.0,0.0,0.0,0.0,0.0,0.0,0.0,0.0,0.0,0.0,0.0,0.0,0.0,0.0,0.0,0.0,0.0,0.0,0.0,0.0,0.0,0.0,0.0,0.0,0.0,0.0,0.0,0.0,0.0,0.0,0.0,0.0,0.0,0.0,0.0,0.0,0.0,0.0,0.0,0.0,0.0,0.0,0.0,0.0,0.0227,0.1586,0.2914,0.0,0.0,0.0,0.0,0.0,0.0,0.8912,0.8912,0.8912,0.8977,0.0,0.0,0.9456,0.0,0.9765,0.9792,0.9792,0.9792,0.9792,0.9792,0.9792,0.9792,0.9792,0.9792,0.9792,0.9792,0.9792,0.9792,0.9792,0.9792,0.0,0.0,0.9792,0.9792,0.9792,0.9792,0.9792,0.9792,0.9792,0.9792,0.9792,0.9792,0.9866,0.9987,1.0205,1.0354,1.0497,1.0649,1.261,1.5978,1.7275,1.8832,2.0456,2.0912,2.1109,2.1109,2.1109,2.1109,2.1109,2.1109,2.1109,2.1109,0.0,0.0,0.0,0.0,0.0,0.0,0.0,0.0,0.0,0.0,0.0,0.0,0.0,0.0,0.0,-0.4116,-0.2715,-0.136,-0.0076,0.0,0.0,0.0,0.0,0.0,0.0,0.0,0.0,0.0,0.0,0.0,0.0,0.0,0.0,0.0,0.0,0.0,0.0,0.0,0.0,0.0,0.0,0.0,0.0,0.0,0.0,0.0,0.0,0.0,0.0,0.0,0.0,0.0227,0.1586,0.2914,0.0,0.0,0.0,0.0,0.0,0.8706,0.0,0.8912,0.8912,0.0,0.0,0.0,0.0,0.9588,0.9697,0.9792,0.9792,0.9792,0.9792,0.9792,0.9792,0.9792,0.9792,0.9792,0.9792,0.9792,0.9792,0.9792,0.9792,0.9792,0.0,0.0,0.9792,0.9792,0.9792,0.9792,0.9792,0.9792,0.9792,0.9792,0.9792,0.9792,0.9866,0.9987,1.0205,1.0354,1.0497,1.0649,1.261,1.5913,1.601,1.7017,1.8768,2.0424,2.1109,2.1109,2.1109,2.1109,2.1109,2.1109,2.1109,2.1109,0.0,0.0,0.0,0.0,0.0,0.0,0.0,0.0,0.0,0.0,0.0,0.0,0.0,-0.6808,-0.545,-0.4116,-0.1988,-0.0504,-0.0025,0.0,0.0,0.0,0.0,0.0,0.0,0.0,0.0,0.0,0.0,0.0,0.0,0.0,0.0,0.0,0.0,0.0,0.0,0.0,0.0,0.0,0.0,0.0,0.0,0.0,0.0,0.0,0.0,0.0,0.0,0.0,0.0,0.0,0.0,0.0,0.0,0.0,0.0,0.0,0.0,0.0,0.0,0.8885,0.8912,0.895,0.9148,0.9298,0.9425,0.9578,0.9694,0.9792,0.9792,0.9792,0.9792,0.9792,0.9792,0.9792,0.9792,0.9792,0.9792,0.9792,0.9792,0.9792,0.9792,0.0,0.0,0.0,0.0,0.9792,0.9792,0.9792,0.9792,0.9792,0.9792,0.9792,0.9792,0.9792,0.9866,0.9987,1.0205,1.0354,1.0497,1.0649,1.1989,1.4293,1.5394,1.7532,2.0227,2.0849,2.1109,2.1109,2.1109,2.1109,2.1109,2.1109,2.1109,2.1109,0.0,0.0,0.0,0.0,0.0,0.0,0.0,0.0,0.0,0.0,0.0,0.0,0.0,0.0,-0.5952,-0.4166,-0.1962,-0.0479,-0.0025,0.0,0.0,0.0,0.0,0.0,0.0,0.0,0.0,0.0,0.0,0.0,0.0,0.0,0.0,0.0,0.0,0.0,0.0,0.0,0.0,0.0,0.0,0.0,0.0,0.0,0.0,0.0,0.0,0.0,0.0,0.0,0.0,0.0,0.0,0.0,0.0,0.0,0.0,0.0,0.8468,0.0,0.0,0.0,0.0,0.8936,0.9059,0.0,0.9376,0.95,0.9649,0.9734,0.9781,0.9792,0.9792,0.9792,0.9792,0.9792,0.9792,0.9792,0.9792,0.9792,0.9792,0.9792,0.9792,0.0,0.0,0.0,0.0,0.0,0.9792,0.9792,0.9792,0.9792,0.9792,0.9792,0.9792,0.9792,0.9893,1.0096,1.0232,1.0382,1.0571,1.0673,1.1666,1.3386,1.5135,1.7538,2.0259,2.0849,2.1109,2.1109,2.1109,2.1109,2.1109,2.1109,2.1109,2.1109,0.0,0.0,0.0,0.0,0.0,0.0,0.0,0.0,0.0,0.0,0.0,0.0,0.0,0.0,0.0,-0.4241,-0.2765,-0.1436,-0.0076,0.0,0.0,0.0,0.0,0.0,0.0,0.0,0.0,0.0,0.0,0.0,0.0,0.0,0.0,0.0,0.0,0.0,0.0,0.0,0.0,0.0,0.0,0.0,0.0,0.0,0.0,0.0,0.0,0.0,0.0,0.0,0.0,0.0,0.0,0.0,0.0,0.0,0.0,0.0,0.0,0.0,0.0,0.0,0.0,0.0,0.8912,0.0,0.9223,0.9373,0.95,0.9652,0.9758,0.9788,0.9792,0.9792,0.9792,0.9792,0.9792,0.9792,0.9792,0.9792,0.9792,0.9792,0.0,0.0,0.0,0.0,0.9792,0.9792,0.9792,0.9792,0.9792,0.9792,0.9792,0.9792,0.9792,0.9792,0.9971,1.0305,1.0312,1.0432,1.0681,1.0684,1.1666,1.3386,1.5135,1.6888,1.8634,2.0392,2.1109,2.1109,2.1109,2.1109,2.1109,2.1109,2.1109,2.1109,0.0,0.0,0.0,0.0,0.0,0.0,0.0,0.0,0.0,0.0,0.0,0.0,0.0,0.0,0.0,-0.4141,-0.2765,-0.1436,-0.0076,0.0,0.0,0.0,0.0,0.0,0.0,0.0,0.0,0.0,0.0,0.0,0.0,0.0,0.0,0.0,0.0,0.0,0.0,0.0,0.0,0.0,0.0,0.0,0.0,0.0,0.0,0.0,0.0,0.0,0.0,0.0,0.0,0.0227,0.0,0.0,0.0,0.0,0.0,0.0,0.8414,0.0,0.0,0.0,0.0,0.0,0.0,0.0,0.9221,0.9237,0.9425,0.9622,0.9659,0.9721,0.9792,0.9792,0.9792,0.9792,0.9792,0.9792,0.9792,0.9792,0.9792,0.9792,0.0,0.0,0.0,0.0,0.9792,0.9792,0.9792,0.9792,0.9792,0.9792,0.9792,0.9792,0.9792,0.9792,0.989,1.0082,1.0226,1.0378,1.0558,1.067,1.1666,1.3386,1.5135,1.6888,1.8634,2.0392,2.1109,2.1109,2.1109,2.1109,2.1109,2.1109,2.1109,2.1109,0.0,0.0,0.0,0.0,0.0,0.0,0.0,0.0,0.0,0.0,0.0,0.0,0.0,0.0,0.0,-0.4166,-0.3291,-0.2038,-0.0126,0.0,0.0,0.0,0.0,0.0,0.0,0.0,0.0,0.0,0.0,0.0,0.0,0.0,0.0,0.0,0.0,0.0,0.0,0.0,0.0,0.0,0.0,0.0,0.0,0.0,0.0,0.0,0.0,0.0,0.0,0.0,0.0381,0.0,0.1762,0.3292,0.0,0.0,0.0,0.0,0.0,0.0,0.0,0.0,0.0,0.0,0.8912,0.9001,0.9107,0.0,0.9325,0.9459,0.9588,0.9676,0.9721,0.9781,0.9792,0.9792,0.9792,0.9792,0.9792,0.9792,0.9792,0.9792,0.0,0.9792,0.9792,0.9792,0.9792,0.9792,0.9792,0.9792,0.9792,0.9792,0.9792,0.9792,0.9792,0.9852,0.9964,1.0116,1.0297,1.0446,1.0592,1.0647,1.124,1.2347,1.4814,1.6463,1.7602,2.0068,2.1109,2.1109,2.1109,2.1109,2.1109,2.1109,2.1109,2.1109,0.0,0.0,0.0,0.0,0.0,0.0,0.0,0.0,0.0,0.0,0.0,0.0,0.0,0.0,0.0,0.0,-0.3991,-0.2864,-0.0177,0.0,0.0,0.0,0.0,0.0,0.0,0.0,0.0,0.0,0.0,0.0,0.0,0.0,0.0,0.0,0.0,0.0,0.0,0.0,0.0,0.0,0.0,0.0,0.0,0.0,0.0,0.0,0.0,0.0,0.0,0.0,0.0797,0.1773,0.1773,0.3641,0.0,0.0,0.7144,0.0,0.0,0.0,0.0,0.0,0.0,0.0,0.8912,0.8912,0.8946,0.0,0.9172,0.9264,0.951,0.9588,0.9649,0.9748,0.9781,0.9792,0.9792,0.9792,0.9792,0.9792,0.9792,0.0,0.9792,0.9792,0.9792,0.9792,0.9792,0.9792,0.9792,0.9792,0.9792,0.9792,0.9792,0.9792,0.9792,0.994,1.0096,1.0315,1.0426,1.0571,1.0688,1.0688,1.0688,1.0883,1.4395,1.5913,1.6172,1.9642,2.1109,2.1109,2.1109,2.1109,2.1109,2.1109,2.1109,2.1109,0.0,0.0,0.0,0.0,0.0,0.0,0.0,0.0,0.0,0.0,0.0,0.0,0.0,0.0,0.0,0.0,0.0,-0.2864,-0.0177,0.0,0.0,0.0,0.0,0.0,0.0,0.0,0.0,0.0,0.0,0.0,0.0,0.0,0.0,0.0,0.0,0.0,0.0,0.0,0.0,0.0,0.0,0.0,0.0,0.0,0.0,0.0,0.0,0.0,0.0,0.0,0.0185,0.0396,0.0396,0.0,0.0,0.0,0.0,0.0,0.0,0.0,0.0,0.0,0.0,0.0,0.8912,0.8912,0.8919,0.0,0.91,0.9228,0.9257,0.9442,0.9618,0.9646,0.9717,0.9792,0.9792,0.9792,0.9792,0.9792,0.9792,0.0,0.9792,0.9792,0.9792,0.9792,0.9792,0.9792,0.9792,0.9792,0.9792,0.9792,0.9792,0.9792,0.9792,0.994,1.0096,1.0315,1.0426,1.0571,1.0688,1.0688,1.0688,1.0883,1.4395,1.5913,1.6172,1.9642,2.1109,2.1109,2.1109,2.1109,2.1109,2.1109,2.1109,2.1109,0.0,0.0,0.0,0.0,0.0,0.0,0.0,0.0,0.0,0.0,0.0,0.0,0.0,0.0,0.0,0.0,0.0,0.0,0.0,0.0,0.0,0.0,0.0,0.0,0.0,0.0,0.0,0.0,0.0,0.0,0.0,0.0,0.0,0.0,0.0,0.0,0.0,0.0,0.0,0.0,0.0,0.0,0.0,0.0,0.0,0.0,0.0,0.0,0.0,0.0,0.0,0.0,0.0,0.194,0.4224,0.0,0.6365,0.8628,0.0,0.0,0.0,0.8892,0.0,0.0,0.0,0.8912,0.8912,0.8912,0.8967,0.9066,0.9169,0.9305,0.9408,0.9483,0.9618,0.9687,0.9687,0.9748,0.9792,0.9792,0.9792,0.0,0.9792,0.9792,0.9792,0.9792,0.9792,0.9792,0.9792,0.9792,0.9792,0.9792,0.9792,0.9792,0.9792,1.0018,1.0205,1.0315,1.05,1.0646,1.0688,1.0688,1.0688,1.085,1.3484,1.5107,1.6113,1.8736,2.0329,2.1109,2.1109,2.1109,2.1109,2.1109,2.1109,2.1109,0.0,0.0,0.0,0.0,0.0,0.0,0.0,0.0,0.0,0.0,0.0,0.0,0.0,0.0,0.0,0.0,0.0,0.0,0.0,0.0,0.0,0.0,0.0,0.0,0.0,0.0,0.0,0.0,0.0,0.0,0.0,0.0,0.0,0.0,0.0,0.0,0.0,0.0,0.0,0.0,0.0,0.0,0.0,0.0,0.0,0.0,0.0,0.0,0.0,0.0,0.0,0.0,0.0,0.1746,0.0,0.0,0.0,0.0,0.0,0.0,0.0,0.0,0.0,0.8912,0.0,0.0,0.0,0.8912,0.8912,0.8946,0.9117,0.9162,0.0,0.0,0.0,0.0,0.0,0.9677,0.0,0.9788,0.9792,0.0,0.9792,0.9792,0.9792,0.9792,0.9792,0.9792,0.9792,0.9792,0.9792,0.9792,0.9792,0.9792,0.9792,1.0127,1.0312,1.0315,1.0578,1.0688,1.0688,1.0688,1.0688,1.0784,1.2541,1.4293,1.6043,1.7795,1.9546,2.1109,2.1109,2.1109,2.1109,2.1109,2.1109,2.1109,-0.7988,-0.7988,0.0,0.0,0.0,0.0,0.0,0.0,0.0,0.0,0.0,0.0,0.0,0.0,0.0,0.0,0.0,0.0,-0.0076,0.0,0.0,0.0,0.0,0.0,0.0,0.0,0.0,0.0,0.0,0.0,0.0,0.0,0.0,0.0,0.0,0.0,0.0,0.0,0.0,0.0,0.0,0.0,0.0,0.0,0.0,0.0,0.0,0.0,0.0,0.0,0.0,0.0,0.0,0.1113,0.2696,0.4094,0.0,0.0,0.0,0.0,0.0,0.0,0.8912,0.0,0.0,0.0,0.8912,0.8912,0.0,0.8916,0.8933,0.0,0.0,0.0,0.0,0.0,0.9591,0.9625,0.968,0.9775,0.9792,0.9792,0.0,0.9792,0.9792,0.9792,0.9792,0.9792,0.9792,0.9792,0.9792,0.9792,0.9792,0.9792,0.9792,1.0127,1.0312,1.0315,1.0578,1.0688,1.0688,1.0688,1.0688,1.0784,1.2541,1.4293,1.6043,1.7795,1.9546,2.1109,2.1109,2.1109,2.1109,2.1109,2.1109,2.1109,-0.7988,-0.7988,0.0,0.0,0.0,0.0,0.0,0.0,0.0,0.0,0.0,0.0,0.0,0.0,0.0,0.0,0.0,-0.0605,0.0,0.0,0.0,0.0,0.0,0.0,0.0,0.0,0.0,0.0,0.0,0.0,0.0,0.0,0.0,0.0,0.0,0.0,0.0,0.0,0.0,0.0,0.0,0.0,0.0,0.0,0.0,0.0,0.0,0.0,0.0,0.0,0.0,0.0,0.0,0.0,0.0,0.0,0.0,0.0,0.0,0.0,0.0,0.0,0.0,0.0,0.8912,0.0,0.8912,0.0,0.0,0.0,0.0,0.0,0.0,0.0,0.9179,0.0,0.0,0.0,0.9561,0.0,0.0,0.0,0.0,0.0,0.0,0.0,0.9792,0.9792,0.9792,0.9792,0.9792,0.9792,0.9792,0.9792,0.9792,1.0127,1.0312,1.0315,1.0578,1.0688,1.0688,1.0688,1.0688,1.0754,1.1468,1.3357,1.5946,1.6695,1.8602,2.1109,2.1109,2.1109,2.1109,2.1109,2.1109,2.1109,0.0,0.0,0.0,0.0,0.0,0.0,0.0,0.0,0.0,0.0,0.0,0.0,-0.2154,-0.0791,0.0,0.0,0.0,0.0,0.0,0.0,0.0,0.0,0.0,0.0,0.0,0.0,0.0,0.0,0.0,0.0,0.0,0.0,0.0,0.0,0.0,0.0,0.0,0.0,0.0,0.0,0.0,0.0,0.0,0.0,0.0,0.0,0.0,0.0,0.0,0.0,0.0,0.0,0.0,0.0,0.0,0.0,0.0,0.0,0.838,0.0,0.0,0.0,0.0,0.0,0.0,0.0,0.0,0.0,0.0,0.0,0.0,0.0,0.8912,0.0,0.0,0.9138,0.0,0.0,0.0,0.0,0.0,0.0,0.0,0.0,0.0,0.9792,0.9792,0.9792,0.9792,0.9792,0.9792,0.9792,0.9792,0.9808,0.9852,1.0148,1.0332,1.0373,1.0599,1.0688,1.0688,1.0688,1.0688,1.0688,1.0688,1.2672,1.5913,1.5913,1.7956,2.1109,2.1109,2.1109,2.1109,2.1109,2.1109,2.1109,-0.7988,-0.7988,0.0,0.0,0.0,0.0,0.0,0.0,0.0,0.0,0.0,0.0,0.0,0.0,0.0,0.0,0.0,0.0,0.0,0.0,0.0,0.0,0.0,0.0,0.0,0.0,0.0,0.0,0.0,0.0,0.0,0.0,0.0,0.0,0.0,0.0,0.0,0.0,0.0,0.0,0.0,0.0,0.0,0.0,0.0,0.0,0.0,0.0,0.0,0.0,0.0,0.0,0.0,0.0,0.0,0.0,0.0,0.0,0.0,0.0,0.0,0.8912,0.0,0.0,0.0,0.0,0.8912,0.0,0.0,0.0,0.0,0.0,0.0,0.0,0.0,0.0,0.0,0.0,0.0,0.0,0.0,0.0,0.0,0.9792,0.9792,0.9792,0.9792,0.9792,0.9792,0.9792,0.9792,0.9792,0.9792,0.9863,0.9977,1.0202,1.038,1.0487,1.0643,1.0688,1.0688,1.0688,1.0688,1.0688,1.0688,1.2672,1.5913,1.5913,1.7956,2.1109,2.1109,2.1109,2.1109,2.1109,2.1109,2.1109,0.0,0.0,0.0,0.0,0.0,0.0,0.0,-0.8101,0.0,0.0,0.0,0.0,0.0,-0.0796,0.0,0.0,0.0,0.0,0.0,0.0,0.0,0.0,0.0,0.0,0.0,0.0,0.0,0.0,0.0,0.0,0.0,0.0,0.0,0.0,0.0,0.0,0.0,0.0,0.0,0.0,0.0,0.0,0.0,0.0,0.0,0.0,0.0,0.0,0.0,0.0,0.0,0.0,0.0,0.0,0.0392,0.2404,0.3688,0.0,0.0,0.0,0.8912,0.8912,0.0,0.0,0.0,0.0,0.0,0.0,0.0,0.0,0.0,0.0,0.0,0.0,0.0,0.0,0.0,0.0,0.0,0.0,0.0,0.0,0.0,0.0,0.0,0.9792,0.9792,0.9792,0.9792,0.9792,0.9792,0.9792,0.9792,0.9863,0.9984,1.0202,1.0383,1.0493,1.0646,1.0688,1.0688,1.0688,1.0688,1.0688,1.0688,1.2672,1.5913,1.5913,1.7956,2.1109,2.1109,2.1109,2.1109,2.1109,2.1109,2.1109,-0.8108,0.0,0.0,0.0,0.0,0.0,0.0,0.0,0.0,0.0,-0.4527,0.0,-0.2092,0.0,0.0,0.0,0.0,0.0,0.0,0.0,0.0,0.0,0.0,0.0,0.0,0.0,0.0,0.0,0.0,0.0,0.0,0.0,0.0,0.0,0.0,0.0,0.0,0.0,0.0,0.0,0.0,0.0,0.0,0.0,0.0,0.0,0.0,0.0,0.0,0.0,0.0,0.0,0.0,0.0,0.028,0.1761,0.3296,0.4832,0.6311,0.7789,0.0,0.8912,0.8912,0.0,0.8912,0.0,0.0,0.0,0.0,0.0,0.0,0.0,0.0,0.0,0.0,0.0,0.0,0.9018,0.0,0.0,0.0,0.0,0.0,0.0,0.9792,0.9792,0.9792,0.9792,0.0,0.0,0.9792,0.9792,0.9792,0.989,1.0099,1.0232,1.0378,1.0575,1.0673,1.0688,1.0688,1.0688,1.0688,1.0688,1.0688,1.2672,1.5913,1.5913,1.7956,2.1109,2.1109,2.1109,2.1109,2.1109,2.1109,2.1109,0.0,0.0,0.0,0.0,-0.8187,0.0,0.0,0.0,-0.6287,0.0,-0.375,-0.1994,-0.1912,-0.0777,0.0,0.0,0.0,0.0,0.0,0.0,0.0,0.0,0.0,0.0,0.0,0.0,0.0,0.0,0.0,0.0,0.0,0.0,0.0,0.0,0.0,0.0,0.0,0.0,0.0,0.0,0.0,0.0,0.0,0.0,0.0,0.0,0.0,0.0,0.0,0.0,0.0,0.0,0.0,0.0,0.0281,0.1682,0.3249,0.4817,0.6214,0.7727,0.8933,0.8933,0.0,0.0,0.0,0.0,0.8933,0.0,0.0,0.0,0.0,0.0,0.0,0.0,0.0,0.0,0.0,0.0,0.0,0.0,0.0,0.0,0.0,0.9788,0.9792,0.9792,0.9792,0.0,0.0,0.0,0.9792,0.9792,0.9792,0.9968,1.0308,1.0312,1.0429,1.0688,1.0688,1.0688,1.0688,1.0688,1.0688,1.0688,1.0688,1.2672,1.5913,1.5913,1.7956,2.1109,2.1109,2.1109,2.1109,2.1109,2.1109,2.1109,-0.8461,-0.8485,-0.8492,0.0,-0.8476,-0.8464,0.0,0.0,0.0,0.0,-0.3241,-0.1723,-0.064,-0.0196,0.0,0.0,0.0,0.0,0.0,0.0,0.0,0.0,0.0,0.0,0.0,0.0,0.0,0.0,0.0,0.0,0.0,0.0,0.0,0.0,0.0,0.0,0.0,0.0,0.0,0.0,0.0,0.0,0.0,0.0,0.0,0.0,0.0,0.0,0.0,0.0,0.0,0.0,0.0,0.0,0.0087,0.0465,0.2494,0.472,0.5124,0.7206,0.9269,0.9269,0.9269,0.9269,0.0,0.0,0.0,0.0,0.0,0.0,0.0,0.0,0.0,0.0,0.0,0.0,0.0,0.0,0.0,0.9322,0.0,0.0,0.9649,0.9727,0.9792,0.9792,0.9792,0.0,0.0,0.0,0.0,0.9792,0.9792,0.9968,1.0308,1.0312,1.0429,1.0688,1.0688,1.0688,1.0688,1.0688,1.0688,1.0688,1.0688,1.2672,1.5913,1.5913,1.7956,2.1109,2.1109,2.1109,2.1109,2.1109,2.1109,2.1109,-0.8594,0.0,0.0,-0.8767,0.0,0.0,-0.8682,-0.6945,0.0,-0.4433,-0.2528,0.0,-0.0084,0.0,0.0,0.0,0.0,0.0,0.0,0.0,0.0,0.0,0.0,0.0,0.0,0.0,0.0,0.0,0.0,0.0,0.0,0.0,0.0,0.0,0.0,0.0,0.0,0.0,0.0,0.0,0.0,0.0,0.0,0.0,0.0,0.0,0.0,0.0,0.0,0.0,0.0,0.0,0.0,0.0,0.0147,0.0883,0.2817,0.4865,0.5566,0.7529,0.941,0.941,0.941,0.941,0.941,0.941,0.941,0.0,0.0,0.0,0.0,0.0,0.0,0.0,0.0,0.0,0.0,0.0,0.0,0.0,0.9442,0.9513,0.9602,0.9707,0.9792,0.9792,0.9792,0.0,0.0,0.0,0.0,0.9792,0.9792,0.9968,1.0308,1.0312,1.0429,1.0688,1.0688,1.0688,1.0688,1.0688,1.0688,1.0754,1.1501,1.3386,1.5946,1.6727,1.8634,2.1109,2.1109,2.1109,2.1109,2.1109,2.1109,2.1109,-0.8791,0.0,0.0,0.0,0.0,0.0,0.0,-0.6591,0.0,-0.4553,0.0,-0.0254,-0.0028,0.0,0.0,0.0,0.0,0.0,0.0,0.0,0.0,0.0,0.0,0.0,0.0,0.0,0.0,0.0,0.0,0.0,0.0,0.0,0.0,0.0,0.0,0.0,0.0,0.0,0.0,0.0,0.0,0.0,0.0,0.0,0.0,0.0,0.0,0.0,0.0,0.0,0.0,0.0,0.0,0.0,0.0326,0.201,0.3542,0.5072,0.6691,0.8283,0.9439,0.9439,0.9439,0.9439,0.9439,0.9439,0.9439,0.9439,0.9439,0.9439,0.0,0.0,0.0,0.0,0.0,0.0,0.0,0.0,0.0,0.0,0.0,0.0,0.9635,0.9717,0.9792,0.9792,0.9792,0.0,0.0,0.0,0.0,0.9792,0.9808,0.9988,1.0308,0.0,1.0446,1.0688,1.0688,1.0688,1.0688,1.0688,1.0688,1.0787,1.2314,1.4068,1.601,1.7532,1.9317,2.1109,2.1109,2.1109,2.1109,2.1109,2.1109,2.1109,0.0,0.0,0.0,0.0,0.0,-0.9303,-0.9303,-0.7698,-0.6037,-0.4816,-0.3142,-0.1544,-0.0146,0.0,0.0,0.0,0.0,0.0,0.0,0.0,0.0,0.0,0.0,0.0,0.0,0.0,0.0,0.0,0.0,0.0,0.0,0.0,0.0,0.0,0.0,0.0,0.0,0.0,0.0,0.0,0.0,0.0,0.0,0.0,0.0,0.0,0.0,0.0,0.0,0.0,0.0,0.0,0.0,0.0,0.0337,0.2016,0.3631,0.524,0.6908,0.8521,0.9744,0.9744,0.9744,0.9744,0.9744,0.9744,0.9744,0.9744,0.9744,0.9744,0.9744,0.0,0.0,0.0,0.0,0.0,0.0,0.0,0.0,0.0,0.0,0.9656,0.0,0.9775,0.9792,0.0,0.0,0.0,0.0,0.0,0.0,0.0,0.9913,0.0,0.0,0.0,1.0544,1.0688,1.0688,1.0688,1.0688,1.0688,1.0688,1.0721,1.1012,1.2964,1.5913,1.6237,1.8212,2.1109,2.1109,2.1109,2.1109,2.1109,2.1109,2.1109,0.0,0.0,0.0,0.0,0.0,0.0,0.0,-0.8075,-0.645,-0.4894,-0.3403,-0.1851,-0.0177,0.0,0.0,0.0,0.0,0.0,0.0,0.0,0.0,0.0,0.0,0.0,0.0,0.0,0.0,0.0,0.0,0.0,0.0,0.0,0.0,0.0,0.0,0.0,0.0,0.0,0.0,0.0,0.0,0.0,0.0,0.0,0.0,0.0,0.0,0.0,0.0,0.0,0.0,0.0,0.0,0.0586,0.1633,0.326,0.4914,0.6566,0.8191,0.9204,0.9792,0.9792,0.9792,0.9792,0.9792,0.9792,0.9792,0.9792,0.9792,0.9792,0.9792,0.9734,0.0,0.0,0.0,0.0,0.0,0.0,0.0,0.0,0.0,0.0,0.0,0.0,0.0,0.0,0.0,0.9792,0.9792,0.0,0.0,0.0,0.0,0.0,0.0,0.0,0.0,1.0688,1.0688,1.0688,1.0688,1.0688,1.0688,1.0754,1.1666,1.3517,1.6043,1.7859,1.9578,2.1109,2.1109,2.1109,2.1109,2.1109,2.1109,2.1109,0.0,-0.9432,0.0,0.0,-0.9476,0.0,-0.9635,-0.8534,-0.6963,-0.5012,-0.3438,-0.187,-0.0178,0.0,0.0,0.0,0.0,0.0,0.0,0.0,0.0,0.0,0.0,0.0,0.0,0.0,0.0,0.0,0.0,0.0,0.0,0.0,0.0,0.0,0.0,0.0,0.0,0.0,0.0,0.0,0.0,0.0,0.0,0.0,0.0,0.0,0.0,0.0,0.0,0.0,0.0,0.0,0.0,0.1141,0.2831,0.4426,0.6077,0.7759,0.9359,0.9792,0.9792,0.9792,0.9792,0.9792,0.9792,0.9792,0.9792,0.9792,0.9792,0.9792,0.9792,0.9792,0.0,0.0,0.0,0.0,0.0,0.0,0.0,0.0,0.0,0.0,0.9792,0.0,0.0,0.0,0.0,0.9792,0.9792,0.9792,0.9792,0.0,0.0,1.0126,1.0312,0.0,1.0602,1.0688,1.0688,1.0688,1.0688,1.0688,1.0688,1.0787,1.2153,1.3938,1.6172,1.9642,2.1109,2.1109,2.1109,2.1109,2.1109,2.1109,2.1109,2.1109,0.0,0.0,0.0,0.0,0.0,0.0,-0.9768,-0.9647,-0.8417,-0.5292,-0.349,-0.1871,-0.0184,0.0,0.0,0.0,0.0,0.0,0.0,0.0,0.0,0.0,0.0,0.0,0.0,0.0,0.0,0.0,0.0,0.0,0.0,0.0,0.0,0.0,0.0,0.0,0.0,0.0,0.0,0.0,0.0,0.0,0.0,0.0,0.0,0.0,0.0,0.0,0.0,0.0,0.0,0.0,0.0,0.1141,0.2831,0.4426,0.6077,0.7759,0.9359,0.9792,0.9792,0.9792,0.9792,0.9792,0.9792,0.9792,0.9792,0.9792,0.9792,0.9792,0.9792,0.9792,0.9792,0.0,0.0,0.0,0.0,0.0,0.0,0.0,0.0,0.0,0.0,0.9792,0.0,0.0,0.9792,0.9792,0.9792,0.9792,0.9792,0.9792,0.0,1.0266,1.0312,1.0558,1.0707,1.0688,1.0688,1.0688,1.0688,1.0688,1.0688,1.0721,1.0883,1.2836,1.6172,1.9642,2.1109,2.1109,2.1109,2.1109,2.1109,2.1109,2.1109,2.1109,0.0,0.0,0.0,0.0,0.0,0.0,0.0,-0.6047,-0.4945,-0.3629,-0.3752,-0.2923,-0.0278,0.0,0.0,0.0,0.0,0.0,0.0,0.0,0.0,0.0,0.0,0.0,0.0,0.0,0.0,0.0,0.0,0.0,0.0,0.0,0.0,0.0,0.0,0.0,0.0,0.0,0.0,0.0,0.0,0.0,0.0,0.0,0.0,0.0,0.0,0.0,0.0,0.0,0.0,0.0185,0.1171,0.2616,0.4272,0.5925,0.7548,0.8988,0.9636,0.9792,0.9792,0.9792,0.9792,0.9792,0.9792,0.9792,0.9792,0.9792,0.9792,0.9792,0.9792,0.9792,0.9792,0.0,0.0,0.0,0.0,0.0,0.0,0.0,0.0,0.0,0.0,0.0,0.0,0.0,0.0,0.9792,0.9792,0.9792,0.9832,0.9923,0.0,1.0352,1.0409,1.0616,1.0688,1.0688,1.0688,1.0688,1.0688,1.0688,1.0688,1.0817,1.2898,1.4619,1.6172,1.9642,2.1109,2.1109,2.1109,2.1109,2.1109,2.1109,2.1109,2.1109,-0.9267,0.0,-0.7305,0.0,-0.5693,-0.4888,-0.4888,-0.3924,-0.3023,-0.2557,-0.3489,-0.3137,-0.0309,0.0,0.0,0.0,0.0,0.0,0.0,0.0,0.0,0.0,0.0,0.0,0.0,0.0,0.0,0.0,0.0,0.0,0.0,0.0,0.0,0.0,0.0,0.0,0.0,0.0,0.0,0.0,0.0,0.0,0.0,0.0,0.0,0.0,0.0,0.0,0.0,0.0,0.0,0.0278,0.1971,0.3598,0.5223,0.6902,0.8529,0.9792,0.9792,0.9792,0.9792,0.9792,0.9792,0.9792,0.9792,0.9792,0.9792,0.9792,0.9792,0.9792,0.9792,0.9792,0.9792,0.9792,0.0,0.0,0.0,0.0,0.0,0.0,0.9792,0.9792,0.9792,0.9792,0.0,0.0,0.0,0.9792,0.9792,0.9792,0.9859,0.0,0.0,0.0,1.049,1.0643,1.0688,1.0688,1.0688,1.0688,1.0688,1.0688,1.0979,1.1633,1.4619,1.6205,1.6888,1.9871,2.1109,2.1109,2.1109,2.1109,2.1109,2.1109,2.1109,2.1109,-0.7986,-0.7601,-0.7022,-0.5227,-0.4907,-0.4907,-0.4907,-0.4875,-0.43,-0.2698,-0.2506,-0.1876,-0.0186,0.0,0.0,0.0,0.0,0.0,0.0,0.0,0.0,0.0,0.0,0.0,0.0,0.0,0.0,0.0,0.0,0.0,0.0,0.0,0.0,0.0,0.0,0.0,0.0,0.0,0.0,0.0,0.0,0.0,0.0,0.0,0.0,0.0,0.0,0.0,0.0,0.0,0.0,0.0278,0.1971,0.3598,0.5223,0.6902,0.8529,0.9792,0.9792,0.9792,0.9792,0.9792,0.9792,0.9792,0.9792,0.9792,0.9792,0.9792,0.9792,0.9792,0.9792,0.9792,0.9792,0.9792,0.0,0.0,0.0,0.0,0.0,0.0,0.9792,0.9792,0.9792,0.9792,0.0,0.0,0.0,0.0,0.0,0.0,0.0,0.998,1.0202,0.0,1.049,1.0643,1.0688,1.0688,1.0688,1.0688,1.0688,1.0688,1.1633,1.3353,1.5139,1.6888,1.8602,2.036,2.1109,2.1109,2.1109,2.1109,2.1109,2.1109,2.1109,2.1109,-0.957,-0.7539,-0.5712,-0.5134,-0.3118,-0.1546,-0.1546,-0.1546,-0.1386,-0.087,-0.0806,-0.0578,-0.0064,0.0,0.0,0.0,0.0,0.0,0.0,0.0,0.0,0.0,0.0,0.0,0.0,0.0,0.0,0.0,0.0,0.0,0.0,0.0,0.0,0.0,0.0,0.0,0.0,0.0,0.0,0.0,0.0,0.0,0.0,0.0,0.0,0.0,0.0,0.0,0.0,0.0,0.0,0.0278,0.1971,0.3598,0.5437,0.8221,0.939,0.9792,0.9792,0.9792,0.9792,0.9792,0.9792,0.9792,0.9792,0.9792,0.9792,0.9792,0.9792,0.9792,0.9792,0.9792,0.9792,0.9792,0.9792,0.0,0.0,0.0,0.0,0.0,0.9792,0.9792,0.9792,0.9792,0.0,0.0,0.0,0.0,0.0,0.0,0.0,0.0,1.0348,0.0,1.0646,1.0697,1.0688,1.0688,1.0688,1.0688,1.0688,1.0688,1.1012,1.1696,1.4619,1.621,1.6953,1.9903,2.1109,2.1109,2.1109,2.1109,2.1109,2.1109,2.1109,2.1109,-0.9557,-0.7694,-0.5772,-0.4439,-0.2419,-0.0786,-0.0098,0.0,0.0,0.0,0.0,0.0,0.0,0.0,0.0,0.0,0.0,0.0,0.0,0.0,0.0,0.0,0.0,0.0,0.0,0.0,0.0,0.0,0.0,0.0,0.0,0.0,0.0,0.0,0.0,0.0,0.0,0.0,0.0,0.0,0.0,0.0,0.0,0.0,0.0,0.0,0.0,0.0,0.0,0.0,0.0,0.0278,0.1971,0.3199,0.4518,0.7182,0.8407,0.8897,0.8897,0.9329,0.9792,0.9792,0.9792,0.9792,0.9792,0.9792,0.9792,0.9792,0.9792,0.9792,0.9792,0.9792,0.9792,0.9792,0.9792,0.9792,0.9792,0.0,0.0,0.0,0.0,0.0,0.0,0.9792,0.9815,0.0,0.0,0.0,0.0,0.0,0.0,1.0383,1.0446,0.0,1.0684,1.0688,1.0688,1.0688,1.0688,1.0688,1.0688,1.0688,1.1406,1.2771,1.4944,1.663,1.802,2.0195,2.1109,2.1109,2.1109,2.1109,2.1109,2.1109,2.1109,2.1109,-0.8532,-0.8097,-0.6927,0.0,-0.2786,0.0,-0.0269,0.0,0.0,0.0,0.0,0.0,0.0,0.0,0.0,0.0,0.0,0.0,0.0,0.0,0.0,0.0,0.0,0.0,0.0,0.0,0.0,0.0,0.0,0.0,0.0,0.0,0.0,0.0,0.0,0.0,0.0,0.0,0.0,0.0,0.0,0.0,0.0,0.0,0.0,0.0,0.0,0.0,0.0,0.0,0.0,0.0278,0.1848,0.234,0.2677,0.4518,0.6169,0.7421,0.7543,0.865,0.9792,0.9792,0.9792,0.9792,0.9792,0.9792,0.9792,0.9792,0.9792,0.9792,0.9792,0.9792,0.9792,0.9792,0.9792,0.9792,0.9792,0.0,0.0,0.0,0.0,0.0,0.0,0.9805,0.9869,0.0,0.0,0.0,0.0,0.0,1.0174,1.0483,1.0504,1.0575,1.0684,1.0688,1.0688,1.0688,1.0688,1.0688,1.0688,1.0688,1.2479,1.5557,1.5784,1.7725,2.0748,2.1014,2.1109,2.1109,2.1109,2.1109,2.1109,2.1109,2.1109,2.1109,0.0,0.0,-0.7329,-0.5128,-0.3623,-0.2082,-0.0269,0.0,0.0,0.0,0.0,0.0,0.0,0.0,0.0,0.0,0.0,0.0,0.0,0.0,0.0,0.0,0.0,0.0,0.0,0.0,0.0,0.0,0.0,0.0,0.0,0.0,0.0,0.0,0.0,0.0,0.0,0.0,0.0,0.0,0.0,0.0,0.0,0.0,0.0,0.0,0.0,0.0,0.0,0.0,0.0,0.0062,0.0463,0.0586,0.1417,0.5586,0.7085,0.7667,0.8897,0.9511,0.9792,0.9792,0.9792,0.9792,0.9792,0.9792,0.9792,0.9792,0.9792,0.9792,0.9792,0.9792,0.9792,0.9792,0.9792,0.9792,0.9792,0.9792,0.0,0.0,0.9792,0.9836,0.9954,0.9964,1.0028,0.0,0.0,0.0,0.0,1.0405,1.0419,1.049,1.0605,1.0683,1.0688,1.0688,1.0688,1.0688,1.0688,1.0688,1.0688,1.0688,1.1144,1.2088,1.4749,1.6366,1.7339,2.0005,2.1109,2.1109,2.1109,2.1109,2.1109,2.1109,2.1109,2.1109,-1.0688,-0.9911,-0.8435,-0.5863,-0.4593,-0.3053,-0.0404,0.0,0.0,0.0,0.0,0.0,0.0,0.0,0.0,0.0,0.0,0.0,0.0,0.0,0.0,0.0,0.0,0.0,0.0,0.0,0.0,0.0,0.0,0.0,0.0,0.0,0.0,0.0,0.0,0.0,0.0,0.0,0.0,0.0,0.0,0.0,0.0,0.0,0.0,0.0,0.0,0.0,0.0,0.0,0.0,0.0,0.0,0.0,0.0678,0.4147,0.568,0.6444,0.7335,0.8653,0.9792,0.9792,0.9792,0.9792,0.9792,0.9792,0.9792,0.9792,0.9792,0.9792,0.9792,0.9792,0.9792,0.9792,0.9792,0.9815,0.9886,0.9893,0.0,1.0022,1.0032,1.0063,1.0116,1.0154,1.0215,1.0368,1.0378,0.0,1.0588,1.0595,1.0595,1.0595,1.0677,1.0688,1.0688,1.0688,1.0688,1.0688,1.0688,1.0688,1.0688,1.0688,1.1144,1.1989,1.3905,1.5627,1.7243,1.9126,2.0392,2.1109,2.1109,2.1109,2.1109,2.1109,2.1109,2.1109,-1.0688,-1.0688,-0.9579,-0.6032,-0.5397,-0.4191,-0.0538,0.0,0.0,0.0,0.0,0.0,0.0,0.0,0.0,0.0,0.0,0.0,0.0,0.0,0.0,0.0,0.0,0.0,0.0,0.0,0.0,0.0,0.0,0.0,0.0,0.0,0.0,0.0,0.0,0.0,0.0,0.0,0.0,0.0,0.0,0.0,0.0,0.0,0.0,0.0,0.0,0.0,0.0,0.0,0.0,0.0,0.0,0.0,0.0278,0.1694,0.3445,0.4947,0.5223,0.7487,0.9792,0.9792,0.9792,0.9792,0.9792,0.9792,0.9798,0.9819,0.9825,0.9832,0.9856,0.989,0.989,0.989,0.989,0.9903,1.0035,0.0,1.0103,1.0263,1.0312,1.0322,1.0342,1.0346,1.0403,1.0514,1.0527,1.0582,1.0681,1.0688,1.0688,1.0688,1.0688,1.0688,1.0688,1.0688,1.0688,1.0688,1.0688,1.0688,1.0688,1.0688,1.1501,1.2935,1.3451,1.5362,1.8148,1.8672,1.9776,2.1109,2.1109,2.1109,2.1109,2.1109,2.1109,2.1109,-1.0688,-1.0688,-0.9579,-0.6032,-0.5397,-0.4191,-0.0538,0.0,0.0,0.0,0.0,0.0,0.0,0.0,0.0,0.0,0.0,0.0,0.0,0.0,0.0,0.0,0.0,0.0,0.0,0.0,0.0,0.0,0.0,0.0,0.0,0.0,0.0,0.0,0.0,0.0,0.0,0.0,0.0,0.0,0.0,0.0,0.0,0.0,0.0,0.0,0.0,0.0,0.0,0.0,0.0,0.0,0.0,0.0,0.0062,0.0309,0.2524,0.5223,0.6628,0.8374,0.9792,0.9792,0.9792,0.9792,0.9792,0.9792,0.9829,0.9957,0.9984,1.0021,1.0185,1.0209,1.0209,1.0209,1.0209,1.0215,1.0243,0.0,1.0284,1.0308,1.0312,1.0327,1.0449,1.046,1.0521,1.0673,1.0683,1.0697,1.0684,1.0688,1.0688,1.0688,1.0688,1.0688,1.0688,1.0688,1.0688,1.0688,1.0688,1.0688,1.0688,1.0688,1.085,1.1273,1.4232,1.5789,1.6528,1.9483,2.0849,2.1109,2.1109,2.1109,2.1109,2.1109,2.1109,2.1109,-1.0688,-1.0688,-0.9579,-0.6032,-0.5397,-0.4191,-0.0538,0.0,0.0,0.0,0.0,0.0,0.0,0.0,0.0,0.0,0.0,0.0,0.0,0.0,0.0,0.0,0.0,0.0,0.0,0.0,0.0,0.0,0.0,0.0,0.0,0.0,0.0,0.0,0.0,0.0,0.0,0.0,0.0,0.0,0.0,0.0,0.0,0.0,0.0,0.0,0.0,0.0,0.0,0.0,0.0,0.0,0.0,0.0,0.0,0.0,0.234,0.5468,0.8008,0.9292,0.9913,0.9913,0.9974,1.007,1.007,1.007,1.0086,1.0161,1.0175,1.0195,1.0266,1.0312,1.0312,1.0312,1.0312,0.0,0.0,1.0395,1.0426,1.0507,1.0517,1.0541,1.0609,1.0616,1.0643,1.0714,1.0688,1.0688,1.0688,1.0688,1.0688,1.0688,1.0688,1.0688,1.0688,1.0688,1.0688,1.0688,1.0688,1.0688,1.0688,1.0688,1.0688,1.0787,1.2413,1.3615,1.4619,1.6237,1.802,1.9712,1.9712,2.0259,2.1109,2.1109,2.1109,2.1109,-1.0694,-1.0688,-0.9579,-0.6032,-0.5397,-0.4191,-0.0538,0.0,0.0,0.0,0.0,0.0,0.0,0.0,0.0,0.0,0.0,0.0,0.0,0.0,0.0,0.0,0.0,0.0,0.0,0.0,0.0,0.0,0.0,0.0,0.0,0.0,0.0,0.0,0.0,0.0,0.0,0.0,0.0,0.0,0.0,0.0,0.0,0.0,0.0,0.0,0.0,0.0,0.0,0.0,0.0,0.0,0.0,0.0,0.0,0.0,0.2358,0.5586,0.8497,0.9668,1.0072,1.0072,1.0195,1.0312,1.0312,1.0312,1.0322,1.0356,1.0363,1.0373,1.0375,1.0382,1.0382,1.0382,0.0,0.0,0.0,1.0544,1.0588,1.0707,1.0688,1.0688,1.0688,1.0688,1.0688,1.0688,1.0688,1.0688,1.0688,1.0688,1.0688,1.0688,1.0688,1.0688,1.0688,1.0688,1.0688,1.0688,1.0688,1.0688,1.0688,1.0688,1.0688,1.0717,1.1144,1.2055,1.332,1.3746,1.5719,1.8506,1.8506,1.9578,2.1109,2.1109,2.1109,2.1122,-1.0715,-1.0688,-0.9579,-0.6032,-0.5397,-0.4191,-0.0538,0.0,0.0,0.0,0.0,0.0,0.0,0.0,0.0,0.0,0.0,0.0,0.0,0.0,0.0,0.0,0.0,0.0,0.0,0.0,0.0,0.0,0.0,0.0,0.0,0.0,0.0,0.0,0.0,0.0,0.0,0.0,0.0,0.0,0.0,0.0,0.0,0.0,0.0,0.0,0.0,0.0,0.0,0.0,0.0,0.0,0.0,0.0,0.0,0.0,0.2411,0.547,0.726,0.8999,1.0295,1.0295,1.0305,1.0312,1.0312,1.0312,1.0349,1.0449,1.0477,1.0521,1.0663,1.0654,1.0654,1.0654,0.0,0.0,1.0671,1.0704,1.0674,1.0684,1.0688,1.0688,1.0688,1.0688,1.0688,1.0688,1.0688,1.0688,1.0688,1.0688,1.0688,1.0688,1.0688,1.0688,1.0688,1.0688,1.0688,1.0688,1.0688,1.0688,1.0688,1.0688,1.0688,1.0787,1.2413,1.3193,1.3423,1.5042,1.6818,1.8506,1.8506,1.9578,2.1109,2.1109,2.1109,2.1149,-1.1006,-1.0924,-0.9704,-0.6139,-0.546,-0.4191,-0.0538,0.0,0.0,0.0,0.0,0.0,0.0,0.0,0.0,0.0,0.0,0.0,0.0,0.0,0.0,0.0,0.0,0.0,0.0,0.0,0.0,0.0,0.0,0.0,0.0,0.0,0.0,0.0,0.0,0.0,0.0,0.0,0.0,0.0,0.0,0.0,0.0,0.0,0.0,0.0,0.0,0.0,0.0,0.0,0.0,0.0,0.0,0.0,0.0,0.0,0.1722,0.398,0.5757,0.8283,1.0412,1.0412,1.0483,1.0555,1.0555,1.0555,1.0568,1.0622,1.0633,1.0653,1.0677,1.0688,1.0688,1.0688,0.0,1.0688,1.0688,1.0688,1.0688,1.0688,1.0688,1.0688,1.0688,1.0688,1.0688,1.0688,1.0688,1.0688,1.0688,1.0688,1.0688,1.0688,1.0688,1.0688,1.0688,1.0688,1.0688,1.0688,1.0688,1.0688,1.0688,1.0688,1.0688,1.0754,1.1406,1.1696,1.1729,1.2413,1.433,1.6888,1.6888,1.8602,2.1129,2.1316,2.1415,2.1462,-1.1206,-1.1084,-0.984,-0.6225,-0.5513,-0.4218,-0.0576,0.0,0.0,0.0,0.0,0.0,0.0,0.0,0.0,0.0,0.0,0.0,0.0,0.0,0.0,0.0,0.0,0.0,0.0,0.0,0.0,0.0,0.0,0.0,0.0,0.0,0.0,0.0,0.0,0.0,0.0,0.0,0.0,0.0,0.0,0.0,0.0,0.0,0.0,0.0,0.0,0.0,0.0,0.0,0.0,0.0,0.0,0.0,0.0,0.0,0.1292,0.2983,0.4214,0.7082,0.9865,1.0431,1.0643,1.0688,1.0688,1.0688,1.0688,1.0688,1.0688,1.0688,1.0688,1.0688,1.0688,1.0688,1.0688,1.0688,1.0688,1.0688,1.0688,1.0688,1.0688,1.0688,1.0688,1.0688,1.0688,1.0688,1.0688,1.0688,1.0688,1.0688,1.0688,1.0688,1.0688,1.0688,1.0688,1.0688,1.0688,1.0688,1.0688,1.0688,1.0688,1.0688,1.0688,1.0688,1.0688,1.0688,1.0688,1.0688,1.2738,1.5923,1.6027,1.8204,2.1315,2.1616,2.1723,2.1763,-1.123,-1.12,-1.0008,-0.6244,-0.5589,-0.4345,-0.0584,0.0,0.0,0.0,0.0,0.0,0.0,0.0,0.0,0.0,0.0,0.0,0.0,0.0,0.0,0.0,0.0,0.0,0.0,0.0,0.0,0.0,0.0,0.0,0.0,0.0,0.0,0.0,0.0,0.0,0.0,0.0,0.0,0.0,0.0,0.0,0.0,0.0,0.0,0.0,0.0,0.0,0.0,0.0,0.0,0.0,0.0,0.0,0.0,0.0,0.1277,0.2685,0.2719,0.5292,0.8399,1.0216,1.0688,1.0688,1.0688,1.0688,1.0688,1.0688,1.0688,1.0688,1.0688,1.0688,1.0688,1.0688,1.0688,1.0688,1.0688,1.0688,1.0688,1.0688,1.0688,1.0688,1.0688,1.0688,1.0688,1.0688,1.0688,1.0688,1.0688,1.0688,1.0688,1.0688,1.0688,1.0688,1.0688,1.0688,1.0688,1.0688,1.0688,1.0688,1.0688,1.0688,1.0688,1.0688,1.0688,1.0688,1.0688,1.0688,1.2775,1.5944,1.6265,1.8534,2.1622,2.1917,2.1991,2.2031,-1.1494,-1.1396,-1.0151,-0.6403,-0.5669,-0.4324,-0.0585,0.0,0.0,0.0,0.0,0.0,0.0,0.0,0.0,0.0,0.0,0.0,0.0,0.0,0.0,0.0,0.0,0.0,0.0,0.0,0.0,0.0,0.0,0.0,0.0,0.0,0.0,0.0,0.0,0.0,0.0,0.0,0.0,0.0,0.0,0.0,0.0,0.0,0.0,0.0,0.0,0.0,0.0,0.0,0.0,0.0,0.0,0.0,0.0,0.0,0.037,0.1344,0.3891,0.5362,0.6598,0.8368,0.9742,1.0688,1.0688,1.0688,1.0688,1.0688,1.0688,1.0688,1.0688,1.0688,1.0688,1.0688,1.0688,1.0688,1.0688,1.0688,1.0688,1.0688,1.0688,1.0688,1.0688,1.0688,1.0688,1.0688,1.0688,1.0688,1.0688,1.0688,1.0688,1.0688,1.0688,1.0688,1.0688,1.0688,1.0688,1.0688,1.0688,1.0688,1.0688,1.0688,1.0688,1.0688,1.0688,1.0748,1.0846,1.0846,1.3034,1.6394,1.6493,1.8733,2.1923,2.2184,2.2291,2.2331,-1.1584,-1.1545,-1.0292,-0.6457,-0.5748,-0.4387,-0.0594,0.0,0.0,0.0,0.0,0.0,0.0,0.0,0.0,0.0,0.0,0.0,0.0,0.0,0.0,0.0,0.0,0.0,0.0,0.0,0.0,0.0,0.0,0.0,0.0,0.0,0.0,0.0,0.0,0.0,0.0,0.0,0.0,0.0,0.0,0.0,0.0,0.0,0.0,0.0,0.0,0.0,0.0,0.0,0.0,0.0,0.0,0.0,0.0,0.0,0.0,0.0471,0.2685,0.4325,0.5663,0.6698,0.8839,1.0688,1.0688,1.0688,1.0688,1.0688,1.0688,1.0688,1.0688,1.0688,1.0688,1.0688,1.0688,1.0688,1.0688,1.0688,1.0688,1.0688,1.0688,1.0688,1.0688,1.0688,1.0688,1.0688,1.0688,1.0688,1.0688,1.0688,1.0688,1.0688,1.0688,1.0688,1.0688,1.0745,1.0745,1.0688,1.0748,1.0775,1.0779,1.087,1.0894,1.0894,1.0894,1.0948,1.1033,1.1033,1.3208,1.6596,1.6716,1.8957,2.2191,2.2485,2.2592,2.2619,-1.1584,-1.1584,-1.038,-0.6461,-0.5788,-0.4494,-0.0608,0.0,0.0,0.0,0.0,0.0,0.0,0.0,0.0,0.0,0.0,0.0,0.0,0.0,0.0,0.0,0.0,0.0,0.0,0.0,0.0,0.0,0.0,0.0,0.0,0.0,0.0,0.0,0.0,0.0,0.0,0.0,0.0,0.0,0.0,0.0,0.0,0.0,0.0,0.0,0.0,0.0,0.0,0.0,0.0,0.0,0.0,0.0,0.0,0.0,0.0,0.0034,0.0202,0.2652,0.5197,0.5364,0.7938,1.0485,1.0651,1.0688,1.0688,1.0688,1.0688,1.0688,1.0688,1.0688,1.0688,1.0688,1.0688,1.0688,1.0688,1.0688,1.0688,1.0688,1.0688,1.0688,1.0688,1.0688,1.0688,1.0688,1.0688,1.0688,1.0688,1.0688,1.0688,1.0688,1.0688,1.0694,1.0708,1.0843,1.0843,1.0711,1.086,1.0934,1.0938,1.1104,1.1196,1.1196,1.1196,1.1203,1.122,1.122,1.3372,1.6666,1.6932,1.9249,2.2492,2.28,2.2893,2.2893,-1.1584,-1.1584,-1.038,-0.6461,-0.5794,-0.4507,-0.0609,0.0,0.0,0.0,0.0,0.0,0.0,0.0,0.0,0.0,0.0,0.0,0.0,0.0,0.0,0.0,0.0,0.0,0.0,0.0,0.0,0.0,0.0,0.0,0.0,0.0,0.0,0.0,0.0,0.0,0.0,0.0,0.0,0.0,0.0,0.0,0.0,0.0,0.0,0.0,0.0,0.0,0.0,0.0,0.0,0.0,0.0,0.0,0.0,0.0,0.0,0.0303,0.1747,0.2685,0.3623,0.5063,0.6998,0.8969,1.0382,1.0688,1.0688,1.0688,1.0688,1.0688,1.0688,1.0688,1.0688,1.0688,1.0688,1.0688,1.0688,1.0688,1.0688,1.0688,1.0688,1.0688,1.0688,1.0688,1.0688,1.0688,1.0688,1.0688,1.0688,1.0688,1.0688,1.0688,1.0688,1.0745,1.0863,1.0897,1.0897,1.0867,1.1046,1.1118,1.1152,1.1183,1.1196,1.1196,1.1196,1.1264,1.1376,1.1376,1.3597,1.7082,1.7127,1.9479,2.2806,2.2873,2.2893,2.2893,-1.1584,-1.1584,-1.038,-0.6461,-0.581,-0.4494,-0.0578,0.0,0.0,0.0,0.0,0.0,0.0,0.0,0.0,0.0,0.0,0.0,0.0,0.0,0.0,0.0,0.0,0.0,0.0,0.0,0.0,0.0,0.0,0.0,0.0,0.0,0.0,0.0,0.0,0.0,0.0,0.0,0.0,0.0,0.0,0.0,0.0,0.0,0.0,0.0,0.0,0.0,0.0,0.0,0.0,0.0,0.0,0.0,0.0,0.0,0.0,0.0202,0.1143,0.2048,0.312,0.4961,0.6698,0.8233,0.9205,1.0081,1.0688,1.0688,1.0688,1.0688,1.0688,1.0688,1.0688,1.0688,1.0688,1.0688,1.0688,1.0688,1.0688,1.0688,1.0688,1.0688,1.0688,1.0688,1.0688,1.0688,1.0688,1.0688,1.0688,1.0688,1.0688,1.0688,1.0759,1.0833,1.0914,1.1053,1.1124,1.1127,1.1236,1.1305,1.1308,1.1348,1.1382,1.1382,1.1382,1.1426,1.1501,1.1501,1.3759,1.7218,1.7218,1.9524,2.2893,2.2893,2.2893,2.2893,-1.1584,-1.1584,-1.038,-0.6461,-0.581,-0.4505,-0.0583,0.0,0.0,0.0,0.0,0.0,0.0,0.0,0.0,0.0,0.0,0.0,0.0,0.0,0.0,0.0,0.0,0.0,0.0,0.0,0.0,0.0,0.0,0.0,0.0,0.0,0.0,0.0,0.0,0.0,0.0,0.0,0.0,0.0,0.0,0.0,0.0,0.0,0.0,0.0,0.0,0.0,0.0,0.0,0.0,0.0,0.0,0.0,0.0,0.0,0.0,0.0,0.0,0.1109,0.2685,0.4494,0.6262,0.7631,0.7931,0.9407,1.0688,1.0688,1.0688,1.0688,1.0688,1.0688,1.0688,1.0688,1.0688,1.0688,1.0688,1.0688,1.0688,1.0688,1.0688,1.0688,1.0688,1.0688,1.0688,1.0688,1.0688,1.0688,1.0688,1.0711,1.0725,1.0725,1.0874,1.0965,1.0992,1.127,1.1402,1.143,1.143,1.143,1.1436,1.1562,1.1584,1.1584,1.1584,1.1584,1.1584,1.1584,1.3808,1.7218,1.7218,1.9524,2.2893,2.2893,2.2893,2.2893,-1.1584,-1.1584,-1.038,-0.6461,-0.581,-0.4505,-0.0583,0.0,0.0,0.0,0.0,0.0,0.0,0.0,0.0,0.0,0.0,0.0,0.0,0.0,0.0,0.0,0.0,0.0,0.0,0.0,0.0,0.0,0.0,0.0,0.0,0.0,0.0,0.0,0.0,0.0,0.0,0.0,0.0,0.0,0.0,0.0,0.0,0.0,0.0,0.0,0.0,0.0,0.0,0.0,0.0,0.0,0.0,0.0,0.0,0.0,0.0,0.0,0.0,0.0168,0.0807,0.2618,0.4426,0.6131,0.7664,0.9407,1.0688,1.0688,1.0688,1.0688,1.0688,1.0688,1.0688,1.0688,1.0688,1.0688,1.0688,1.0688,1.0688,1.0688,1.0688,1.0688,1.0688,1.0688,1.0688,1.0688,1.0688,1.0688,1.0688,1.0813,1.0884,1.0884,1.1056,1.1234,1.1328,1.1372,1.1457,1.1589,1.1589,1.1589,1.1553,1.1573,1.1584,1.1584,1.1584,1.1584,1.1584,1.1584,1.3808,1.7218,1.7218,1.9524,2.2893,2.2893,2.2893,2.2893,-1.1584,-1.0743,-0.9105,-0.6279,-0.4902,-0.3235,-0.0438,0.0,0.0,0.0,0.0,0.0,0.0,0.0,0.0,0.0,0.0,0.0,0.0,0.0,0.0,0.0,0.0,0.0,0.0,0.0,0.0,0.0,0.0,0.0,0.0,0.0,0.0,0.0,0.0,0.0,0.0,0.0,0.0,0.0,0.0,0.0,0.0,0.0,0.0,0.0,0.0,0.0,0.0,0.0,0.0,0.0,0.0,0.0,0.0,0.0,0.0,0.0,0.0,0.0,0.0437,0.2249,0.4059,0.5863,0.7598,0.9407,1.0688,1.0688,1.0688,1.0688,1.0688,1.0688,1.0688,1.0688,1.0688,1.0688,1.0688,1.0688,1.0688,1.0688,1.0688,1.0688,1.0688,1.0688,1.0688,1.0688,1.0688,1.0725,1.0809,1.0877,1.0951,1.1067,1.1212,1.1321,1.1392,1.1474,1.1552,1.1584,1.1584,1.1584,1.1584,1.1584,1.1584,1.1584,1.1584,1.1584,1.1584,1.1584,1.3808,1.7218,1.7218,1.9524,2.2893,2.2893,2.2893,2.2893]},{"header":{"parameterUnit":"m.s-1","parameterCategory":1,"la1":30.6,"la2":28.766,"lo1":-90.7593,"lo2":-88.6598,"dy":0.0162,"dx":0.0183,"nx":116,"ny":114,"refTime":"2023-04-14T00:00:00:Z","depth":0,"parameterNumber":3,"parameterNumberName":"V-component_of_WINDS"},"data":[0.0,0.0,0.0,0.0,0.0,0.0,0.0,0.0,0.0,0.0,0.0,0.0,0.0,0.0,0.0,0.0,0.0,0.0,0.0,0.0,0.0,0.0,0.0,0.0,0.0,0.0,0.0,0.0,0.0,0.0,0.0,0.0,0.0,0.0,0.0,0.0,0.0,0.0,0.0,0.0,0.0,0.0,0.0,0.0,0.0,0.0,0.0,0.0,0.0,0.0,0.0,0.0,0.0,0.0,0.0,0.0,0.0,0.0,0.0,0.0,0.0,0.0,0.0,0.0,0.0,0.0,0.0,0.0,0.0,0.0,0.0,0.0,0.0,0.0,0.0,0.0,0.0,0.0,0.0,0.0,0.0,0.0,0.0,0.0,0.0,0.0,0.0,0.0,0.0,0.0,0.0,0.0,0.0,0.0,0.0,0.0,0.0,0.0,0.0,0.0,0.0,0.0,0.0,0.0,0.0,0.0,0.0,0.0,0.0,0.0,0.0,0.0,0.0,0.0,0.0,0.0,0.0,0.0,0.0,0.0,0.0,0.0,0.0,0.0,0.0,0.0,0.0,0.0,0.0,0.0,0.0,0.0,0.0,0.0,0.0,0.0,0.0,0.0,0.0,0.0,0.0,0.0,0.0,0.0,0.0,0.0,0.0,0.0,0.0,0.0,0.0,0.0,0.0,0.0,0.0,0.0,0.0,0.0,0.0,0.0,0.0,0.0,0.0,0.0,0.0,0.0,0.0,0.0,0.0,0.0,0.0,0.0,0.0,0.0,0.0,0.0,0.0,0.0,0.0,0.0,0.0,0.0,0.0,0.0,0.0,0.0,0.0,0.0,0.0,0.0,0.0,0.0,0.0,0.0,0.0,0.0,0.0,0.0,0.0,0.0,0.0,0.0,0.0,0.0,0.0,0.0,0.0,0.0,0.0,0.0,0.0,0.0,0.0,0.0,0.0,0.0,0.0,0.0,0.0,0.0,0.0,0.0,0.0,0.0,0.0,0.0,0.0,0.0,0.0,0.0,0.0,0.0,0.0,0.0,0.0,0.0,0.0,0.0,0.0,0.0,0.0,0.0,0.0,0.0,0.0,0.0,0.0,0.0,0.0,0.0,0.0,0.0,0.0,0.0,0.0,0.0,0.0,0.0,0.0,0.0,0.0,0.0,0.0,0.0,0.0,0.0,0.0,0.0,0.0,0.0,0.0,0.0,0.0,0.0,0.0,0.0,0.0,0.0,0.0,0.0,0.0,0.0,0.0,0.0,0.0,0.0,0.0,0.0,0.0,0.0,0.0,0.0,0.0,0.0,0.0,0.0,0.0,0.0,0.0,0.0,0.0,0.0,0.0,0.0,0.0,0.0,0.0,0.0,0.0,0.0,0.0,0.0,0.0,0.0,0.0,0.0,0.0,0.0,0.0,0.0,0.0,0.0,0.0,0.0,0.0,0.0,0.0,0.0,0.0,0.0,0.0,0.0,0.0,0.0,0.0,0.0,0.0,0.0,0.0,0.0,0.0,0.0,0.0,0.0,0.0,0.0,0.0,0.0,0.0,0.0,0.0,0.0,0.0,0.0,0.0,0.0,0.0,0.0,0.0,0.0,0.0,0.0,0.0,0.0,0.0,0.0,0.0,0.0,0.0,0.0,0.0,0.0,0.0,0.0,0.0,0.0,0.0,0.0,0.0,0.0,0.0,0.0,0.0,0.0,0.0,0.0,0.0,0.0,0.0,0.0,0.0,0.0,0.0,0.0,0.0,0.0,0.0,0.0,0.0,0.0,0.0,0.0,0.0,0.0,0.0,0.0,0.0,0.0,0.0,0.0,0.0,0.0,0.0,0.0,0.0,0.0,0.0,0.0,0.0,0.0,0.0,0.0,0.0,0.0,0.0,0.0,0.0,0.0,0.0,0.0,0.0,0.0,0.0,0.0,0.0,0.0,0.0,0.0,0.0,0.0,0.0,0.0,0.0,0.0,0.0,0.0,0.0,0.0,0.0,0.0,0.0,0.0,0.0,0.0,0.0,0.0,0.0,0.0,0.0,0.0,0.0,0.0,0.0,0.0,0.0,0.0,0.0,0.0,0.0,0.0,0.0,0.0,0.0,0.0,0.0,0.0,0.0,0.0,0.0,0.0,0.0,0.0,0.0,0.0,0.0,0.0,0.0,0.0,0.0,0.0,0.0,0.0,0.0,0.0,0.0,0.0,0.0,0.0,0.0,0.0,0.0,0.0,0.0,0.0,0.0,0.0,0.0,0.0,0.0,0.0,0.0,0.0,0.0,0.0,0.0,0.0,0.0,0.0,0.0,0.0,0.0,0.0,0.0,0.0,0.0,0.0,0.0,0.0,0.0,0.0,0.0,0.0,0.0,0.0,0.0,0.0,0.0,0.0,0.0,0.0,0.0,0.0,0.0,0.0,0.0,0.0,0.0,0.0,0.0,0.0,0.0,0.0,0.0,0.0,0.0,0.0,0.0,0.0,0.0,0.0,0.0,0.0,0.0,0.0,0.0,0.0,0.0,0.0,0.0,0.0,0.0,0.0,0.0,0.0,0.0,0.0,0.0,0.0,0.0,0.0,0.0,0.0,0.0,0.0,0.0,0.0,0.0,0.0,0.0,0.0,0.0,0.0,0.0,0.0,0.0,0.0,0.0,0.0,0.0,0.0,0.0,0.0,0.0,0.0,0.0,0.0,0.0,0.0,0.0,0.0,0.0,0.0,0.0,0.0,0.0,0.0,0.0,0.0,0.0,0.0,0.0,0.0,0.0,0.0,0.0,0.0,0.0,0.0,0.0,0.0,0.0,0.0,0.0,0.0,0.0,0.0,0.0,0.0,0.0,0.0,0.0,0.0,0.0,0.0,0.0,0.0,0.0,0.0,0.0,0.0,0.0,0.0,0.0,0.0,0.0,0.0,0.0,0.0,0.0,0.0,0.0,0.0,0.0,0.0,0.0,0.0,0.0,0.0,0.0,0.0,0.0,0.0,0.0,0.0,0.0,0.0,0.0,0.0,0.0,0.0,0.0,0.0,0.0,0.0,0.0,0.0,0.0,0.0,0.0,0.0,0.0,0.0,0.0,0.0,0.0,0.0,0.0,0.0,0.0,0.0,0.0,0.0,0.0,0.0,0.0,0.0,0.0,0.0,0.0,0.0,0.0,0.0,0.0,0.0,0.0,0.0,0.0,0.0,0.0,0.0,0.0,0.0,0.0,0.0,0.0,0.0,0.0,0.0,0.0,0.0,0.0,0.0,0.0,0.0,0.0,0.0,0.0,0.0,0.0,0.0,0.0,0.0,0.0,0.0,0.0,0.0,0.0,0.0,0.0,0.0,0.0,0.0,0.0,0.0,0.0,0.0,0.0,0.0,0.0,0.0,0.0,0.0,0.0,0.0,0.0,0.0,0.0,0.0,0.0,0.0,0.0,0.0,0.0,0.0,0.0,0.0,0.0,0.0,0.0,0.0,0.0,0.0,0.0,0.0,0.0,0.0,0.0,0.0,0.0,0.0,0.0,0.0,0.0,0.0,0.0,0.0,0.0,0.0,0.0,0.0,0.0,0.0,0.0,0.0,0.0,0.0,0.0,0.0,0.0,0.0,0.0,0.0,0.0,0.0,0.0,0.0,0.0,0.0,0.0,0.0,0.0,0.0,0.0,0.0,0.0,0.0,0.0,0.0,0.0,0.0,0.0,0.0,0.0,0.0,0.0,0.0,0.0,0.0,0.0,0.0,0.0,0.0,0.0,0.0,0.0,0.0,0.0,0.0,0.0,0.0,0.0,0.0,0.0,0.0,0.0,0.0,0.0,0.0,0.0,0.0,0.0,0.0,0.0,0.0,0.0,0.0,0.0,0.0,0.0,0.0,0.0,0.0,0.0,0.0,0.0,0.0,0.0,0.0,0.0,0.0,0.0,0.0,0.0,0.0,0.0,0.0,0.0,0.0,0.0,0.0,0.0,0.0,0.0,0.0,0.0,0.0,0.0,0.0,0.0,0.0,0.0,0.0,0.0,0.0,0.0,0.0,0.0,0.0,0.0,0.0,0.0,0.0,0.0,0.0,0.0,0.0,0.0,0.0,0.0,0.0,0.0,0.0,0.0,0.0,0.0,0.0,0.0,0.0,0.0,0.0,0.0,0.0,0.0,0.0,0.0,0.0,0.0,0.0,0.0,0.0,0.0,0.0,0.0,0.0,0.0,0.0,0.0,0.0,0.0,0.0,0.0,0.0,0.0,0.0,0.0,0.0,0.0,0.0,0.0,0.0,0.0,0.0,0.0,0.0,0.0,0.0,0.0,0.0,0.0,0.0,0.0,0.0,0.0,0.0,0.0,0.0,0.0,0.0,0.0,0.0,0.0,0.0,0.0,0.0,0.0,0.0,0.0,0.0,0.0,0.0,0.0,0.0,0.0,0.0,0.0,0.0,0.0,0.0,0.0,0.0,0.0,0.0,0.0,0.0,0.0,0.0,0.0,0.0,0.0,0.0,0.0,0.0,0.0,0.0,0.0,0.0,0.0,0.0,0.0,0.0,0.0,0.0,0.0,0.0,0.0,0.0,0.0,0.0,0.0,0.0,0.0,0.0,0.0,0.0,0.0,0.0,0.0,0.0,0.0,0.0,0.0,0.0,0.0,0.0,0.0,0.0,0.0,0.0,0.0,0.0,0.0,0.0,0.0,0.0,0.0,0.0,0.0,0.0,0.0,0.0,0.0,0.0,0.0,0.0,0.0,0.0,0.0,0.0,0.0,0.0,0.0,0.0,0.0,0.0,0.0,0.0,0.0,0.0,0.0,0.0,0.0,0.0,0.0,0.0,0.0,0.0,0.0,0.0,0.0,0.0,0.0,0.0,0.0,0.0,0.0,0.0,0.0,0.0,0.0,0.0,0.0,0.0,0.0,0.0,0.0,0.0,0.0,0.0,0.0,0.0,0.0,0.0,0.0,0.0,0.0,0.0,0.0,0.0,0.0,0.0,0.0,0.0,0.0,0.0,0.0,0.0,0.0,0.0,0.0,0.0,0.0,0.0,0.0,0.0,0.0,0.0,0.0,0.0,0.0,0.0,0.0,0.0,0.0,0.0,0.0,0.0,0.0,0.0,0.0,0.0,0.0,0.0,0.0,0.0,0.0,0.0,0.0,0.0,0.0,0.0,0.0,0.0,0.0,0.0,0.0,0.0,0.0,0.0,0.0,0.0,0.0,0.0,0.0,0.0,0.0,0.0,0.0,0.0,0.0,0.0,0.0,0.0,0.0,0.0,0.0,0.0,0.0,0.0,0.0,0.0,0.0,0.0,0.0,0.0,0.0,0.0,0.0,0.0,0.0,0.0,0.0,0.0,0.0,0.0,0.0,0.0,0.0,0.0,0.0,0.0,0.0,0.0,0.0,0.0,0.0,0.0,0.0,0.0,0.0,0.0,0.0,0.0,0.0,0.0,0.0,0.0,0.0,0.0,0.0,0.0,0.0,0.0,0.0,0.0,0.0,0.0,0.0,0.0,0.0,0.0,0.0,0.0,0.0,0.0,0.0,0.0,0.0,0.0,0.0,0.0,0.0,0.0,0.0,0.0,0.0,0.0,0.0,0.0,0.0,0.0,0.0,0.0,0.0,0.0,0.0,0.0,0.0,0.0,0.0,0.0,0.0,0.0,0.0,0.0,0.0,0.0,0.0,0.0,0.0,0.0,0.0,0.0,0.0,0.0,0.0,0.0,0.0,0.0,0.0,0.0,0.0,0.0,0.0,0.0,0.0,0.0,0.0,0.0,0.0,0.0,0.0,0.0,0.0,0.0,0.0,0.0,0.0,0.0,0.0,0.0,0.0,0.0,0.0,0.0,0.0,0.0,0.0,0.0,0.0,0.0,0.0,0.0,0.0,0.0,0.0,0.0,0.0,0.0,0.0,0.0,0.0,0.0,0.0,0.0,0.0,0.0,0.0,0.0,0.0,0.0,0.0,0.0,0.0,0.0,0.0,0.0,0.0,0.0,0.0,0.0,0.0,0.0,0.0,0.0,0.0,0.0,0.0,0.0,0.0,0.0,0.0,0.0,0.0,0.0,0.0,0.0,0.0,0.0,0.0,0.0,0.0,0.0,0.0,0.0,0.0,0.0,0.0,0.0,0.0,0.0,3.2772,0.0,0.0,0.0,0.0,0.0,0.0,0.0,0.0,0.0,0.0,0.0,0.0,0.0,0.0,0.0,0.0,0.0,0.0,0.0,0.0,0.0,0.0,0.0,0.0,0.0,0.0,0.0,0.0,0.0,0.0,0.0,0.0,0.0,0.0,0.0,0.0,0.0,0.0,0.0,0.0,0.0,0.0,0.0,0.0,0.0,0.0,0.0,0.0,0.0,0.0,0.0,0.0,0.0,0.0,0.0,0.0,0.0,0.0,0.0,0.0,0.0,0.0,0.0,0.0,0.0,0.0,0.0,0.0,0.0,0.0,0.0,0.0,0.0,0.0,0.0,0.0,0.0,0.0,0.0,0.0,0.0,0.0,0.0,0.0,0.0,0.0,0.0,0.0,0.0,0.0,0.0,0.0,0.0,0.0,0.0,0.0,0.0,0.0,0.0,0.0,0.0,0.0,0.0,0.0,0.0,0.0,0.0,0.0,0.0,0.0,0.0,0.0,0.0,0.0,0.0,0.0,3.3584,0.0,0.0,0.0,0.0,0.0,0.0,0.0,0.0,0.0,0.0,0.0,0.0,0.0,0.0,0.0,0.0,0.0,0.0,0.0,0.0,0.0,0.0,0.0,0.0,0.0,0.0,0.0,0.0,0.0,0.0,0.0,0.0,0.0,0.0,0.0,0.0,0.0,0.0,0.0,0.0,0.0,0.0,0.0,0.0,0.0,0.0,0.0,0.0,0.0,0.0,0.0,0.0,0.0,0.0,0.0,0.0,0.0,0.0,0.0,0.0,0.0,0.0,0.0,0.0,0.0,0.0,0.0,0.0,0.0,0.0,0.0,0.0,0.0,0.0,0.0,0.0,0.0,0.0,0.0,0.0,0.0,0.0,0.0,0.0,0.0,0.0,0.0,0.0,0.0,0.0,0.0,0.0,0.0,0.0,0.0,0.0,0.0,0.0,0.0,0.0,0.0,0.0,0.0,0.0,0.0,0.0,0.0,0.0,3.55,3.55,3.55,3.55,3.55,3.5462,3.4737,3.4813,3.5432,3.5432,0.0,0.0,0.0,0.0,0.0,0.0,0.0,0.0,0.0,0.0,0.0,0.0,0.0,0.0,0.0,0.0,0.0,0.0,0.0,0.0,0.0,0.0,0.0,0.0,0.0,0.0,0.0,0.0,0.0,0.0,0.0,0.0,0.0,0.0,0.0,0.0,0.0,0.0,0.0,0.0,0.0,0.0,0.0,0.0,0.0,0.0,0.0,0.0,0.0,0.0,0.0,0.0,0.0,0.0,0.0,0.0,0.0,0.0,0.0,0.0,0.0,0.0,0.0,0.0,0.0,0.0,0.0,0.0,0.0,0.0,0.0,0.0,0.0,0.0,0.0,0.0,0.0,0.0,0.0,0.0,0.0,0.0,0.0,0.0,0.0,0.0,3.2891,3.2891,0.0,0.0,0.0,0.0,0.0,0.0,0.0,0.0,0.0,0.0,0.0,0.0,0.0,3.5327,3.5327,3.5442,3.55,3.55,3.55,3.55,3.55,3.55,3.55,3.5481,3.5385,0.0,3.5142,3.5142,0.0,0.0,0.0,0.0,0.0,0.0,0.0,0.0,0.0,0.0,0.0,0.0,0.0,0.0,0.0,0.0,0.0,0.0,0.0,0.0,0.0,0.0,0.0,0.0,0.0,0.0,0.0,0.0,0.0,0.0,0.0,0.0,0.0,0.0,0.0,0.0,0.0,0.0,0.0,0.0,0.0,0.0,0.0,0.0,0.0,0.0,0.0,0.0,0.0,0.0,0.0,0.0,0.0,0.0,0.0,0.0,0.0,0.0,0.0,0.0,0.0,0.0,0.0,0.0,0.0,0.0,0.0,0.0,0.0,0.0,0.0,0.0,0.0,0.0,0.0,0.0,0.0,0.0,0.0,0.0,0.0,0.0,0.0,0.0,0.0,3.4369,3.4369,3.4369,3.4369,3.4369,0.0,0.0,0.0,0.0,0.0,0.0,0.0,0.0,0.0,3.55,3.5942,3.6173,3.6173,3.6657,3.6907,3.6907,3.6907,3.6807,3.6628,3.6628,3.6549,3.6406,3.6406,3.6326,3.6163,3.5416,3.4939,3.4671,0.0,0.0,0.0,0.0,3.3807,3.3807,0.0,0.0,0.0,0.0,0.0,0.0,0.0,0.0,0.0,0.0,0.0,0.0,0.0,0.0,0.0,0.0,0.0,0.0,0.0,0.0,0.0,0.0,0.0,0.0,0.0,0.0,0.0,0.0,0.0,0.0,0.0,0.0,0.0,0.0,0.0,0.0,0.0,0.0,0.0,0.0,0.0,0.0,0.0,0.0,0.0,0.0,0.0,0.0,0.0,0.0,0.0,0.0,0.0,0.0,0.0,0.0,0.0,0.0,0.0,0.0,0.0,0.0,0.0,0.0,0.0,0.0,0.0,0.0,0.0,0.0,0.0,0.0,0.0,0.0,0.0,0.0,0.0,3.55,3.55,3.55,3.55,3.55,0.0,0.0,0.0,0.0,0.0,0.0,3.5808,3.6019,3.6138,3.6138,3.6715,3.7023,3.7023,3.768,3.8007,3.8007,3.8238,3.8197,3.7969,3.8165,3.8056,3.7666,3.7666,3.7487,3.7122,3.6055,3.5567,3.5452,3.5015,3.481,3.4705,3.4514,3.4431,3.4431,0.0,0.0,0.0,0.0,0.0,0.0,0.0,0.0,0.0,0.0,0.0,0.0,0.0,0.0,0.0,0.0,0.0,0.0,0.0,0.0,0.0,0.0,0.0,0.0,0.0,0.0,0.0,0.0,0.0,0.0,0.0,0.0,0.0,0.0,0.0,0.0,0.0,0.0,0.0,0.0,0.0,0.0,0.0,0.0,0.0,0.0,0.0,0.0,0.0,0.0,0.0,0.0,0.0,0.0,0.0,0.0,0.0,0.0,0.0,0.0,0.0,0.0,0.0,0.0,0.0,0.0,0.0,0.0,0.0,0.0,0.0,0.0,0.0,0.0,0.0,0.0,0.0,0.0,0.0,3.55,3.55,0.0,0.0,0.0,0.0,3.55,3.6212,3.6638,3.6638,3.7427,3.7873,3.7873,3.7911,3.793,3.793,3.7988,3.8007,3.8007,3.8838,3.9238,3.9246,4.0,3.9915,3.9192,3.9192,3.8535,3.7447,3.7127,3.6856,3.6615,3.6596,3.6419,3.6185,3.6182,3.6163,3.6163,0.0,0.0,0.0,0.0,0.0,0.0,0.0,0.0,0.0,0.0,0.0,0.0,0.0,0.0,0.0,0.0,0.0,0.0,0.0,0.0,0.0,0.0,0.0,0.0,0.0,0.0,0.0,0.0,0.0,0.0,0.0,0.0,0.0,0.0,0.0,0.0,0.0,0.0,0.0,0.0,0.0,0.0,0.0,0.0,0.0,0.0,0.0,0.0,0.0,0.0,0.0,0.0,0.0,0.0,0.0,0.0,0.0,0.0,0.0,0.0,0.0,0.0,0.0,0.0,0.0,0.0,0.0,0.0,0.0,0.0,0.0,0.0,0.0,0.0,0.0,0.0,0.0,0.0,0.0,3.6212,3.6269,0.0,3.7042,3.71,3.71,3.71,3.7369,3.7546,3.7546,3.8354,3.8838,3.8838,3.9873,4.0446,4.0446,4.1008,4.1277,4.1277,4.1333,4.126,4.11,4.119,4.0936,4.0455,4.0455,4.0207,3.9809,3.9706,3.8503,3.6676,3.6502,3.638,3.631,3.631,3.631,3.631,0.0,0.0,0.0,0.0,0.0,0.0,0.0,0.0,0.0,0.0,0.0,0.0,0.0,0.0,0.0,0.0,0.0,0.0,0.0,0.0,0.0,0.0,0.0,0.0,0.0,0.0,0.0,0.0,0.0,0.0,0.0,0.0,0.0,0.0,0.0,0.0,0.0,0.0,0.0,0.0,0.0,0.0,3.5914,0.0,0.0,0.0,0.0,0.0,0.0,0.0,0.0,0.0,0.0,0.0,0.0,0.0,0.0,0.0,0.0,0.0,0.0,0.0,0.0,0.0,0.0,0.0,0.0,0.0,0.0,0.0,0.0,0.0,0.0,0.0,0.0,0.0,0.0,0.0,3.6542,3.7081,3.7138,3.7369,3.795,3.8277,3.8434,3.8434,3.8969,3.9277,3.9277,4.0104,4.0589,4.0589,4.1662,4.2235,4.2235,4.2816,4.3104,4.3104,4.3096,4.3002,4.2835,4.2917,4.2614,4.2004,4.2004,4.172,4.1275,4.1275,4.0044,3.8176,3.7989,3.7918,3.7918,3.7918,3.7918,3.7918,0.0,0.0,0.0,0.0,0.0,0.0,0.0,0.0,0.0,0.0,0.0,0.0,0.0,0.0,0.0,0.0,0.0,0.0,0.0,0.0,0.0,0.0,0.0,0.0,0.0,0.0,0.0,0.0,0.0,0.0,0.0,0.0,0.0,0.0,0.0,0.0,0.0,0.0,0.0,0.0,0.0,0.0,3.5907,0.0,0.0,0.0,0.0,0.0,0.0,0.0,0.0,0.0,0.0,0.0,0.0,0.0,0.0,0.0,0.0,0.0,0.0,0.0,0.0,0.0,0.0,0.0,0.0,0.0,0.0,0.0,0.0,0.0,0.0,0.0,0.0,0.0,3.6754,3.7484,3.8046,3.8084,3.8104,3.8123,3.8161,3.8915,3.9415,3.9415,4.0912,4.185,4.185,4.2662,4.3143,4.3143,4.3162,4.3181,4.3181,4.3181,4.3181,4.3181,4.3957,4.4314,4.4333,4.517,4.4892,4.3798,4.3798,4.2988,4.1663,4.1663,4.1477,4.1177,4.1113,4.1095,4.1095,4.1095,4.1095,4.1095,0.0,0.0,0.0,0.0,0.0,0.0,0.0,0.0,0.0,0.0,0.0,0.0,0.0,0.0,0.0,0.0,0.0,0.0,0.0,0.0,0.0,0.0,0.0,0.0,0.0,0.0,0.0,0.0,0.0,0.0,0.0,0.0,0.0,0.0,0.0,0.0,0.0,0.0,0.0,0.0,0.0,0.0,3.59,0.0,0.0,0.0,0.0,0.0,0.0,0.0,0.0,0.0,0.0,0.0,0.0,0.0,0.0,0.0,0.0,0.0,0.0,0.0,0.0,0.0,0.0,0.0,0.0,0.0,0.0,0.0,0.0,0.0,0.0,0.0,0.0,3.9031,3.7815,3.8392,3.9165,3.9742,4.0373,4.1004,4.1643,4.1912,4.2066,4.2066,4.2489,4.2739,4.2739,4.3528,4.397,4.397,4.459,4.4917,4.4917,4.4917,4.4917,4.4913,4.465,4.4518,4.4519,4.4205,4.3904,4.3578,4.3578,4.336,4.2976,4.2976,4.2928,4.2708,4.1562,4.1095,4.1095,4.1095,4.1095,4.1095,0.0,0.0,0.0,0.0,0.0,0.0,0.0,0.0,0.0,0.0,0.0,0.0,0.0,0.0,0.0,0.0,0.0,0.0,0.0,0.0,0.0,0.0,0.0,0.0,0.0,0.0,0.0,0.0,0.0,0.0,0.0,0.0,0.0,0.0,0.0,0.0,0.0,0.0,0.0,0.0,0.0,0.0,3.6353,3.6265,3.6007,3.5667,3.5691,3.5705,3.5705,3.5705,0.0,0.0,0.0,0.0,0.0,0.0,0.0,0.0,0.0,0.0,0.0,0.0,0.0,0.0,0.0,0.0,0.0,0.0,0.0,0.0,0.0,0.0,0.0,0.0,4.0165,4.0835,4.0219,4.0566,4.107,4.1531,4.2047,4.2543,4.3047,4.3393,4.3605,4.3605,4.3932,4.4147,4.4147,4.459,4.484,4.484,4.534,4.5527,4.54,4.5395,4.5322,4.5171,4.4781,4.4593,4.4599,4.4162,4.3868,4.371,4.371,4.3621,4.3506,4.3506,4.3506,0.0,0.0,0.0,0.0,0.0,4.2113,4.2113,0.0,0.0,0.0,0.0,0.0,0.0,0.0,0.0,0.0,0.0,0.0,0.0,0.0,0.0,0.0,0.0,0.0,0.0,0.0,0.0,0.0,0.0,0.0,0.0,0.0,0.0,0.0,0.0,0.0,0.0,0.0,0.0,0.0,0.0,0.0,0.0,0.0,0.0,0.0,0.0,0.0,0.0,3.7146,3.7115,3.6618,3.5897,3.5836,3.5807,3.5807,3.5712,0.0,0.0,0.0,0.0,0.0,0.0,0.0,0.0,0.0,0.0,0.0,0.0,0.0,0.0,0.0,0.0,0.0,0.0,0.0,0.0,0.0,0.0,0.0,0.0,4.1527,4.235,4.3124,4.3316,4.3355,4.3258,4.3316,4.3374,4.3374,4.4028,4.4455,4.4455,4.5167,4.5594,4.5594,0.0,0.0,0.0,0.0,4.5371,4.5052,4.5047,4.4914,4.4669,4.4573,4.4553,4.4612,4.4507,4.4287,4.394,4.394,4.3772,4.3506,4.3506,4.3506,4.3506,4.3506,4.3506,4.3506,4.3506,4.3506,4.3506,0.0,0.0,0.0,0.0,0.0,0.0,0.0,0.0,0.0,0.0,0.0,0.0,0.0,0.0,0.0,0.0,0.0,0.0,0.0,0.0,0.0,0.0,0.0,0.0,0.0,0.0,0.0,0.0,0.0,0.0,0.0,0.0,0.0,0.0,0.0,0.0,0.0,0.0,0.0,0.0,0.0,0.0,3.8101,3.7896,3.7757,3.7586,3.6783,3.6508,3.6411,3.5756,3.5544,3.5544,3.5544,0.0,0.0,0.0,0.0,0.0,0.0,0.0,0.0,0.0,0.0,0.0,0.0,0.0,0.0,0.0,0.0,0.0,0.0,0.0,0.0,4.245,4.3278,4.3874,4.4047,4.4667,4.4859,4.4143,4.4686,4.5109,4.5109,4.5263,4.534,4.534,4.5494,4.5594,4.5594,4.5594,4.5481,4.5206,4.5201,4.5047,4.4695,4.4707,4.4806,4.5007,0.0,0.0,4.4573,4.3974,4.3662,4.3597,4.3597,4.3555,4.3506,4.3506,4.3506,4.3506,4.3506,4.3506,4.3506,4.3506,4.3506,4.3506,0.0,0.0,0.0,0.0,0.0,0.0,0.0,0.0,0.0,0.0,0.0,0.0,0.0,0.0,0.0,0.0,0.0,0.0,0.0,0.0,0.0,0.0,0.0,0.0,0.0,0.0,0.0,0.0,0.0,0.0,0.0,0.0,0.0,0.0,0.0,0.0,0.0,0.0,0.0,0.0,0.0,0.0,4.0246,3.9194,3.8551,3.8133,3.7628,3.7417,3.7292,3.6888,3.6754,3.6754,3.6754,3.6754,3.6754,0.0,0.0,0.0,0.0,0.0,0.0,0.0,0.0,0.0,0.0,0.0,0.0,0.0,0.0,4.0816,0.0,0.0,4.3181,4.3624,4.4397,4.4955,4.4955,4.5321,4.5436,4.4994,4.5321,4.5594,4.5594,4.5594,4.5594,4.5594,4.5594,4.5594,4.5594,4.5594,4.5517,4.5352,4.5347,4.5196,4.4855,4.4855,4.4751,4.4554,4.4183,4.4016,4.4027,4.3662,4.3506,4.3506,4.3506,4.3506,4.3524,4.392,4.4342,4.4699,4.4699,4.4204,4.3506,4.3506,4.3506,4.3506,0.0,0.0,0.0,0.0,0.0,0.0,0.0,0.0,0.0,0.0,0.0,0.0,0.0,0.0,0.0,0.0,0.0,0.0,0.0,0.0,0.0,0.0,0.0,0.0,0.0,0.0,0.0,0.0,0.0,0.0,0.0,0.0,0.0,0.0,0.0,0.0,0.0,0.0,0.0,0.0,0.0,0.0,4.2145,4.0671,3.9522,3.8659,3.8476,3.8334,3.8238,3.8065,3.8007,3.8007,3.8007,3.8007,3.8007,3.8007,3.8007,0.0,0.0,0.0,0.0,0.0,0.0,0.0,0.0,0.0,4.0416,4.1773,4.2177,4.2504,4.3201,4.3989,4.4551,4.4551,4.5148,4.5594,4.5594,4.5594,4.5667,4.5821,4.5706,4.5594,4.5594,4.5744,4.584,4.584,4.5994,4.609,4.609,4.609,4.6053,4.5989,4.5913,4.5715,4.5377,4.5286,4.4986,4.4467,4.4408,4.4251,4.4057,4.4008,4.3965,4.3965,4.3965,4.3965,4.402,4.4672,4.5324,4.5902,4.5902,4.5121,4.3947,4.38,4.3726,4.3708,0.0,0.0,0.0,0.0,0.0,0.0,0.0,0.0,0.0,0.0,0.0,0.0,0.0,0.0,0.0,0.0,0.0,0.0,0.0,0.0,0.0,0.0,0.0,0.0,0.0,0.0,0.0,0.0,0.0,0.0,0.0,0.0,0.0,0.0,0.0,0.0,0.0,0.0,0.0,0.0,0.0,0.0,4.2285,4.2085,4.1347,4.0315,3.9471,3.9168,3.9031,3.8257,3.8007,3.8007,3.8007,3.8007,3.8007,3.8007,0.0,3.8007,3.8007,3.8569,3.9338,4.0035,4.0796,4.16,0.0,0.0,4.2739,4.2912,4.3528,4.4047,4.4143,4.4878,4.5455,4.5455,4.5537,4.5594,4.5594,4.5594,4.5898,4.6658,4.6071,4.5594,4.5594,4.6297,4.6755,4.6755,4.7408,4.7817,4.7817,4.7817,4.7679,4.7393,4.7036,4.6682,4.6356,4.5996,4.5921,4.6129,4.5837,4.5828,4.6075,4.5777,4.5626,4.5626,4.5626,4.5626,4.5645,4.5736,4.581,4.5902,4.5902,4.5792,4.5535,4.4837,4.4571,4.4461,0.0,0.0,0.0,0.0,0.0,0.0,0.0,0.0,0.0,0.0,0.0,0.0,0.0,0.0,0.0,0.0,0.0,0.0,0.0,0.0,0.0,0.0,0.0,0.0,0.0,0.0,0.0,0.0,0.0,0.0,0.0,0.0,0.0,0.0,0.0,0.0,0.0,0.0,0.0,0.0,0.0,0.0,4.2888,4.2338,4.1477,4.054,4.022,4.0069,0.0,0.0,3.9454,3.9454,3.9454,3.9454,3.9454,3.9454,3.9454,0.0,4.0065,4.0854,0.0,0.0,4.2297,4.2777,4.3605,4.3797,4.3932,4.4455,4.4821,4.5051,4.5051,4.534,4.5594,0.0,4.6033,4.6355,4.6355,4.6759,4.7182,4.7562,4.7278,4.7048,4.7048,4.7375,4.7601,4.7601,4.7908,4.8101,4.8101,4.7873,4.7687,4.755,4.72,4.6935,4.6802,4.6815,4.669,4.6408,4.6493,4.6384,4.6095,4.5965,4.5902,4.5902,4.5902,4.6177,4.6608,4.6608,4.6865,4.7297,4.7297,4.7297,4.715,4.5865,4.5406,4.5351,0.0,0.0,0.0,0.0,0.0,0.0,0.0,0.0,0.0,0.0,0.0,0.0,0.0,0.0,0.0,0.0,0.0,0.0,0.0,0.0,0.0,0.0,0.0,0.0,0.0,0.0,0.0,0.0,0.0,0.0,0.0,0.0,0.0,0.0,0.0,0.0,0.0,0.0,0.0,0.0,0.0,0.0,4.3315,4.2607,4.1569,4.0523,4.0642,4.0643,0.0,0.0,4.0556,4.0545,4.0512,4.0666,4.0858,4.0858,4.1031,4.1358,4.1985,0.0,0.0,4.3431,4.3605,4.3932,4.4532,4.4667,4.484,4.5475,4.5594,4.5594,4.5594,4.5802,4.5956,4.5956,4.6663,4.7235,4.7235,4.7735,4.8197,4.8432,4.8471,4.8548,4.8798,4.8606,4.8471,4.8471,4.8682,4.8817,4.8817,4.8546,4.8389,4.8389,4.8036,4.7799,4.7695,4.7816,4.756,4.6922,4.722,4.7078,4.6562,4.6562,4.6562,4.6562,4.6562,4.6883,4.7424,4.7424,4.7764,4.8296,4.8296,4.8296,4.815,4.6985,4.6416,4.6195,0.0,0.0,0.0,0.0,0.0,0.0,0.0,0.0,0.0,0.0,0.0,0.0,0.0,0.0,0.0,0.0,0.0,0.0,0.0,0.0,0.0,0.0,0.0,0.0,0.0,0.0,0.0,0.0,0.0,0.0,0.0,0.0,0.0,0.0,0.0,0.0,0.0,0.0,0.0,0.0,0.0,0.0,4.3374,4.3217,4.2043,4.0523,4.0642,0.0,0.0,0.0,4.0692,4.0664,4.0534,4.1085,0.0,4.1754,4.235,0.0,0.0,0.0,4.4259,4.4259,4.4898,4.5537,4.5556,4.5556,4.5575,4.5594,4.5594,4.5594,4.5594,4.6297,4.6851,4.6851,4.7543,4.8062,4.8062,4.8082,4.8413,4.926,4.9356,4.9687,0.0,4.9861,4.9356,4.9356,5.0149,5.0611,5.0611,5.0606,5.0601,5.0601,5.0206,4.9822,4.9421,4.9049,4.8644,4.8252,4.8243,4.8252,4.8223,4.8223,4.8223,4.8223,4.8223,4.8241,4.826,4.826,4.8278,4.8296,4.8296,4.8296,4.8296,4.8241,4.7728,4.6947,0.0,0.0,0.0,0.0,0.0,0.0,0.0,0.0,0.0,0.0,0.0,0.0,0.0,0.0,0.0,0.0,0.0,0.0,0.0,0.0,0.0,0.0,0.0,0.0,0.0,0.0,0.0,0.0,0.0,0.0,0.0,0.0,0.0,0.0,0.0,0.0,0.0,0.0,0.0,0.0,0.0,0.0,4.3192,4.2625,4.1673,4.0655,0.0,0.0,0.0,0.0,0.0,4.0656,4.1181,0.0,0.0,4.2485,0.0,4.3893,0.0,0.0,4.5167,4.5167,4.5379,4.5594,4.5594,4.5594,4.5594,4.5594,4.5594,4.5782,4.6355,4.6697,4.7062,4.7601,4.8413,4.8952,4.8952,4.9452,4.9938,5.0226,5.0265,0.0,0.0,0.0,0.0,5.0265,5.0534,5.0707,5.0707,5.0456,5.0294,5.0294,4.9652,4.9249,4.91,4.898,4.8701,4.8296,4.8296,4.8296,4.8296,4.8296,4.8296,4.8296,4.8296,4.8296,4.8296,4.8296,4.8296,4.8296,4.8296,4.8296,4.8296,4.8296,4.8131,4.7856,0.0,0.0,0.0,0.0,0.0,0.0,0.0,0.0,0.0,0.0,0.0,0.0,0.0,0.0,0.0,0.0,0.0,0.0,0.0,0.0,0.0,0.0,0.0,0.0,0.0,0.0,0.0,0.0,0.0,0.0,0.0,0.0,0.0,0.0,0.0,0.0,0.0,0.0,0.0,0.0,0.0,0.0,4.2813,4.2251,4.1493,0.0,0.0,0.0,0.0,0.0,0.0,0.0,0.0,0.0,0.0,4.3739,4.4359,4.4763,4.4763,4.5167,4.5594,4.5594,4.5594,4.5594,4.5594,4.5594,4.5594,4.5594,4.584,4.624,4.6793,4.7389,4.7966,4.849,4.9298,4.9861,4.9861,5.0341,5.0707,5.0707,5.0707,5.0707,0.0,0.0,0.0,5.0707,5.0707,5.0707,5.0707,5.0442,5.0249,5.0098,4.9596,4.9195,4.8905,4.8905,4.8701,4.8296,4.8296,4.8296,4.8296,4.8296,4.8296,4.8296,4.8296,4.8296,4.8296,4.8296,4.8296,4.8296,4.8296,4.8296,4.8296,4.8296,4.8296,4.8296,0.0,0.0,0.0,0.0,0.0,0.0,0.0,0.0,0.0,0.0,0.0,0.0,0.0,0.0,0.0,0.0,0.0,0.0,0.0,0.0,0.0,0.0,0.0,0.0,0.0,0.0,0.0,0.0,0.0,0.0,0.0,0.0,0.0,0.0,0.0,0.0,0.0,0.0,0.0,0.0,0.0,0.0,4.2275,4.2102,0.0,0.0,0.0,0.0,0.0,0.0,0.0,0.0,0.0,0.0,0.0,4.5359,4.5594,4.5594,4.5594,4.5594,4.5594,4.5594,4.5594,4.5594,4.5594,4.5594,4.5594,4.5594,4.6297,4.6908,0.0,0.0,4.9413,4.9452,5.0168,5.0707,5.0707,5.0707,5.0707,0.0,0.0,0.0,0.0,0.0,0.0,5.0707,0.0,5.0707,5.0707,5.0678,5.0493,5.0104,5.0062,4.9666,4.8913,4.888,4.8675,4.8296,4.8296,4.8296,4.8296,4.8296,4.8296,4.8296,4.8296,4.8296,4.8296,4.8296,4.8296,4.8296,4.8296,4.8296,4.8296,4.8296,4.8296,4.8296,0.0,0.0,0.0,0.0,0.0,0.0,0.0,0.0,0.0,0.0,0.0,0.0,0.0,0.0,0.0,0.0,0.0,0.0,0.0,0.0,0.0,0.0,0.0,0.0,0.0,0.0,0.0,0.0,0.0,0.0,0.0,0.0,0.0,0.0,0.0,0.0,0.0,0.0,0.0,0.0,0.0,0.0,4.2084,0.0,0.0,0.0,0.0,0.0,0.0,0.0,0.0,0.0,0.0,0.0,4.5302,0.0,0.0,4.5594,4.5594,4.5594,4.5594,4.5594,4.5594,4.5594,4.5594,4.5594,4.5594,4.5594,4.6297,4.7081,0.0,0.0,0.0,5.0265,5.0553,0.0,5.0707,5.0707,0.0,5.0707,0.0,5.0707,5.0707,5.0707,0.0,0.0,5.0707,5.0707,5.0707,5.0416,5.022,5.0098,4.9525,4.9108,4.8905,4.8604,4.8393,4.8296,4.8296,4.8296,4.8296,4.8296,4.8296,4.8296,4.8296,4.8296,4.8296,4.8296,4.8296,4.8296,4.8296,4.8296,4.8296,4.8296,4.8296,4.8296,0.0,0.0,0.0,0.0,0.0,0.0,0.0,0.0,0.0,0.0,0.0,0.0,0.0,0.0,0.0,0.0,0.0,0.0,0.0,0.0,0.0,0.0,0.0,0.0,0.0,0.0,0.0,0.0,0.0,0.0,0.0,0.0,0.0,0.0,0.0,0.0,0.0,0.0,0.0,0.0,0.0,0.0,0.0,0.0,0.0,0.0,0.0,0.0,0.0,0.0,0.0,4.4378,4.4744,4.5205,4.5594,4.5594,0.0,4.5594,4.5594,4.5594,4.5686,4.6071,4.6163,4.6259,4.6629,4.6706,4.6706,4.6706,4.7394,0.0,0.0,0.0,0.0,0.0,0.0,0.0,5.0707,5.0707,5.0707,0.0,5.0707,0.0,5.0707,5.0707,5.0707,0.0,5.0707,5.0619,5.0456,5.0212,4.9943,4.9589,4.9139,4.8822,4.863,4.8402,4.8296,4.8296,4.8296,4.8296,4.8296,4.8296,4.8296,4.8296,0.0,4.8296,4.8296,4.8296,4.8296,4.8296,4.8296,4.8296,4.8296,4.8296,4.8296,4.8296,0.0,0.0,0.0,0.0,0.0,0.0,0.0,0.0,0.0,0.0,0.0,0.0,0.0,0.0,0.0,0.0,0.0,0.0,0.0,0.0,0.0,0.0,0.0,0.0,0.0,0.0,0.0,0.0,0.0,0.0,0.0,0.0,0.0,0.0,0.0,0.0,0.0,0.0,0.0,0.0,0.0,0.0,0.0,0.0,0.0,0.0,0.0,0.0,0.0,0.0,4.4577,4.4609,4.5359,4.5594,4.5594,4.5594,4.5594,4.5633,4.5744,4.5763,4.5975,4.6831,4.7062,4.7235,4.7947,4.8101,4.8101,4.8101,0.0,4.9394,4.9394,5.0111,5.0707,5.0707,0.0,5.0707,5.0707,5.0707,5.0707,5.0707,5.0707,5.0745,5.0842,5.0861,5.0919,5.1015,5.1034,5.078,5.0214,5.0135,4.976,4.8994,4.893,4.8727,4.8383,4.8335,4.8296,4.8296,4.8296,4.8296,4.8296,4.8296,4.8296,4.8296,4.8296,4.8296,4.8296,4.8296,4.8296,4.8296,4.8296,4.8296,4.8296,4.8296,4.8296,4.8296,0.0,0.0,0.0,0.0,0.0,0.0,0.0,0.0,0.0,0.0,4.0682,4.0799,0.0,0.0,0.0,0.0,0.0,0.0,0.0,0.0,0.0,0.0,0.0,0.0,0.0,0.0,0.0,0.0,0.0,0.0,0.0,0.0,0.0,0.0,0.0,0.0,0.0,0.0,0.0,0.0,0.0,0.0,0.0,0.0,0.0,0.0,0.0,0.0,0.0,0.0,4.5389,4.5398,4.5556,4.5594,4.5594,4.5594,4.5594,4.5763,4.649,4.6678,4.687,4.7697,4.7889,4.7928,4.8062,4.8101,0.0,0.0,0.0,4.9394,4.9394,5.0111,5.0707,5.0707,0.0,0.0,0.0,0.0,5.0707,0.0,0.0,0.0,0.0,0.0,0.0,0.0,5.2779,5.2124,5.0662,5.0277,4.9872,4.9408,4.9067,4.8863,4.8805,4.8477,4.8296,4.8296,4.8296,4.8296,4.8296,4.8296,4.8296,4.8296,4.8296,0.0,4.8296,4.8296,4.8296,4.8296,4.8296,4.8296,4.8296,4.8296,4.8296,4.8296,0.0,0.0,0.0,0.0,0.0,0.0,0.0,4.0496,4.0496,4.0496,4.0682,4.0799,4.0799,4.1048,4.1191,0.0,0.0,0.0,0.0,0.0,0.0,0.0,0.0,0.0,0.0,0.0,0.0,0.0,0.0,0.0,0.0,0.0,0.0,0.0,0.0,0.0,0.0,0.0,0.0,0.0,0.0,0.0,0.0,0.0,0.0,0.0,0.0,0.0,0.0,0.0,4.5594,4.5594,4.5594,4.5594,4.5594,4.5594,4.5594,4.5782,4.6658,4.6908,4.7197,4.8471,4.8779,4.8894,4.9356,0.0,0.0,0.0,0.0,4.9938,4.9471,0.0,0.0,0.0,0.0,0.0,0.0,0.0,0.0,0.0,0.0,0.0,0.0,0.0,0.0,0.0,5.3197,5.2756,5.1732,5.1313,5.0714,4.9885,4.9683,4.9268,4.8586,4.8402,4.8296,4.8296,4.8296,4.8296,4.8296,4.8296,4.8296,4.8296,4.8296,0.0,4.8976,4.8976,4.9224,4.9599,4.9599,4.9599,4.9599,4.9599,4.9599,4.9599,0.0,0.0,0.0,0.0,0.0,0.0,0.0,4.0496,4.0496,4.0496,4.0682,4.0799,4.0799,4.1048,4.1191,0.0,0.0,0.0,0.0,0.0,0.0,0.0,0.0,0.0,0.0,0.0,0.0,0.0,0.0,0.0,0.0,0.0,0.0,0.0,0.0,0.0,0.0,0.0,0.0,0.0,0.0,0.0,0.0,0.0,0.0,0.0,0.0,0.0,0.0,0.0,4.5594,4.5594,4.5594,4.5594,4.5594,4.5594,4.5594,4.5821,4.687,4.7158,4.7562,4.926,4.9687,4.9861,5.0534,5.0553,0.0,0.0,4.9938,5.0207,4.9534,0.0,5.0707,0.0,0.0,0.0,0.0,0.0,0.0,0.0,0.0,0.0,0.0,0.0,0.0,0.0,5.3741,5.344,5.2751,5.2342,5.1688,5.0751,5.0534,4.9959,4.8946,4.8868,4.8838,4.8838,4.8838,4.8838,4.8838,4.8838,4.8838,4.8838,4.8838,0.0,0.0,4.9858,5.0225,5.0802,5.0802,5.0802,5.0802,5.0802,5.0802,5.0802,0.0,0.0,0.0,0.0,0.0,0.0,0.0,4.0496,4.0496,4.0496,4.0682,4.0799,4.0799,4.1048,4.1191,0.0,0.0,0.0,0.0,0.0,0.0,0.0,0.0,0.0,0.0,0.0,0.0,0.0,4.1191,0.0,0.0,0.0,0.0,0.0,0.0,0.0,0.0,0.0,0.0,0.0,0.0,0.0,0.0,0.0,0.0,0.0,0.0,0.0,0.0,0.0,0.0,4.5594,4.5594,4.5594,4.5594,4.5594,0.0,0.0,4.7548,4.7985,4.8413,5.0149,5.0572,5.0592,5.0668,0.0,0.0,4.9413,4.9452,4.949,4.9413,5.0111,0.0,0.0,0.0,5.0707,0.0,0.0,0.0,0.0,0.0,0.0,0.0,0.0,0.0,5.542,5.5478,5.4788,5.3224,5.2766,5.2487,5.2378,5.1603,5.1135,5.1034,5.0717,5.0582,5.0582,5.0582,5.0582,5.0582,5.0582,5.0582,5.0582,5.0582,0.0,0.0,5.0692,5.0729,5.0802,5.0802,5.0802,5.0802,5.0802,5.0802,5.0802,0.0,0.0,0.0,0.0,0.0,0.0,4.0496,4.0496,4.0496,4.0496,4.0682,4.0799,4.0799,4.1048,4.1191,4.1191,0.0,0.0,0.0,0.0,0.0,0.0,0.0,0.0,0.0,0.0,0.0,0.0,4.1191,0.0,0.0,0.0,0.0,0.0,0.0,4.1191,0.0,0.0,0.0,0.0,0.0,0.0,0.0,0.0,0.0,0.0,0.0,0.0,0.0,0.0,0.0,0.0,4.5594,4.5594,0.0,0.0,4.5594,4.5859,4.7043,4.7735,4.8394,4.961,5.0303,5.0707,5.0707,0.0,0.0,4.8721,4.9029,4.924,4.8702,4.9764,5.0707,0.0,0.0,0.0,0.0,0.0,0.0,0.0,0.0,0.0,0.0,0.0,5.5362,5.5689,5.5708,5.53,5.4399,5.418,5.3639,5.2631,5.2256,5.1732,5.1005,5.0865,5.0802,5.0802,5.0802,5.0802,5.0802,5.0802,5.0802,5.0802,5.0802,0.0,0.0,5.1518,5.1811,5.2242,5.2242,5.2242,5.2242,5.2242,5.2242,5.2242,0.0,0.0,0.0,0.0,0.0,4.0496,4.0496,4.0496,4.0496,4.0496,4.0682,4.0799,4.0799,4.1048,4.1191,4.1191,4.1191,0.0,0.0,0.0,0.0,0.0,0.0,0.0,0.0,0.0,0.0,0.0,4.1191,4.1191,0.0,0.0,4.1191,4.1191,0.0,0.0,0.0,0.0,0.0,0.0,0.0,0.0,0.0,0.0,0.0,0.0,0.0,0.0,0.0,0.0,0.0,0.0,0.0,0.0,0.0,0.0,4.5594,4.5782,4.6658,4.7312,4.7947,4.8798,4.9471,4.9938,0.0,0.0,4.8548,4.8178,4.8586,4.8913,4.8548,4.9707,5.0707,0.0,0.0,5.0707,5.0707,0.0,0.0,0.0,0.0,0.0,0.0,5.4876,5.5708,5.5708,5.5708,5.5477,5.4952,5.4931,5.4326,5.2994,5.2847,5.2367,5.1518,5.1508,5.1508,5.1508,5.1508,5.1508,5.1508,5.1508,5.1508,5.1508,5.1508,0.0,0.0,5.2344,5.2692,5.3196,5.3196,5.3196,5.3196,5.3196,5.3196,5.3196,0.0,0.0,0.0,0.0,0.0,0.0,4.0496,4.0496,4.0496,4.0496,4.0682,4.0799,4.0799,4.1048,4.1191,4.1191,4.1191,0.0,0.0,0.0,0.0,0.0,0.0,0.0,0.0,0.0,0.0,0.0,0.0,0.0,4.1191,4.1191,4.1191,4.1191,0.0,0.0,0.0,0.0,0.0,0.0,0.0,0.0,0.0,0.0,0.0,0.0,0.0,0.0,0.0,0.0,0.0,0.0,0.0,0.0,0.0,0.0,4.5594,4.5782,4.6658,4.6908,4.7101,4.7908,4.812,4.812,0.0,0.0,4.7158,4.7947,4.8101,4.8375,4.9221,5.0111,5.0707,5.0707,0.0,0.0,5.0707,0.0,0.0,0.0,0.0,0.0,5.4395,5.5228,5.5708,5.5708,5.5708,0.0,5.4558,5.4511,5.4288,5.3805,5.3393,5.3177,5.3177,5.3177,5.3177,5.3177,5.3177,5.3177,5.3177,5.3177,5.3177,5.3177,0.0,0.0,0.0,5.3196,5.3196,5.3196,5.3196,5.3196,5.3196,5.3196,5.3196,5.3196,0.0,0.0,0.0,0.0,0.0,0.0,0.0,4.0496,4.0496,4.0496,4.0682,4.0799,4.0799,4.1048,4.1191,4.1191,4.1191,0.0,0.0,0.0,0.0,0.0,0.0,0.0,0.0,0.0,0.0,0.0,0.0,0.0,0.0,0.0,0.0,4.1191,4.1191,0.0,0.0,0.0,0.0,0.0,0.0,0.0,0.0,0.0,0.0,0.0,0.0,0.0,0.0,0.0,0.0,0.0,0.0,0.0,0.0,0.0,0.0,0.0,4.5936,4.6451,4.6966,4.7216,4.7697,4.8101,4.8101,0.0,4.7139,4.7928,4.8101,4.8375,4.924,5.0111,5.0707,5.0707,5.0707,0.0,0.0,0.0,0.0,0.0,0.0,5.4414,0.0,0.0,5.5708,5.5708,5.546,5.5055,5.4535,5.4196,5.3833,5.3402,5.3272,5.3196,5.3196,5.3196,5.3196,5.3196,5.3196,5.3196,5.3196,5.3196,5.3196,0.0,0.0,0.0,0.0,5.3196,5.3196,5.3196,5.3196,5.3196,5.3196,5.3196,5.3196,5.3196,0.0,0.0,0.0,0.0,0.0,0.0,0.0,4.0496,4.0496,4.0496,4.0682,4.0799,4.0799,4.1048,4.1191,4.1191,4.1191,0.0,0.0,0.0,0.0,0.0,0.0,0.0,0.0,0.0,0.0,0.0,0.0,0.0,0.0,0.0,0.0,0.0,0.0,0.0,0.0,0.0,0.0,0.0,0.0,0.0,4.5547,0.0,0.0,0.0,0.0,0.0,0.0,0.0,0.0,0.0,0.0,0.0,0.0,0.0,4.5594,0.0,0.0,4.5994,4.6413,4.6413,4.6797,0.0,0.0,0.0,4.674,4.787,4.8101,4.8471,4.9668,5.0322,5.0707,5.0707,5.0707,0.0,0.0,0.0,0.0,5.2736,0.0,0.0,0.0,5.5708,5.5708,5.5708,5.5325,5.4912,5.4527,5.4048,5.3701,5.3424,5.3293,5.3196,5.3196,5.3196,5.3196,5.3196,5.3196,5.3196,5.3196,5.3196,5.3196,0.0,0.0,0.0,0.0,5.3196,5.3196,5.3196,5.3196,5.3196,5.3196,5.3196,5.3196,5.3196,0.0,0.0,0.0,0.0,0.0,0.0,0.0,4.0496,4.0496,4.0496,4.0674,4.0789,4.0797,4.1026,4.1191,4.1191,0.0,0.0,0.0,0.0,0.0,0.0,0.0,0.0,0.0,0.0,0.0,4.1191,4.1191,4.1191,4.1191,0.0,0.0,0.0,0.0,0.0,0.0,0.0,0.0,0.0,0.0,0.0,0.0,0.0,0.0,0.0,0.0,0.0,0.0,0.0,0.0,0.0,0.0,0.0,0.0,0.0,0.0,0.0,0.0,0.0,0.0,0.0,0.0,0.0,0.0,0.0,0.0,4.7778,4.8139,4.8702,5.038,5.0707,5.0707,5.0707,5.0707,5.0707,0.0,5.1452,0.0,0.0,5.5208,0.0,5.5708,5.5708,5.5708,5.5708,5.5325,5.4945,5.4547,5.4101,5.386,5.386,5.3444,5.323,5.323,5.3217,5.3196,5.3196,5.3196,5.3196,5.3196,5.3196,5.3196,0.0,0.0,0.0,0.0,5.3196,5.3196,5.3196,5.3196,5.3196,5.3196,5.3196,5.3196,5.3196,0.0,0.0,0.0,0.0,0.0,0.0,0.0,0.0,0.0,0.0,4.0633,4.0735,4.0789,4.0952,4.1081,0.0,0.0,0.0,0.0,0.0,0.0,0.0,0.0,0.0,0.0,0.0,0.0,4.1191,4.1191,4.1191,4.1191,4.1191,0.0,0.0,0.0,0.0,0.0,0.0,0.0,0.0,0.0,0.0,0.0,0.0,0.0,0.0,4.6308,4.614,0.0,0.0,0.0,0.0,0.0,0.0,0.0,0.0,4.5594,4.5594,4.5594,0.0,4.5594,4.5594,4.5594,0.0,0.0,0.0,0.0,0.0,0.0,4.9413,5.0495,5.0707,5.0707,5.0707,5.0707,5.0707,5.0707,0.0,0.0,5.4376,5.5208,5.5708,5.5708,5.5708,5.5708,5.5708,5.5325,5.5055,5.4966,5.4563,5.433,5.433,5.3897,5.3663,5.3663,5.3349,5.3196,5.3196,5.3196,5.3196,5.3196,5.3196,5.3196,0.0,0.0,0.0,5.3196,5.3196,5.3196,5.3196,5.3196,5.3196,5.3196,5.3196,5.3196,5.3196,0.0,0.0,0.0,0.0,0.0,0.0,0.0,0.0,0.0,0.0,0.0,0.0,0.0,0.0,0.0,0.0,0.0,0.0,0.0,0.0,0.0,0.0,0.0,0.0,0.0,0.0,0.0,0.0,0.0,4.1191,0.0,0.0,0.0,0.0,0.0,0.0,0.0,0.0,0.0,0.0,4.5449,0.0,0.0,0.0,0.0,0.0,4.6225,4.6078,0.0,4.5852,4.574,4.5594,0.0,0.0,0.0,0.0,4.5594,4.5594,4.5594,4.5594,4.5594,4.5594,4.5594,4.5706,0.0,0.0,0.0,0.0,0.0,4.9668,5.0534,5.0707,5.0707,5.0707,5.0707,0.0,0.0,0.0,5.4107,5.4953,5.5439,5.5708,0.0,5.5708,5.5708,5.5708,5.5325,5.5088,5.5088,5.4727,5.4571,5.476,5.4134,5.3805,5.3805,5.3392,5.3196,5.3196,5.3196,5.3196,5.3196,5.3196,5.3196,0.0,0.0,0.0,5.3196,5.3196,5.3196,5.3196,5.3196,5.3196,5.3196,5.3196,5.3196,5.3196,0.0,0.0,0.0,0.0,0.0,0.0,0.0,0.0,0.0,0.0,0.0,0.0,0.0,0.0,0.0,0.0,0.0,0.0,0.0,0.0,0.0,0.0,0.0,0.0,0.0,0.0,0.0,0.0,0.0,0.0,0.0,0.0,4.1816,0.0,0.0,0.0,0.0,0.0,0.0,0.0,4.5996,0.0,0.0,0.0,0.0,0.0,0.0,0.0,0.0,4.5817,4.5715,4.5594,4.5594,0.0,0.0,0.0,0.0,0.0,4.5594,4.5594,4.5594,4.5594,4.5594,4.5821,4.6697,0.0,0.0,0.0,0.0,0.0,0.0,5.0707,0.0,0.0,0.0,0.0,5.3164,5.403,5.4799,5.5593,5.5708,0.0,5.5708,5.5708,5.5708,5.5708,5.5374,5.5192,5.5192,5.4874,5.4833,5.518,5.4369,5.3915,5.3915,5.3442,5.3196,5.3196,5.3196,5.3196,5.3196,5.3196,5.3196,5.3196,0.0,0.0,5.3196,5.3196,5.3196,5.3196,5.3196,5.3196,5.3196,5.3196,5.3196,5.3196,0.0,0.0,0.0,0.0,0.0,0.0,0.0,0.0,0.0,0.0,0.0,0.0,0.0,0.0,0.0,0.0,0.0,0.0,0.0,0.0,0.0,0.0,0.0,0.0,0.0,0.0,0.0,0.0,0.0,0.0,4.2226,4.2226,4.2676,0.0,0.0,0.0,0.0,0.0,0.0,0.0,0.0,0.0,0.0,0.0,0.0,0.0,0.0,0.0,0.0,4.5817,4.5715,4.5594,4.5594,0.0,0.0,0.0,0.0,0.0,4.5594,4.5594,4.5594,4.5594,4.5594,4.5821,4.6697,0.0,0.0,0.0,0.0,0.0,0.0,5.0707,5.0707,0.0,0.0,5.2313,0.0,0.0,5.4799,5.5593,0.0,5.5708,5.5708,5.5708,5.5708,5.5708,5.5646,5.5599,5.5599,5.556,5.5535,5.5618,5.4819,5.4387,5.4387,5.3602,5.3196,5.3196,5.3196,5.3196,5.3196,5.3196,5.3196,5.3196,0.0,5.3196,5.3196,5.3196,5.3196,5.3196,5.3196,5.3196,5.3196,5.3196,5.3196,5.3196,0.0,0.0,0.0,0.0,0.0,0.0,0.0,0.0,0.0,0.0,0.0,0.0,0.0,0.0,0.0,0.0,0.0,0.0,0.0,0.0,0.0,0.0,0.0,0.0,0.0,0.0,0.0,0.0,0.0,4.2734,4.3105,4.3574,4.3769,4.3769,0.0,0.0,0.0,0.0,0.0,0.0,0.0,0.0,0.0,0.0,0.0,0.0,0.0,0.0,0.0,0.0,4.566,4.5594,4.5594,0.0,0.0,0.0,0.0,0.0,4.5594,4.5594,4.5706,4.6182,4.6297,4.6528,4.7351,0.0,0.0,0.0,0.0,0.0,0.0,0.0,5.0842,5.1279,0.0,5.3587,5.4395,5.4876,5.5285,0.0,0.0,5.5708,5.5708,5.5708,5.5708,5.5708,5.5708,5.5708,5.5708,5.5708,5.5708,5.5708,5.514,5.4716,5.4503,5.3851,5.3422,5.3196,5.3196,5.3196,5.3196,5.3196,5.3196,5.3196,0.0,5.3196,5.3196,5.3196,5.3196,5.3196,5.3196,5.3196,5.3196,5.3196,5.3196,5.3196,0.0,0.0,0.0,0.0,0.0,0.0,0.0,0.0,0.0,0.0,0.0,0.0,0.0,0.0,0.0,0.0,0.0,0.0,0.0,0.0,0.0,0.0,0.0,0.0,0.0,0.0,4.2695,4.2695,4.3379,4.3808,4.4023,4.4902,4.4941,0.0,0.0,0.0,0.0,0.0,0.0,0.0,0.0,0.0,0.0,0.0,0.0,0.0,0.0,0.0,0.0,0.0,0.0,0.0,0.0,0.0,0.0,4.5594,4.5594,4.5594,4.5594,4.5594,4.5802,4.6678,4.6908,4.7158,4.8159,0.0,0.0,0.0,0.0,0.0,0.0,5.0842,0.0,5.2332,5.3626,5.4568,5.4741,5.5304,5.5708,5.5708,5.5708,5.5708,5.5708,5.5708,5.5708,5.5708,5.5708,5.5708,5.5708,5.5708,5.5708,5.5708,5.5313,5.4916,5.4511,5.4031,5.3604,5.3196,5.3196,5.3196,5.3196,5.3196,5.3196,5.3196,5.3196,5.3196,5.3196,5.3196,5.3196,5.3196,5.3196,5.3196,5.3196,5.3196,5.3324,5.3471,0.0,0.0,0.0,0.0,0.0,0.0,0.0,0.0,0.0,0.0,0.0,0.0,0.0,0.0,0.0,0.0,0.0,0.0,0.0,0.0,0.0,0.0,0.0,0.0,0.0,4.3574,4.3613,4.3613,4.3672,4.4101,4.4922,4.5801,4.6172,4.6113,0.0,0.0,0.0,0.0,0.0,4.6308,0.0,0.0,0.0,0.0,0.0,0.0,0.0,0.0,0.0,0.0,0.0,0.0,0.0,0.0,4.5594,4.5594,4.5594,4.5594,4.5594,4.5594,4.5802,4.6678,4.6908,0.0,4.8933,4.9356,0.0,0.0,0.0,0.0,0.0,5.1318,5.2351,5.4049,5.4414,5.4761,5.5516,0.0,5.5708,5.5708,5.5708,5.5708,5.5708,5.5708,5.5708,5.5708,5.5708,5.5708,5.5708,5.5708,5.5708,5.5708,5.5313,5.4916,5.4511,5.4031,5.3604,5.3196,5.3196,5.3196,5.3196,5.3196,5.3196,5.3196,5.3196,5.3196,5.3196,5.3196,5.3196,5.3196,5.3196,5.3196,5.3196,5.3196,5.3673,5.4308,0.0,0.0,0.0,0.0,0.0,0.0,0.0,0.0,0.0,0.0,0.0,0.0,0.0,0.0,0.0,0.0,0.0,0.0,0.0,0.0,0.0,0.0,0.0,4.4766,4.5312,4.4785,4.4512,4.4512,4.5058,4.5488,4.582,4.6152,0.0,0.0,0.0,0.0,0.0,0.0,4.6308,4.6308,4.6308,0.0,0.0,0.0,0.0,0.0,0.0,0.0,0.0,0.0,4.5594,4.5594,4.5594,4.5594,4.5594,4.5594,4.5594,4.5594,4.5594,4.5994,4.6605,4.7447,0.0,0.0,0.0,0.0,0.0,0.0,0.0,0.0,0.0,0.0,5.3722,5.4395,5.4914,5.5343,5.567,5.5708,5.5708,5.5708,5.5708,5.5708,5.5708,5.5708,5.5708,5.5708,5.5708,5.5708,5.5708,5.5708,5.5708,5.5708,5.5541,5.5288,5.4888,5.446,5.4014,5.3565,5.3326,5.3196,5.3196,5.3196,5.3196,5.3196,5.3196,5.3196,5.3196,5.3196,5.3196,5.3251,5.3757,5.3959,5.4014,5.4509,5.4887,5.5144,0.0,0.0,0.0,0.0,0.0,0.0,0.0,0.0,0.0,0.0,0.0,0.0,0.0,0.0,0.0,0.0,0.0,0.0,0.0,0.0,0.0,0.0,0.0,4.5683,4.6289,4.5723,4.541,4.541,4.6016,4.6308,4.6308,0.0,0.0,0.0,0.0,0.0,0.0,0.0,0.0,4.6308,4.6308,4.6308,0.0,0.0,0.0,0.0,0.0,0.0,0.0,0.0,4.5594,4.5594,4.5594,4.5594,4.5594,4.5594,4.5594,4.5594,4.5594,4.624,4.7081,0.0,0.0,0.0,0.0,0.0,0.0,0.0,0.0,0.0,0.0,0.0,0.0,0.0,5.5343,5.5708,5.5708,5.5708,5.5708,5.5708,5.5708,5.5708,5.5708,5.5708,5.5708,5.5708,5.5708,5.5708,5.5708,5.5708,5.5708,5.5708,5.5708,5.5506,5.5095,5.4693,5.4263,5.3796,5.3381,5.3196,5.3196,5.3196,5.3196,5.3196,5.3196,5.3196,5.3196,5.3196,5.3343,5.3654,5.4454,5.4785,5.484,5.5401,5.5768,5.5978,0.0,0.0,0.0,0.0,0.0,0.0,0.0,0.0,0.0,0.0,0.0,0.0,0.0,0.0,0.0,0.0,0.0,0.0,0.0,0.0,0.0,0.0,0.0,4.6308,4.6308,4.6308,4.6308,4.6308,4.6308,4.6308,4.6308,4.6308,0.0,0.0,0.0,0.0,0.0,0.0,4.6308,4.6308,4.6308,4.6308,4.6308,0.0,0.0,0.0,0.0,0.0,0.0,0.0,4.5594,4.5594,4.5594,4.5594,4.5594,4.5594,4.5594,4.5594,4.5614,4.624,4.7101,0.0,0.0,0.0,0.0,0.0,0.0,0.0,0.0,0.0,0.0,0.0,0.0,5.5574,5.5708,5.5708,5.5708,5.5708,5.5708,5.5708,5.5708,5.5708,5.5708,5.5708,5.5708,5.5708,5.5708,5.5708,5.5708,5.5708,5.5708,5.5708,5.5708,5.5506,5.5121,5.4693,5.4263,5.3805,5.3392,5.3196,5.3196,5.3196,5.3196,5.3196,5.3196,5.3196,5.3214,5.3214,5.3691,5.4491,5.531,5.5603,5.5603,5.5622,5.6124,5.6811,0.0,0.0,0.0,0.0,0.0,0.0,0.0,0.0,0.0,0.0,0.0,0.0,0.0,0.0,0.0,0.0,0.0,0.0,0.0,0.0,0.0,0.0,0.0,0.0,0.0,0.0,4.6308,4.6308,4.6308,4.6308,0.0,0.0,0.0,4.6308,0.0,0.0,0.0,0.0,4.6308,4.6308,4.6308,4.6308,4.6308,0.0,0.0,0.0,0.0,0.0,0.0,0.0,0.0,0.0,4.5622,4.5661,4.5711,4.5622,4.5594,4.5725,4.6355,4.712,0.0,4.8798,0.0,0.0,0.0,0.0,0.0,0.0,0.0,0.0,0.0,0.0,0.0,5.567,5.5708,5.5708,5.5708,5.5708,5.5708,5.5708,5.5708,5.5708,5.5708,5.5708,5.5708,5.5708,5.5708,5.5708,5.5708,5.5708,5.5708,5.5708,5.5708,5.5646,5.5518,5.4833,5.4439,5.428,5.3553,5.3196,5.3196,5.3196,5.3196,5.3196,5.3196,5.3526,5.4087,5.4638,5.5034,5.5328,5.6124,5.6436,5.651,5.7079,5.7446,5.7648,0.0,0.0,0.0,0.0,0.0,0.0,0.0,0.0,0.0,0.0,0.0,0.0,0.0,0.0,0.0,0.0,0.0,0.0,0.0,0.0,0.0,0.0,0.0,0.0,0.0,4.6308,4.6308,0.0,0.0,0.0,0.0,0.0,0.0,4.6308,0.0,4.6308,0.0,0.0,4.6308,4.6308,4.6308,4.6308,4.6308,0.0,0.0,0.0,0.0,0.0,0.0,0.0,0.0,0.0,4.5704,4.5729,4.5766,4.5639,4.5594,4.5782,4.6658,4.7485,0.0,4.9183,5.0053,5.0784,5.1106,0.0,0.0,0.0,0.0,0.0,0.0,5.5381,0.0,5.5708,5.5708,5.5708,5.5708,5.5708,5.5708,5.5708,5.5708,5.5708,5.5708,5.5708,5.5708,5.5708,5.5708,5.5708,0.0,5.5708,5.5708,5.5708,5.5708,5.5708,5.5708,5.489,5.4503,5.4495,5.3622,5.3274,5.3424,5.3272,5.3379,5.3691,5.4014,5.4436,5.4932,5.5739,5.6069,5.6161,5.6969,5.7281,5.7336,5.7813,5.7997,5.7997,0.0,0.0,0.0,0.0,0.0,0.0,0.0,0.0,0.0,0.0,0.0,0.0,0.0,0.0,0.0,0.0,0.0,0.0,0.0,0.0,0.0,0.0,0.0,0.0,0.0,0.0,0.0,0.0,0.0,0.0,0.0,0.0,4.6308,4.6308,0.0,4.6308,0.0,4.6308,4.6308,4.6308,4.6308,4.6308,4.6308,4.6308,0.0,0.0,0.0,0.0,0.0,0.0,0.0,0.0,4.5809,4.579,4.5786,4.5647,4.5594,4.5802,4.6755,4.7543,0.0,4.9279,5.0111,0.0,5.1717,5.1962,5.2274,5.314,0.0,0.0,5.5574,5.5708,5.5708,5.5708,5.5708,5.5708,5.5708,5.5708,5.5708,5.5708,5.5708,5.5708,5.5708,5.5708,5.5708,5.5708,5.5708,0.0,5.5708,5.5708,5.5708,5.5708,5.5708,5.5708,5.5708,5.4945,5.4539,5.4532,5.371,5.3514,5.3851,5.3526,5.3813,5.4614,5.5387,5.5713,5.5768,5.6583,5.6902,5.6976,5.7703,5.7997,5.7997,5.7997,5.7997,5.7997,0.0,0.0,0.0,0.0,0.0,0.0,0.0,0.0,0.0,0.0,0.0,0.0,0.0,0.0,0.0,0.0,0.0,0.0,0.0,0.0,0.0,0.0,0.0,0.0,0.0,0.0,0.0,0.0,0.0,0.0,0.0,0.0,0.0,4.6308,0.0,4.6308,4.6308,4.6308,4.6308,4.6308,4.6308,4.6308,4.6308,4.6308,4.6308,0.0,0.0,0.0,0.0,0.0,0.0,0.0,4.5844,4.585,4.5833,4.5649,4.5594,4.5936,4.7432,4.7966,0.0,0.0,5.0553,5.0919,5.1717,5.2428,5.3159,5.4049,5.4876,5.5497,5.567,5.5708,5.5708,5.5708,5.5708,5.5708,5.5708,5.5708,5.5708,5.5708,5.5708,5.5708,5.5708,5.5708,5.5708,5.5708,5.5708,0.0,5.5708,5.5708,5.5708,5.5708,5.5708,5.5708,5.5708,5.5212,5.4973,0.0,5.446,5.4265,5.4368,5.4596,5.5123,5.5912,5.6352,5.6547,5.6602,5.7409,5.774,5.7758,5.7923,5.7997,5.7997,5.7997,5.7997,5.7997,0.0,0.0,0.0,0.0,0.0,0.0,0.0,0.0,0.0,0.0,0.0,0.0,0.0,0.0,0.0,0.0,0.0,0.0,0.0,0.0,0.0,0.0,0.0,0.0,0.0,0.0,0.0,0.0,0.0,0.0,0.0,0.0,0.0,4.6308,0.0,4.6308,4.6308,4.6308,4.6308,4.6308,4.6308,4.6308,4.6308,4.6308,4.6308,4.6289,4.6224,0.0,0.0,0.0,0.0,0.0,0.0,0.0,4.5852,4.5665,4.5594,4.5975,4.7644,0.0,0.0,5.0265,0.0,5.1015,5.2236,5.287,5.3568,5.4818,5.542,5.5708,5.5708,5.5708,5.5708,5.5708,5.5708,5.5708,5.5708,5.5708,5.5708,5.5708,5.5708,5.5708,5.5708,5.5708,5.5708,5.5708,0.0,5.5708,5.5708,5.5708,5.5708,5.5708,5.5708,5.5708,5.5708,5.53,5.5088,5.5107,5.4686,5.501,5.5981,5.5739,5.6078,5.6888,5.7235,5.7373,5.7409,5.7831,5.7997,5.7997,5.7997,5.7997,5.7997,5.7997,5.7997,5.7997,0.0,0.0,0.0,0.0,0.0,0.0,0.0,0.0,0.0,0.0,0.0,0.0,0.0,0.0,0.0,0.0,0.0,0.0,0.0,0.0,0.0,0.0,0.0,0.0,0.0,0.0,0.0,0.0,0.0,0.0,0.0,0.0,0.0,4.6308,0.0,0.0,4.6308,4.6308,4.6308,4.6308,4.6308,4.6308,4.6308,4.6308,4.6308,4.6308,4.6308,4.6225,4.6148,4.6268,0.0,0.0,0.0,0.0,4.5852,4.5665,4.5594,4.5975,4.7644,0.0,4.8894,5.0341,5.0707,0.0,5.2818,5.3197,5.3683,5.5357,5.5708,5.5708,5.5708,5.5708,5.5708,5.5708,5.5708,5.5708,5.5708,5.5708,5.5708,5.5708,5.5708,5.5708,5.5708,5.5708,5.5708,5.5708,0.0,5.5708,5.5708,5.5708,5.5708,5.5708,5.5708,5.5708,5.5708,5.5381,5.5199,5.5199,5.5014,5.591,5.7707,5.6984,5.708,5.7844,5.8041,5.8081,5.7997,5.7997,5.7997,5.7997,5.7997,5.7997,5.7997,5.7997,5.7997,5.7997,0.0,0.0,0.0,0.0,0.0,0.0,0.0,0.0,0.0,0.0,0.0,0.0,0.0,0.0,0.0,0.0,0.0,0.0,0.0,0.0,0.0,0.0,0.0,0.0,0.0,0.0,0.0,0.0,0.0,0.0,0.0,0.0,0.0,4.6308,0.0,0.0,0.0,4.6308,4.6308,4.6308,4.6308,4.6308,4.6308,4.6308,4.6308,4.6308,4.6308,4.6289,4.6288,4.6289,4.6289,0.0,0.0,0.0,4.5852,4.5665,4.5594,4.5975,0.0,0.0,5.0418,0.0,5.0707,5.113,0.0,0.0,5.3683,0.0,5.5708,5.5708,5.5708,5.5708,5.5708,5.5708,5.5708,5.5708,5.5708,5.5708,5.5708,5.5708,5.5708,5.5708,5.5708,5.5708,5.5708,0.0,5.5708,5.5708,5.5708,5.5708,5.5708,5.5708,5.5708,5.5708,5.5708,5.5651,5.561,5.5629,5.632,5.7203,5.8206,5.8384,5.871,5.9124,5.8768,5.8383,5.7997,5.7997,5.7997,5.7997,5.7997,5.7997,5.7997,5.7997,5.7997,5.7997,0.0,0.0,0.0,0.0,0.0,0.0,0.0,0.0,0.0,0.0,0.0,0.0,0.0,0.0,0.0,0.0,0.0,0.0,0.0,0.0,0.0,4.6308,4.6308,4.6308,0.0,0.0,0.0,0.0,0.0,0.0,0.0,4.6308,4.6308,0.0,0.0,0.0,0.0,0.0,4.6308,4.6308,4.6308,4.6308,4.6308,4.6308,4.6308,4.6308,4.6308,4.6308,4.6308,4.6308,4.6308,4.6268,4.6077,0.0,0.0,0.0,4.5653,4.5975,4.7644,4.9375,5.0707,0.0,5.0707,5.113,5.2818,0.0,5.3683,5.5357,5.5708,5.5708,5.5708,5.5708,5.5708,5.5708,5.5708,5.5708,5.5708,5.5708,5.5708,5.5708,5.5708,5.5708,5.5708,5.5708,5.5708,0.0,5.5708,5.5708,5.5708,5.5708,5.5708,5.5708,5.5708,5.5708,5.5708,5.5708,5.5958,5.6439,5.73,5.8165,5.8986,5.9631,5.9734,5.9363,5.8894,5.8439,5.7997,5.7997,5.7997,5.7997,5.7997,5.7997,5.7997,5.7997,5.7997,5.7997,0.0,0.0,0.0,0.0,0.0,0.0,0.0,0.0,0.0,0.0,0.0,0.0,0.0,0.0,0.0,0.0,0.0,0.0,0.0,0.0,0.0,4.6308,4.6308,4.6308,4.6308,0.0,0.0,0.0,0.0,0.0,4.6308,4.6308,4.6308,0.0,4.6308,0.0,0.0,0.0,0.0,0.0,0.0,4.6308,0.0,4.6308,4.6308,4.6308,4.6308,4.6308,4.6308,4.6308,4.6308,4.6288,4.6145,4.6001,0.0,0.0,0.0,0.0,0.0,0.0,5.0707,5.0707,5.0707,5.1072,0.0,0.0,5.3626,0.0,5.5555,5.5708,5.5708,5.5708,5.5708,5.5708,5.5708,5.5708,5.5708,5.5708,5.5708,5.5708,5.5708,5.5708,5.5708,5.5708,0.0,0.0,5.5708,5.5708,5.5708,5.5708,5.5708,5.5708,5.5708,5.5708,5.5708,5.5708,5.6132,5.7003,5.7877,5.8723,5.9531,6.0396,6.0297,5.9372,5.9028,5.8611,5.8168,5.8047,5.7997,5.7997,5.7997,5.7997,5.7997,5.7997,5.7997,5.7997,0.0,0.0,0.0,0.0,0.0,0.0,0.0,0.0,0.0,0.0,0.0,0.0,0.0,0.0,0.0,4.589,4.6033,4.6152,4.6289,4.6308,4.6308,4.6308,4.6308,0.0,4.6308,0.0,0.0,0.0,0.0,0.0,4.6308,4.6308,4.6308,4.6308,4.6308,4.6308,4.6308,0.0,0.0,0.0,0.0,0.0,0.0,0.0,0.0,0.0,0.0,0.0,4.6308,4.6308,4.6308,4.6288,4.6145,4.6001,0.0,0.0,0.0,0.0,0.0,4.9375,0.0,5.0707,5.0707,0.0,0.0,0.0,0.0,5.4376,5.517,5.5708,5.5708,5.5708,5.5708,5.5708,5.5708,5.5708,5.5708,5.5708,5.5708,5.5708,5.5708,5.5708,5.5708,5.5708,0.0,0.0,5.5708,5.5708,5.5708,5.5708,5.5708,5.5708,5.5708,5.5708,5.5708,5.5708,5.6132,5.7003,5.7877,5.8723,5.9531,6.0396,6.0297,5.9389,5.9363,5.9103,5.8632,5.8179,5.7997,5.7997,5.7997,5.7997,5.7997,5.7997,5.7997,5.7997,0.0,0.0,0.0,0.0,0.0,0.0,0.0,0.0,0.0,0.0,0.0,0.0,0.0,4.5726,4.5829,4.589,4.6109,4.6247,4.6308,4.6308,4.6308,4.6308,4.6308,4.6308,4.6308,0.0,0.0,0.0,0.0,4.6308,4.6308,4.6308,4.6308,4.6308,4.6308,4.6308,4.6308,4.6308,0.0,0.0,0.0,0.0,0.0,0.0,0.0,0.0,0.0,0.0,0.0,4.6308,4.6308,0.0,0.0,0.0,0.0,0.0,0.0,0.0,0.0,0.0,0.0,5.0553,5.0707,5.0919,5.1717,5.2563,5.3453,5.4318,5.5151,5.5708,5.5708,5.5708,5.5708,5.5708,5.5708,5.5708,5.5708,5.5708,5.5708,5.5708,5.5708,5.5708,5.5708,0.0,0.0,0.0,0.0,5.5708,5.5708,5.5708,5.5708,5.5708,5.5708,5.5708,5.5708,5.5708,5.6132,5.7003,5.7877,5.8723,5.9531,6.0396,6.0443,5.982,5.9526,5.8952,5.8227,5.807,5.7997,5.7997,5.7997,5.7997,5.7997,5.7997,5.7997,5.7997,0.0,0.0,0.0,0.0,0.0,0.0,0.0,0.0,0.0,0.0,0.0,0.0,0.0,0.0,4.5787,4.5885,4.6091,4.6247,4.6308,4.6308,4.6308,4.6308,4.6308,4.6308,4.6308,0.0,0.0,0.0,0.0,0.0,0.0,4.6308,4.6308,4.6308,4.6308,4.6308,0.0,0.0,0.0,4.6308,0.0,0.0,4.6308,0.0,0.0,0.0,0.0,0.0,0.0,0.0,0.0,0.0,0.0,0.0,0.0,0.0,0.0,0.0,4.787,0.0,0.0,0.0,0.0,5.0842,5.1375,0.0,5.3005,5.3876,5.4722,5.5381,5.5651,5.5708,5.5708,5.5708,5.5708,5.5708,5.5708,5.5708,5.5708,5.5708,5.5708,5.5708,5.5708,0.0,0.0,0.0,0.0,0.0,5.5708,5.5708,5.5708,5.5708,5.5708,5.5708,5.5708,5.5708,5.6285,5.744,5.803,5.8877,5.9954,6.0531,6.0546,6.0069,5.9592,5.8971,5.8216,5.807,5.7997,5.7997,5.7997,5.7997,5.7997,5.7997,5.7997,5.7997,0.0,0.0,0.0,0.0,0.0,0.0,0.0,0.0,0.0,0.0,0.0,0.0,0.0,0.0,0.0,4.5879,4.603,4.6169,4.6289,4.6308,4.6308,4.6308,4.6308,4.6308,4.6308,0.0,0.0,0.0,0.0,0.0,0.0,0.0,4.6308,4.6308,4.6308,4.6308,4.6308,0.0,4.6308,4.6308,0.0,4.6308,4.6308,0.0,0.0,0.0,4.6308,4.6308,0.0,4.6308,0.0,0.0,0.0,0.0,0.0,0.0,0.0,0.0,0.0,0.0,0.0,0.0,0.0,0.0,5.0707,0.0,5.214,5.2986,5.3876,5.4741,5.5516,5.5689,5.5708,5.5708,5.5708,5.5708,5.5708,5.5708,5.5708,5.5708,5.5708,5.5708,0.0,0.0,0.0,0.0,5.5708,5.5708,5.5708,5.5708,5.5708,5.5708,5.5708,5.5708,5.5708,5.5708,5.6549,5.8256,5.8294,5.9165,6.0768,6.0787,6.0546,6.0069,5.9592,5.914,5.8654,5.819,5.7997,5.7997,5.7997,5.7997,5.7997,5.7997,5.7997,5.7997,0.0,0.0,0.0,0.0,0.0,0.0,0.0,0.0,0.0,0.0,0.0,0.0,0.0,0.0,0.0,4.5888,4.603,4.6169,4.6289,4.6308,4.6308,4.6308,4.6308,4.6308,4.6308,0.0,0.0,0.0,0.0,0.0,0.0,0.0,0.0,0.0,4.6308,4.6308,4.6308,4.6308,0.0,0.0,4.6308,4.6308,0.0,0.0,0.0,0.0,0.0,4.6308,4.6308,0.0,4.6308,4.6288,0.0,0.0,0.0,0.0,0.0,0.0,4.7721,0.0,0.0,0.0,0.0,0.0,0.0,0.0,5.1962,5.2217,5.3453,5.4568,5.478,5.5304,5.5708,5.5708,5.5708,5.5708,5.5708,5.5708,5.5708,5.5708,5.5708,5.5708,0.0,0.0,0.0,0.0,5.5708,5.5708,5.5708,5.5708,5.5708,5.5708,5.5708,5.5708,5.5708,5.5708,5.6266,5.7363,5.7992,5.8858,5.9877,6.0512,6.0546,6.0069,5.9592,5.914,5.8654,5.819,5.7997,5.7997,5.7997,5.7997,5.7997,5.7997,5.7997,5.7997,0.0,0.0,0.0,0.0,0.0,0.0,0.0,0.0,0.0,0.0,0.0,0.0,0.0,0.0,0.0,4.5885,4.5976,4.6107,4.6289,4.6308,4.6308,4.6308,4.6308,4.6308,4.6308,4.6308,0.0,0.0,0.0,0.0,0.0,0.0,0.0,0.0,0.0,0.0,0.0,0.0,0.0,0.0,4.6308,0.0,0.0,4.6308,4.6523,0.0,0.0,0.0,4.7324,4.6953,4.6561,0.0,4.6119,4.5996,0.0,0.0,0.0,0.0,0.0,0.0,0.0,0.0,0.0,0.0,5.0707,5.1048,5.1486,0.0,5.2717,5.3645,5.4376,5.4876,5.5304,5.5651,5.5708,5.5708,5.5708,5.5708,5.5708,5.5708,5.5708,5.5708,0.0,5.5708,5.5708,5.5708,5.5708,5.5708,5.5708,5.5708,5.5708,5.5708,5.5708,5.5708,5.5708,5.6055,5.6689,5.7555,5.8396,5.9242,6.0069,6.0575,6.0647,6.0351,5.9693,5.9239,5.8951,5.8282,5.7997,5.7997,5.7997,5.7997,5.7997,5.7997,5.7997,5.7997,0.0,0.0,0.0,0.0,0.0,0.0,0.0,0.0,0.0,0.0,0.0,0.0,0.0,0.0,0.0,0.0,4.5901,4.6005,4.6289,4.6308,4.6308,4.6308,4.6308,4.6308,4.6308,4.6308,0.0,0.0,0.0,0.0,0.0,0.0,0.0,0.0,0.0,0.0,0.0,0.0,0.0,4.6308,4.6308,4.6308,0.0,0.0,4.6933,4.7617,4.7715,4.8242,4.8789,4.8008,4.7142,4.6411,4.6411,4.6263,0.0,0.0,4.7098,0.0,0.0,0.0,0.0,0.0,0.0,0.0,5.0707,5.0707,5.0899,0.0,5.1851,5.237,5.3933,5.4376,5.4722,5.5458,5.5651,5.5708,5.5708,5.5708,5.5708,5.5708,5.5708,0.0,5.5708,5.5708,5.5708,5.5708,5.5708,5.5708,5.5708,5.5708,5.5708,5.5708,5.5708,5.5708,5.5708,5.6555,5.744,5.8313,5.9127,5.9954,6.0806,6.0806,6.0806,6.0752,5.9816,5.9389,5.9319,5.8386,5.7997,5.7997,5.7997,5.7997,5.7997,5.7997,5.7997,5.7997,0.0,0.0,0.0,0.0,0.0,0.0,0.0,0.0,0.0,0.0,0.0,0.0,0.0,0.0,0.0,0.0,0.0,4.6005,4.6289,4.6308,4.6308,4.6308,4.6308,4.6308,4.6308,4.6308,4.6308,0.0,0.0,0.0,0.0,0.0,0.0,0.0,0.0,0.0,0.0,0.0,0.0,4.6308,4.6308,0.0,4.6387,4.707,4.7441,4.7695,4.8398,4.8769,4.8867,4.8691,4.8515,4.8358,4.8358,0.0,0.0,0.0,0.0,0.0,0.0,0.0,0.0,0.0,0.0,0.0,5.0707,5.0707,5.0745,0.0,5.1447,5.2,5.2332,5.3549,5.4549,5.4703,5.5285,5.5708,5.5708,5.5708,5.5708,5.5708,5.5708,0.0,5.5708,5.5708,5.5708,5.5708,5.5708,5.5708,5.5708,5.5708,5.5708,5.5708,5.5708,5.5708,5.5708,5.6555,5.744,5.8313,5.9127,5.9954,6.0806,6.0806,6.0806,6.0752,5.9816,5.9389,5.9319,5.8386,5.7997,5.7997,5.7997,5.7997,5.7997,5.7997,5.7997,5.7997,0.0,0.0,0.0,0.0,0.0,0.0,0.0,0.0,0.0,0.0,0.0,0.0,0.0,0.0,0.0,0.0,0.0,0.0,0.0,4.6308,4.6308,4.6308,4.6308,4.6308,4.6308,4.6308,4.6308,4.6308,0.0,0.0,0.0,0.0,0.0,0.0,0.0,0.0,0.0,0.0,4.6308,4.6308,4.6308,0.0,4.6992,4.7422,4.8144,4.8945,4.9394,4.9551,4.9551,4.9551,4.9258,0.0,0.0,4.8711,4.8586,0.0,4.8963,4.8933,0.0,0.0,0.0,5.0592,0.0,0.0,0.0,5.0707,5.0707,5.0707,5.1015,5.1414,5.1832,5.2601,5.3356,5.378,5.4549,5.5112,5.5112,5.5458,5.5708,5.5708,5.5708,0.0,5.5708,5.5708,5.5708,5.5708,5.5708,5.5708,5.5708,5.5708,5.5708,5.5708,5.5708,5.5708,5.5708,5.6997,5.7877,5.8313,5.955,6.0377,6.0806,6.0806,6.0806,6.0757,6.0047,5.962,5.9356,5.8642,5.8213,5.7997,5.7997,5.7997,5.7997,5.7997,5.7997,5.7997,0.0,0.0,0.0,0.0,0.0,0.0,0.0,0.0,0.0,0.0,0.0,0.0,0.0,0.0,0.0,0.0,0.0,0.0,0.0,0.0,4.6308,4.6308,4.6308,4.6308,4.6308,4.6308,4.6308,4.6308,0.0,0.0,0.0,0.0,0.0,0.0,0.0,0.0,0.0,0.0,0.0,4.6543,0.0,4.6973,4.7637,4.7969,4.8965,5.0215,5.0371,5.043,5.043,5.043,4.9961,4.9375,4.9375,4.9227,0.0,0.0,0.0,0.0,0.0,0.0,0.0,0.0,0.0,5.0707,0.0,0.0,0.0,5.0707,5.0707,5.0899,5.1543,5.1793,0.0,0.0,0.0,0.0,0.0,5.5054,0.0,5.5689,5.5708,0.0,5.5708,5.5708,5.5708,5.5708,5.5708,5.5708,5.5708,5.5708,5.5708,5.5708,5.5708,5.5708,5.5708,5.7434,5.8294,5.8313,5.9992,6.0806,6.0806,6.0806,6.0806,6.0769,6.0291,5.982,5.9354,5.8894,5.8418,5.7997,5.7997,5.7997,5.7997,5.7997,5.7997,5.7997,4.5594,4.5594,0.0,0.0,0.0,0.0,0.0,0.0,0.0,0.0,0.0,0.0,0.0,0.0,0.0,0.0,0.0,0.0,4.6289,0.0,0.0,4.6308,4.6308,4.6308,4.6308,4.6308,4.6308,4.6308,4.6308,0.0,0.0,0.0,0.0,0.0,4.6308,0.0,0.0,0.0,4.6758,0.0,4.7441,4.7519,0.0,4.9316,5.0039,5.0293,5.1016,5.1269,5.1269,0.0,5.1191,5.1113,0.0,5.1003,5.0905,5.0949,0.0,0.0,0.0,0.0,0.0,0.0,5.0707,0.0,0.0,0.0,5.0707,5.0707,0.0,5.0726,5.0822,0.0,0.0,0.0,0.0,0.0,5.4395,5.4587,5.4895,5.5612,5.5708,5.5708,0.0,5.5708,5.5708,5.5708,5.5708,5.5708,5.5708,5.5708,5.5708,5.5708,5.5708,5.5708,5.5708,5.7434,5.8294,5.8313,5.9992,6.0806,6.0806,6.0806,6.0806,6.0769,6.0291,5.982,5.9354,5.8894,5.8418,5.7997,5.7997,5.7997,5.7997,5.7997,5.7997,5.7997,4.5594,4.5594,0.0,0.0,0.0,0.0,0.0,0.0,0.0,0.0,0.0,0.0,0.0,0.0,0.0,0.0,0.0,4.6246,0.0,0.0,0.0,4.6308,4.6308,4.6308,4.6308,4.6308,4.6308,4.6308,4.6308,0.0,0.0,0.0,0.0,0.0,4.6308,0.0,4.7051,0.0,4.7558,0.0,0.0,0.0,0.0,4.9922,5.0488,5.0937,5.1289,5.1406,5.1406,0.0,5.1406,0.0,0.0,0.0,0.0,0.0,0.0,0.0,0.0,0.0,0.0,0.0,0.0,0.0,5.0707,0.0,5.0707,0.0,0.0,0.0,0.0,0.0,0.0,0.0,5.189,0.0,0.0,0.0,5.4222,0.0,0.0,0.0,0.0,0.0,0.0,0.0,5.5708,5.5708,5.5708,5.5708,5.5708,5.5708,5.5708,5.5708,5.5708,5.7434,5.8294,5.8313,5.9992,6.0806,6.0806,6.0806,6.0806,6.0794,6.0584,6.0096,5.9381,5.9195,5.8664,5.7997,5.7997,5.7997,5.7997,5.7997,5.7997,5.7997,0.0,0.0,0.0,0.0,0.0,0.0,0.0,0.0,0.0,0.0,0.0,0.0,4.6434,4.679,0.0,0.0,4.666,4.6543,0.0,0.0,4.6308,0.0,0.0,0.0,4.6308,4.6308,4.6308,4.6308,4.6308,0.0,0.0,0.0,0.0,0.0,0.0,4.7012,4.7617,0.0,4.8457,4.9316,4.9941,5.0332,5.0527,5.0527,5.0898,5.1406,5.1406,5.1406,5.1406,5.1406,5.1406,0.0,5.1406,0.0,0.0,0.0,0.0,0.0,5.0758,0.0,0.0,0.0,0.0,0.0,0.0,0.0,0.0,0.0,0.0,0.0,0.0,0.0,5.0707,0.0,0.0,5.1659,0.0,0.0,0.0,0.0,0.0,0.0,0.0,0.0,0.0,5.5708,5.5708,5.5708,5.5708,5.5708,5.5708,5.5708,5.5708,5.5805,5.6055,5.755,5.8409,5.864,6.0108,6.0806,6.0806,6.0806,6.0806,6.0806,6.0806,6.0264,5.9389,5.9389,5.8845,5.7997,5.7997,5.7997,5.7997,5.7997,5.7997,5.7997,4.5594,4.5594,0.0,0.0,0.0,0.0,0.0,0.0,0.0,0.0,0.0,0.0,0.0,0.0,0.0,0.0,0.0,4.7207,4.6367,0.0,4.6308,0.0,0.0,4.6308,0.0,4.6308,4.6308,4.6308,4.6308,0.0,0.0,0.0,0.0,0.0,0.0,4.7578,4.7656,4.8496,4.9355,5.0156,5.0195,5.0664,5.1367,0.0,5.1387,5.1406,5.1406,0.0,0.0,5.1406,5.1406,0.0,0.0,0.0,0.0,0.0,0.0,0.0,0.0,0.0,0.0,5.0707,0.0,0.0,0.0,0.0,5.0707,0.0,0.0,0.0,0.0,0.0,0.0,0.0,0.0,0.0,0.0,0.0,0.0,0.0,0.0,0.0,0.0,5.5708,5.5708,5.5708,5.5708,5.5708,5.5708,5.5708,5.5708,5.5708,5.5708,5.6112,5.6945,5.7857,5.8679,5.9473,6.0358,6.0806,6.0806,6.0806,6.0806,6.0806,6.0806,6.0264,5.9389,5.9389,5.8845,5.7997,5.7997,5.7997,5.7997,5.7997,5.7997,5.7997,0.0,0.0,0.0,0.0,0.0,0.0,0.0,4.609,0.0,0.0,0.0,0.0,0.0,4.8646,4.8789,0.0,0.0,4.834,4.8047,4.8027,0.0,0.0,0.0,4.7168,0.0,0.0,0.0,0.0,0.0,0.0,0.0,0.0,0.0,0.0,0.0,4.8242,0.0,0.0,0.0,0.0,0.0,5.1152,5.1406,0.0,5.1406,5.1406,5.1406,5.1406,0.0,5.1406,5.1406,5.1406,5.1406,5.1406,5.1366,5.1213,5.1137,0.0,0.0,0.0,5.0707,5.0707,0.0,0.0,0.0,0.0,0.0,0.0,0.0,0.0,0.0,0.0,0.0,0.0,0.0,0.0,0.0,0.0,0.0,0.0,0.0,0.0,0.0,0.0,0.0,5.5708,5.5708,5.5708,5.5708,5.5708,5.5708,5.5708,5.5708,5.6112,5.6983,5.7857,5.8698,5.9511,6.0377,6.0806,6.0806,6.0806,6.0806,6.0806,6.0806,6.0264,5.9389,5.9389,5.8845,5.7997,5.7997,5.7997,5.7997,5.7997,5.7997,5.7997,4.6129,0.0,0.0,0.0,0.0,0.0,0.0,0.0,0.0,0.0,4.8402,0.0,4.9155,0.0,4.9668,0.0,4.9355,4.9238,4.8926,4.8906,0.0,4.8906,4.8359,0.0,0.0,0.0,0.0,0.0,0.0,4.7226,0.0,0.0,0.0,0.0,0.0,4.9141,5.0215,5.0508,5.0937,0.0,0.0,5.1406,0.0,0.0,5.1406,5.1406,0.0,5.1406,5.1406,5.1406,5.1406,5.1406,5.1406,5.1406,5.1366,5.1239,5.1144,5.1061,5.0939,5.0793,0.0,5.0707,5.0707,0.0,5.0707,0.0,0.0,0.0,0.0,0.0,0.0,0.0,0.0,0.0,0.0,0.0,0.0,5.1144,0.0,0.0,0.0,0.0,0.0,0.0,5.5708,5.5708,5.5708,5.5708,0.0,0.0,5.5708,5.5708,5.5708,5.6266,5.7459,5.803,5.8858,5.9973,6.0531,6.0806,6.0806,6.0806,6.0806,6.0806,6.0806,6.0264,5.9389,5.9389,5.8845,5.7997,5.7997,5.7997,5.7997,5.7997,5.7997,5.7997,0.0,0.0,0.0,0.0,4.6432,0.0,0.0,0.0,4.8363,0.0,4.9369,5.0058,5.0061,5.0873,5.1094,5.0332,5.0254,4.9902,4.9082,4.9023,0.0,0.0,4.8984,4.8965,4.8965,0.0,0.0,0.0,0.0,0.0,0.0,0.0,0.0,0.0,4.9824,0.0,5.0312,5.1074,5.1426,5.1465,5.1465,5.1484,5.1523,5.1523,5.1523,5.1523,5.1484,5.1465,5.1465,5.1504,5.1523,5.1523,5.1523,5.1523,5.1503,5.1379,5.1284,5.12,5.1069,5.0941,5.0822,5.0822,0.0,0.0,0.0,0.0,5.0822,0.0,0.0,0.0,0.0,0.0,0.0,0.0,0.0,0.0,0.0,0.0,0.0,0.0,0.0,0.0,0.0,5.5689,5.5708,5.5708,5.5708,0.0,0.0,0.0,5.5708,5.5708,5.5708,5.653,5.8275,5.8294,5.9146,6.0806,6.0806,6.0806,6.0806,6.0806,6.0806,6.0806,6.0806,6.0264,5.9389,5.9389,5.8845,5.7997,5.7997,5.7997,5.7997,5.7997,5.7997,5.7997,4.7832,4.7966,4.8163,0.0,4.8067,4.7851,0.0,0.0,0.0,0.0,5.0286,5.0928,5.1031,5.1269,5.1328,5.1113,5.1094,0.0,0.0,0.0,0.0,5.0762,5.0195,4.9863,4.9863,4.9238,0.0,4.8906,0.0,0.0,4.8906,0.0,0.0,0.0,0.0,0.0,5.1113,5.1308,5.1777,5.2363,5.2363,5.2754,5.332,0.0,5.332,5.3242,5.2598,5.2363,5.2461,5.3105,5.332,5.332,5.332,5.332,5.332,5.3299,5.3125,5.2954,5.2916,5.2732,5.2568,5.2568,5.2568,5.2568,0.0,0.0,0.0,0.0,0.0,0.0,0.0,0.0,0.0,0.0,0.0,0.0,0.0,0.0,0.0,5.2697,0.0,0.0,5.4722,5.5343,5.5708,5.5708,5.5708,0.0,0.0,0.0,0.0,5.5708,5.5708,5.653,5.8275,5.8294,5.9146,6.0806,6.0806,6.0806,6.0806,6.0806,6.0806,6.0806,6.0806,6.0264,5.9389,5.9389,5.8845,5.7997,5.7997,5.7997,5.7997,5.7997,5.7997,5.7997,4.874,0.0,0.0,4.988,0.0,0.0,4.924,4.9811,0.0,5.0352,5.0894,0.0,5.1387,5.1406,5.1406,5.1406,5.1406,0.0,5.1406,0.0,0.0,5.1406,5.0976,5.0723,5.0723,5.0234,0.0,4.998,0.0,0.0,4.998,0.0,0.0,0.0,0.0,5.0976,5.1426,5.1816,5.2246,5.2734,5.3105,5.3555,0.0,5.4004,5.4004,5.3984,5.3887,5.3594,5.334,5.3828,5.4004,5.4004,5.4004,5.4004,5.3984,5.3938,5.3754,5.3588,5.352,5.3358,5.3197,5.3197,5.3197,5.3197,5.3197,5.3197,5.3197,0.0,0.0,0.0,0.0,0.0,0.0,0.0,0.0,0.0,0.0,0.0,0.0,0.0,5.3549,5.3953,5.4453,5.5228,5.5708,5.5708,5.5708,0.0,0.0,0.0,0.0,5.5708,5.5708,5.653,5.8275,5.8294,5.9146,6.0806,6.0806,6.0806,6.0806,6.0806,6.0806,6.0794,6.0578,6.0069,5.9381,5.9186,5.8654,5.7997,5.7997,5.7997,5.7997,5.7997,5.7997,5.7997,4.9856,0.0,0.0,0.0,0.0,0.0,0.0,5.1139,0.0,5.14,0.0,5.1718,5.1738,5.1738,5.1738,5.1738,0.0,5.1738,5.1738,5.1738,5.1738,5.1738,5.1738,5.1699,5.1562,5.1562,5.1504,0.0,0.0,0.0,0.0,0.0,0.0,0.0,0.0,0.0,0.0,5.2383,5.2832,5.3105,5.3867,5.4238,5.4336,5.4336,5.4336,5.4433,5.5195,5.4902,5.4199,5.4297,5.4336,5.4336,5.4336,5.4336,5.4315,5.4181,5.4044,5.3902,5.3765,5.3622,5.353,5.353,5.353,5.353,5.353,5.353,5.353,5.353,5.353,5.353,0.0,0.0,0.0,0.0,0.0,0.0,0.0,0.0,0.0,0.0,0.0,0.0,5.4645,5.5285,5.5708,5.5708,5.5708,0.0,0.0,0.0,0.0,5.5708,5.5805,5.6646,5.8275,0.0,5.9242,6.0806,6.0806,6.0806,6.0806,6.0806,6.0806,6.0788,6.0358,5.9893,5.9363,5.8952,5.8474,5.7997,5.7997,5.7997,5.7997,5.7997,5.7997,5.7997,0.0,0.0,0.0,0.0,0.0,5.276,5.276,5.2288,5.223,5.3043,5.3286,5.3415,5.3535,5.3535,5.3535,5.3535,5.3535,0.0,0.0,0.0,0.0,5.3535,5.3535,5.3203,5.248,5.2461,5.2129,0.0,0.0,0.0,0.0,0.0,0.0,0.0,0.0,0.0,5.248,5.2637,0.0,5.4863,5.5019,5.5508,5.6133,5.6133,5.6133,5.6152,5.6328,5.5801,5.5176,5.5898,5.6133,5.6133,5.6133,5.6133,5.6112,5.5979,5.5859,5.5691,5.5509,5.5364,5.5261,5.5261,5.5261,5.5261,5.5261,5.5261,5.5261,5.5261,5.5261,5.5261,5.5261,0.0,0.0,0.0,0.0,0.0,0.0,0.0,0.0,0.0,0.0,5.4761,0.0,5.5612,5.5708,0.0,0.0,0.0,0.0,0.0,0.0,0.0,5.6401,0.0,0.0,0.0,5.98,6.0806,6.0806,6.0806,6.0806,6.0806,6.0806,6.08,6.0708,6.0182,5.9389,5.9302,5.8766,5.7997,5.7997,5.7997,5.7997,5.7997,5.7997,5.7997,0.0,0.0,0.0,0.0,0.0,0.0,0.0,5.3634,5.3499,5.3585,5.372,5.3855,5.3984,5.4004,5.4004,5.4004,5.4004,5.4004,5.4004,5.4004,5.4004,5.4004,5.4004,0.0,5.3379,5.3379,5.2949,5.207,0.0,0.0,0.0,0.0,0.0,0.0,0.0,5.2558,0.0,0.0,0.0,5.5332,5.5781,5.623,5.6601,5.6601,5.6601,5.6601,5.6601,5.6328,5.6035,5.6465,5.6601,5.6601,5.6601,5.6559,5.6461,5.6331,5.6172,5.6003,5.5848,5.5749,5.5708,5.5708,5.5708,5.5708,5.5708,5.5708,5.5708,5.5708,5.5708,5.5708,5.5708,5.5381,0.0,0.0,0.0,0.0,0.0,0.0,0.0,0.0,0.0,0.0,0.0,0.0,0.0,0.0,0.0,5.5708,5.5708,0.0,0.0,0.0,0.0,0.0,0.0,0.0,0.0,6.0806,6.0806,6.0806,6.0806,6.0806,6.0806,6.0794,6.0546,6.004,5.9354,5.8874,5.8407,5.7997,5.7997,5.7997,5.7997,5.7997,5.7997,5.7997,0.0,5.3491,0.0,0.0,5.3741,0.0,5.4645,5.4848,5.4735,5.4222,5.4266,5.4401,5.4531,5.4551,5.4551,5.4551,5.4551,5.4551,5.4551,5.4551,5.4551,5.4551,5.4551,5.4473,5.4277,5.4277,5.3848,0.0,0.0,0.0,0.0,0.0,0.0,0.0,0.0,0.0,0.0,0.0,5.541,5.5644,5.6328,5.6601,5.6601,5.6601,5.6601,5.6601,5.6601,5.6601,5.6601,5.6601,5.6601,5.6601,5.6601,5.6512,5.6374,5.6232,5.6058,5.587,5.5743,5.5708,5.5708,5.5708,5.5708,5.5708,5.5708,5.5708,5.5708,5.5708,5.5708,5.5708,5.5708,5.5708,0.0,0.0,0.0,0.0,0.0,0.0,0.0,0.0,0.0,0.0,5.5708,0.0,0.0,0.0,0.0,5.5708,5.5708,5.5708,5.5708,0.0,0.0,5.7613,5.8294,0.0,6.0127,6.0806,6.0806,6.0806,6.0806,6.0806,6.0806,6.0788,6.0411,5.9924,5.9319,5.8386,5.7997,5.7997,5.7997,5.7997,5.7997,5.7997,5.7997,5.7997,0.0,0.0,0.0,0.0,0.0,0.0,5.5574,5.5595,5.5696,5.5922,5.6063,5.6219,5.6347,5.6367,5.6367,5.6367,5.6367,5.6367,5.6367,5.6367,5.6367,5.6367,5.6367,5.5996,5.5195,5.5176,5.4746,0.0,0.0,5.3437,0.0,0.0,0.0,0.0,0.0,0.0,0.0,5.5273,5.5762,5.6484,5.6562,5.6601,5.6601,5.6601,5.6601,5.6601,5.6601,5.6601,5.6601,5.6601,5.6601,5.6601,5.6601,5.6512,5.6374,5.6232,5.6058,5.587,5.5743,5.5708,5.5708,5.5708,5.5708,5.5708,5.5708,5.5708,5.5708,5.5708,5.5708,5.5708,5.5708,5.5708,5.5708,0.0,0.0,0.0,0.0,0.0,0.0,0.0,0.0,0.0,0.0,5.5708,0.0,0.0,5.5708,5.5708,5.5708,5.5708,5.5708,5.5708,0.0,5.8223,5.8294,5.9877,6.0723,6.0806,6.0806,6.0806,6.0806,6.0806,6.0806,6.08,6.0752,6.0229,5.9319,5.8386,5.7997,5.7997,5.7997,5.7997,5.7997,5.7997,5.7997,5.7997,0.0,0.0,0.0,0.0,0.0,0.0,0.0,5.6061,5.6169,5.6309,5.6301,5.6369,5.6581,5.6601,5.6601,5.6601,5.6601,5.6601,5.6601,5.6601,5.6601,5.6601,5.6601,5.6445,5.6094,5.6074,5.5644,0.0,0.0,0.0,0.0,0.0,0.0,0.0,0.0,5.5254,5.6074,5.6074,5.6289,5.6601,5.6601,5.6601,5.6601,5.6601,5.6601,5.6601,5.6601,5.6601,5.6601,5.6601,5.6601,5.6582,5.6511,5.6385,5.6244,5.6074,5.5919,5.5765,5.5716,5.5708,5.5708,5.5708,5.5708,5.5708,5.5708,5.5708,5.5708,5.5708,5.5708,5.5708,5.5708,5.5708,5.5708,0.0,0.0,0.0,0.0,0.0,0.0,0.0,0.0,0.0,0.0,0.0,0.0,0.0,0.0,5.5708,5.5708,5.5708,5.5939,5.6459,0.0,5.8525,5.9031,6.0204,6.0806,6.0806,6.0806,6.0806,6.0806,6.0806,6.0806,6.0763,6.0196,5.9741,5.9319,5.8386,5.7997,5.7997,5.7997,5.7997,5.7997,5.7997,5.7997,5.7997,5.6511,0.0,5.668,0.0,5.6844,5.6939,5.6939,5.7013,5.7088,5.713,5.7042,5.6886,5.662,5.6601,5.6601,5.6601,5.6601,5.6601,5.6601,5.6601,5.6601,5.6601,5.6601,0.0,5.6601,5.6601,5.6308,5.5683,5.5683,0.0,0.0,0.0,0.0,0.0,5.5683,5.6015,5.6601,5.6601,5.6601,5.6601,5.6601,5.6601,5.6601,5.6601,5.6601,5.6601,5.6601,5.6601,5.6601,5.6601,5.6601,5.6581,5.643,5.6311,5.6164,5.5963,5.5817,5.5708,5.5708,5.5708,5.5708,5.5708,5.5708,5.5708,5.5708,5.5708,5.5708,5.5708,5.5708,5.5708,5.5708,5.5708,5.5708,5.5708,0.0,0.0,0.0,0.0,0.0,0.0,5.5708,5.5708,5.5708,5.5708,0.0,0.0,0.0,5.5708,5.5708,5.5708,5.6093,0.0,0.0,0.0,5.9492,6.0358,6.0806,6.0806,6.0806,6.0806,6.0806,6.0806,6.0714,6.0553,5.9741,5.931,5.914,5.8329,5.7997,5.7997,5.7997,5.7997,5.7997,5.7997,5.7997,5.7997,5.8441,5.8473,5.8506,5.8635,5.8662,5.8662,5.8662,5.8665,5.8729,5.8844,5.8872,5.829,5.6777,5.6601,5.6601,5.6601,5.6601,5.6601,5.6601,5.6601,5.6601,0.0,0.0,5.6601,5.6601,5.6601,5.6582,5.6582,0.0,0.0,5.5273,0.0,5.5742,5.6582,5.6582,5.6582,5.6601,5.6601,5.6601,5.6601,5.6601,5.6601,5.6601,5.6601,5.6601,5.6601,5.6601,5.6601,5.6601,5.6601,5.6601,5.6581,5.643,5.6311,5.6164,5.5963,5.5817,5.5708,5.5708,5.5708,5.5708,5.5708,5.5708,5.5708,5.5708,5.5708,5.5708,5.5708,5.5708,5.5708,5.5708,5.5708,5.5708,5.5708,0.0,0.0,0.0,0.0,0.0,0.0,5.5708,5.5708,5.5708,5.5708,0.0,0.0,0.0,0.0,0.0,0.0,0.0,5.6964,5.7857,0.0,5.9492,6.0358,6.0806,6.0806,6.0806,6.0806,6.0806,6.0806,6.0553,6.0077,5.9611,5.914,5.8664,5.8201,5.7997,5.7997,5.7997,5.7997,5.7997,5.7997,5.7997,5.7997,5.8361,5.85,5.8648,5.8682,5.8882,5.9042,5.9042,5.9042,5.9066,5.9095,5.9096,5.8923,5.8437,5.8379,5.8379,0.0,5.7832,5.748,0.0,5.6933,5.6601,5.6601,5.6601,5.6601,5.6601,5.6601,5.6601,5.6601,0.0,0.0,0.0,5.6191,5.6328,5.6601,5.6601,5.6601,5.6601,5.6601,5.6601,5.6601,5.6601,5.6601,5.6601,5.6601,5.6601,5.6601,5.6601,5.6601,5.6601,5.6601,5.6601,5.6581,5.643,5.6311,5.6143,5.5843,5.5738,5.5708,5.5708,5.5708,5.5708,5.5708,5.5708,5.5708,5.5708,5.5708,5.5708,5.5708,5.5708,5.5708,5.5708,5.5708,5.5708,5.5708,5.5708,0.0,0.0,0.0,0.0,0.0,5.5708,5.5708,5.5708,5.5708,0.0,0.0,0.0,0.0,0.0,0.0,0.0,0.0,5.8684,0.0,6.0377,6.0666,6.0806,6.0806,6.0806,6.0806,6.0806,6.0806,6.0708,6.0521,5.9741,5.9329,5.9121,5.8318,5.7997,5.7997,5.7997,5.7997,5.7997,5.7997,5.7997,5.7997,5.9293,5.9445,5.9604,5.9737,5.9912,6.0073,6.0137,6.0137,6.0137,6.0137,6.0137,6.0137,6.0137,6.0137,0.0,5.9258,5.8691,5.8398,5.8398,5.7871,5.7422,5.7109,5.709,5.6933,5.6601,5.6601,0.0,5.6601,5.6601,5.6601,5.6601,5.6601,5.6601,5.6601,5.6601,5.6601,5.6601,5.6601,5.6601,5.6601,5.6601,5.6601,5.6601,5.6601,5.6601,5.6601,5.6601,5.6601,5.6601,5.6601,5.6601,5.6581,5.643,5.6335,5.6225,5.5967,5.5835,5.5779,5.5779,5.5748,5.5708,5.5708,5.5708,5.5708,5.5708,5.5708,5.5708,5.5708,5.5708,5.5708,5.5708,5.5708,5.5708,5.5708,5.5708,5.5708,5.5708,0.0,0.0,0.0,0.0,0.0,0.0,5.5708,5.5843,0.0,0.0,0.0,0.0,0.0,0.0,5.8698,5.9242,0.0,6.0787,6.0806,6.0806,6.0806,6.0806,6.0806,6.0806,6.0806,6.0616,6.0243,5.9661,5.9213,5.8825,5.8238,5.7997,5.7997,5.7997,5.7997,5.7997,5.7997,5.7997,5.7997,6.0949,6.0988,6.1093,0.0,6.1499,0.0,6.1679,6.1699,6.1699,6.1699,6.1699,6.1699,6.1699,6.1699,6.1074,5.9512,0.0,0.0,0.0,5.9238,5.8848,5.8027,5.7988,5.7617,5.6797,5.6777,5.6758,5.6699,5.6621,5.6601,5.6601,5.6601,5.6601,5.6601,5.6601,5.6601,5.6601,5.6601,5.6601,5.6601,5.6601,5.6601,5.6601,5.6601,5.6601,5.6601,5.6601,5.6601,5.6601,5.6601,5.6601,5.6581,5.6454,5.6416,5.6382,5.6225,5.6048,5.5896,5.588,5.5798,5.5708,5.5708,5.5708,5.5708,5.5708,5.5708,5.5708,5.5708,5.5708,5.5708,5.5708,5.5708,5.5708,5.5708,5.5708,5.5708,5.5708,0.0,0.0,0.0,0.0,0.0,0.0,5.5785,5.6151,0.0,0.0,0.0,0.0,0.0,5.7882,5.9454,5.9569,5.9973,6.0787,6.0806,6.0806,6.0806,6.0806,6.0806,6.0806,6.0806,6.0324,5.9484,5.9424,5.8894,5.8085,5.8031,5.7997,5.7997,5.7997,5.7997,5.7997,5.7997,5.7997,5.7997,0.0,0.0,6.1066,6.1309,6.1436,6.1547,6.1679,6.1699,6.1699,6.1699,6.1699,6.1699,6.1699,6.1699,6.1543,6.1133,6.0508,6.0117,6.0117,5.9531,5.9101,5.8906,5.8887,5.8808,5.8594,5.8574,5.8262,5.7598,5.6933,5.6601,5.6601,5.6601,5.6601,5.6601,5.6601,5.6601,5.6601,5.6601,5.6601,5.6601,5.6601,5.6601,5.6601,5.6601,5.6601,5.6601,5.6601,5.6601,5.6601,5.6601,5.6601,5.6582,5.656,5.6559,5.6486,5.609,5.594,5.5883,5.5779,5.5717,5.5708,5.5708,5.5708,5.5708,5.5708,5.5708,5.5708,5.5708,5.5708,5.5708,5.5708,5.5708,5.5708,5.5708,5.5708,5.5708,5.5708,5.5708,0.0,0.0,5.5708,5.5958,5.6632,5.6689,5.7055,0.0,0.0,0.0,0.0,5.9011,5.9088,5.9492,6.0146,6.0589,6.0806,6.0806,6.0806,6.0806,6.0806,6.0806,6.0806,6.0806,6.0684,6.0424,5.9709,5.9266,5.9009,5.8304,5.7997,5.7997,5.7997,5.7997,5.7997,5.7997,5.7997,5.7997,6.0806,6.0858,6.0982,6.1243,6.1352,6.1467,6.1678,6.1699,6.1699,6.1699,6.1699,6.1699,6.1699,6.1699,6.1699,6.1699,6.1269,6.0996,6.0996,6.0586,6.0156,5.9765,5.9746,5.957,5.9219,5.9199,5.8965,5.8496,5.8027,5.7578,5.7187,5.7187,5.6973,5.6601,5.6601,5.6601,5.6601,5.6601,5.6601,5.6601,5.6601,5.6601,5.6601,5.6601,5.6601,5.6601,5.6601,5.6601,5.6601,5.6601,5.6601,5.6601,5.6601,5.6601,5.6539,5.6214,5.61,5.6017,5.5947,5.5817,5.5708,5.5708,5.5708,5.5708,5.5708,5.5708,5.5708,5.5708,5.5708,5.5708,5.5708,5.5708,5.5708,5.5708,5.5708,5.5843,5.6247,5.6285,0.0,5.6838,5.6896,5.7069,5.7555,5.7588,5.7934,5.88,5.8858,0.0,6.005,6.0089,6.0089,6.0089,6.055,6.0806,6.0806,6.0806,6.0806,6.0806,6.0806,6.0806,6.0806,6.0806,6.0684,6.0443,5.9931,5.9485,5.9037,5.8537,5.819,5.7997,5.7997,5.7997,5.7997,5.7997,5.7997,5.7997,6.0806,6.0806,6.0911,6.1246,6.1306,6.138,6.1658,6.1699,6.1699,6.1699,6.1699,6.1699,6.1699,6.1699,6.1699,6.1699,6.1699,6.1699,6.1699,6.1699,6.1367,6.0625,6.0605,6.0273,5.959,5.9453,5.9375,5.9375,5.9258,5.8828,5.8105,5.8105,5.7637,5.6797,5.6797,5.6719,5.6601,5.6601,5.6601,5.6601,5.6601,5.6601,5.6601,5.6601,5.6601,5.6601,5.6601,5.6601,5.6601,5.6601,5.6601,5.6601,5.6601,5.6601,5.6581,5.6459,5.632,5.6189,5.6164,5.5927,5.5708,5.5708,5.5708,5.5708,5.5708,5.5708,5.5747,5.5862,5.5901,5.5939,5.6074,5.6088,5.6088,5.6088,5.6088,5.6343,5.7093,0.0,5.7478,5.8204,5.8294,5.8352,5.8467,5.8486,5.8813,5.9627,5.9704,6.0012,6.0768,6.0806,6.0806,6.0806,6.0806,6.0806,6.0806,6.0806,6.0806,6.0806,6.0806,6.0806,6.0806,6.0806,6.0578,6.0208,6.0055,5.9534,5.8786,5.8662,5.8362,5.7997,5.7997,5.7997,5.7997,5.7997,5.7997,5.7997,6.0806,6.0806,6.0911,6.1246,6.1306,6.138,6.1658,6.1699,6.1699,6.1699,6.1699,6.1699,6.1699,6.1699,6.1699,6.1699,6.1699,6.1699,6.1699,6.1699,6.164,6.1504,6.1504,6.1445,6.1308,6.0586,6.0215,6.0215,5.9531,5.9121,5.9004,5.9004,5.8535,5.7695,5.7695,5.7285,5.6601,5.6601,5.6601,5.6601,5.6601,5.6601,5.6601,5.6601,5.6601,5.6601,5.6601,5.6601,5.6601,5.6601,5.6601,5.6601,5.6601,5.6601,5.6601,5.6581,5.6389,5.6164,5.5996,5.5821,5.5708,5.5708,5.5708,5.5708,5.5708,5.5708,5.592,5.6651,5.6805,5.7016,5.7761,5.7896,5.7896,5.7896,5.7896,5.7934,5.8088,0.0,5.814,5.8275,5.8294,5.8569,5.9261,5.9319,5.9665,6.0531,6.0589,6.0666,6.0787,6.0806,6.0806,6.0806,6.0806,6.0806,6.0806,6.0806,6.0806,6.0806,6.0806,6.0806,6.0806,6.0806,6.0757,6.0641,5.9855,5.9443,5.9221,5.8439,5.807,5.7997,5.7997,5.7997,5.7997,5.7997,5.7997,5.7997,6.0806,6.0806,6.0911,6.1246,6.1306,6.138,6.1658,6.1699,6.1699,6.1699,6.1699,6.1699,6.1699,6.1699,6.1699,6.1699,6.1699,6.1699,6.1699,6.1699,6.1699,6.1699,6.1699,6.1699,6.1699,6.1308,6.1094,6.1094,6.0723,6.0312,5.9844,5.9844,5.9394,5.8594,5.8594,5.8125,5.7305,5.7305,5.7031,5.6601,5.6601,5.6601,5.6601,5.6601,5.6601,5.6601,5.6601,5.6601,5.6601,5.6601,5.6601,5.6601,5.6601,5.6601,5.6601,5.6601,5.6416,5.6141,5.5874,5.6091,5.6401,5.6401,5.6747,5.7107,5.7107,5.7107,5.7203,5.7627,5.7703,5.7819,5.8223,5.8294,5.8294,5.8294,5.8294,0.0,0.0,5.8954,5.9127,5.9588,5.9646,5.9781,6.0165,6.0204,6.0358,6.0762,6.0806,6.0806,6.0806,6.0806,6.0806,6.0806,6.0806,6.0806,6.0806,6.0806,6.0806,6.0806,6.0806,6.0806,6.0806,6.0806,6.0806,6.0788,6.0338,6.0018,5.9741,5.9302,5.8825,5.8383,5.8383,5.8216,5.7997,5.7997,5.7997,5.7997,6.0845,6.0806,6.0911,6.1246,6.1306,6.138,6.1658,6.1699,6.1699,6.1699,6.1699,6.1699,6.1699,6.1699,6.1699,6.1699,6.1699,6.1699,6.1699,6.1699,6.1699,6.1699,6.1699,6.1699,6.1699,6.1699,6.1699,6.1699,6.1699,6.1367,6.0703,6.0703,6.0254,5.9473,5.9473,5.9004,5.8203,5.8203,5.7695,5.6894,5.6894,5.6777,5.6601,5.6601,5.6601,5.6601,5.6601,5.6601,5.6601,5.6601,5.6601,5.6601,5.6601,5.6738,5.6894,5.6894,5.6846,5.6718,5.6434,5.682,5.7305,5.7305,5.7819,5.8294,5.8294,5.8294,5.8352,5.8544,5.8583,5.864,5.8838,5.8877,5.8877,5.8877,0.0,0.0,0.0,5.98,6.005,6.0723,6.0806,6.0806,6.0806,6.0806,6.0806,6.0806,6.0806,6.0806,6.0806,6.0806,6.0806,6.0806,6.0806,6.0806,6.0806,6.0806,6.0806,6.0806,6.0806,6.0806,6.0806,6.0806,6.0806,6.0781,6.0684,6.043,6.0084,5.9988,5.9441,5.8694,5.8694,5.8407,5.7997,5.7997,5.7997,5.8033,6.096,6.0806,6.0911,6.1246,6.1306,6.138,6.1658,6.1699,6.1699,6.1699,6.1699,6.1699,6.1699,6.1699,6.1699,6.1699,6.1699,6.1699,6.1699,6.1699,6.1699,6.1699,6.1699,6.1699,6.1699,6.1699,6.1699,6.1699,6.1699,6.168,6.1601,6.1601,6.1133,6.0312,6.0312,5.9863,5.9101,5.9101,5.8594,5.7793,5.7793,5.7324,5.6601,5.6601,5.6601,5.6601,5.6601,5.6601,5.6601,5.6601,5.6601,5.6601,5.6601,5.7148,5.7793,5.7793,5.8133,5.8475,5.8339,5.8254,5.8198,5.8198,5.8256,5.8294,5.8294,5.8294,5.8506,5.9261,5.9415,5.9665,6.0473,6.0614,6.0614,6.0614,0.0,0.0,6.071,6.0704,6.0729,6.0787,6.0806,6.0806,6.0806,6.0806,6.0806,6.0806,6.0806,6.0806,6.0806,6.0806,6.0806,6.0806,6.0806,6.0806,6.0806,6.0806,6.0806,6.0806,6.0806,6.0806,6.0806,6.0806,6.0806,6.0788,6.0338,6.0132,6.0081,5.9636,5.9139,5.8694,5.8694,5.8407,5.7997,5.7997,5.7997,5.8107,6.2416,6.1954,6.1702,6.1982,6.1633,6.138,6.1658,6.1699,6.1699,6.1699,6.1699,6.1699,6.1699,6.1699,6.1699,6.1699,6.1699,6.1699,6.1699,6.1699,6.1699,6.1699,6.1699,6.1699,6.1699,6.1699,6.1699,6.1699,6.1699,6.1699,6.1699,6.1699,6.1523,6.1211,6.1211,6.0742,5.9941,5.9941,5.9473,5.8711,5.8711,5.8515,5.8203,5.8203,5.8203,5.8203,5.8203,5.8203,5.8203,5.8203,5.8203,5.8203,5.8203,5.8437,5.8808,5.9297,5.9545,5.9731,6.0135,5.9642,5.905,5.905,5.9454,5.9858,5.9858,5.9858,5.9935,6.0242,6.03,6.0416,6.0748,6.0806,6.0806,6.0806,0.0,6.0806,6.0806,6.0806,6.0806,6.0806,6.0806,6.0806,6.0806,6.0806,6.0806,6.0806,6.0806,6.0806,6.0806,6.0806,6.0806,6.0806,6.0806,6.0806,6.0806,6.0806,6.0806,6.0806,6.0806,6.0806,6.0806,6.0806,6.0806,6.0794,6.0616,6.0521,6.0514,6.0338,5.9831,5.914,5.914,5.8664,5.8052,5.8565,5.8737,5.8866,6.3352,6.2858,6.2571,6.2856,6.2237,6.177,6.2067,6.1875,6.1699,6.1699,6.1699,6.1699,6.1699,6.1699,6.1699,6.1699,6.1699,6.1699,6.1699,6.1699,6.1699,6.1699,6.1699,6.1699,6.1699,6.1699,6.1699,6.1699,6.1699,6.1699,6.1699,6.1699,6.1699,6.1699,6.1699,6.1367,6.0801,6.0801,6.0332,5.957,5.957,5.9433,5.9199,5.9199,5.9199,5.9199,5.9199,5.9199,5.9199,5.9199,5.9199,5.9199,5.9199,5.9375,5.9746,6.0566,6.0709,6.0727,6.1222,6.0682,5.9955,5.9919,6.0358,6.0806,6.0806,6.0806,6.0806,6.0806,6.0806,6.0806,6.0806,6.0806,6.0806,6.0806,6.0806,6.0806,6.0806,6.0806,6.0806,6.0806,6.0806,6.0806,6.0806,6.0806,6.0806,6.0806,6.0806,6.0806,6.0806,6.0806,6.0806,6.0806,6.0806,6.0806,6.0806,6.0806,6.0806,6.0806,6.0806,6.0806,6.0806,6.0806,6.0806,6.0806,6.0806,6.0806,6.0806,6.0806,6.025,5.9427,5.9682,5.9198,5.8462,5.9288,5.9581,5.9692,6.3487,6.3314,6.3414,6.3757,6.3093,6.2623,6.2946,6.2265,6.1719,6.1699,6.1699,6.1699,6.1699,6.1699,6.1699,6.1699,6.1699,6.1699,6.1699,6.1699,6.1699,6.1699,6.1699,6.1699,6.1699,6.1699,6.1699,6.1699,6.1699,6.1699,6.1699,6.1699,6.1699,6.1699,6.1699,6.1699,6.1699,6.1699,6.1191,6.041,6.041,5.9922,5.9219,5.9219,5.9219,5.9219,5.9219,5.9219,5.9219,5.9219,5.9219,5.9219,5.9219,5.9765,6.0586,6.1445,6.1608,6.1504,6.1502,6.1256,6.0967,6.0847,6.0806,6.0806,6.0806,6.0806,6.0806,6.0806,6.0806,6.0806,6.0806,6.0806,6.0806,6.0806,6.0806,6.0806,6.0806,6.0806,6.0806,6.0806,6.0806,6.0806,6.0806,6.0806,6.0806,6.0806,6.0806,6.0806,6.0806,6.0806,6.0806,6.0806,6.0806,6.0806,6.0806,6.0806,6.0806,6.0806,6.0806,6.0806,6.0806,6.0806,6.0806,6.0806,6.0806,6.0806,6.0806,6.0806,6.0262,5.9502,6.0306,6.0036,5.9306,6.0114,6.0419,6.0529,6.5186,6.4628,6.4321,6.4645,6.3988,6.3329,6.3044,6.2773,6.2383,6.1777,6.1699,6.1699,6.1699,6.1699,6.1699,6.1699,6.1699,6.1699,6.1699,6.1699,6.1699,6.1699,6.1699,6.1699,6.1699,6.1699,6.1699,6.1699,6.1699,6.1699,6.1699,6.1699,6.1699,6.1699,6.1699,6.1699,6.1699,6.1699,6.1543,6.1308,6.1308,6.1172,6.0957,6.0957,6.0957,6.0957,6.0957,6.0957,6.0957,6.0957,6.0957,6.0957,6.0957,6.1113,6.1367,6.1621,6.1678,6.1606,6.142,6.1289,6.1169,6.0991,6.0866,6.0806,6.0806,6.0806,6.0806,6.0806,6.0806,6.0806,6.0806,6.0806,6.0806,6.0806,6.0806,6.0806,6.0806,6.0806,6.0806,6.0806,6.0806,6.0806,6.0806,6.0806,6.0806,6.0806,6.0806,6.0806,6.0806,6.0806,6.0806,6.0806,6.0806,6.0806,6.0806,6.0806,6.0806,6.0806,6.0806,6.0806,6.0806,6.0806,6.0806,6.0806,6.0806,6.1152,6.171,6.171,6.1485,6.1181,6.1418,6.0915,6.0132,6.0951,6.1245,6.1355,6.5904,6.5474,6.5208,6.5562,6.4882,6.4245,6.406,6.3437,6.2812,6.2285,6.1914,6.1699,6.1699,6.1699,6.1699,6.1699,6.1699,6.1699,6.1699,6.1699,6.1699,6.1699,6.1699,6.1699,6.1699,6.1699,6.1699,6.1699,6.1699,6.1699,6.1699,6.1699,6.1699,6.1699,6.1699,6.1699,6.1699,6.1699,6.1699,6.1699,6.1699,6.1699,6.1699,6.1699,6.1699,6.1699,6.1699,6.1699,6.1699,6.1699,6.1699,6.1699,6.1699,6.1699,6.1699,6.1699,6.1699,6.1658,6.1504,6.1371,6.1262,6.1158,6.0964,6.0806,6.0806,6.0806,6.0806,6.0806,6.0806,6.0806,6.0806,6.0806,6.0806,6.0806,6.0806,6.0806,6.0806,6.0806,6.0806,6.0806,6.0806,6.0806,6.0806,6.0806,6.0806,6.0806,6.0806,6.0806,6.0806,6.0806,6.0806,6.0806,6.0806,6.0806,6.0806,6.1133,6.1133,6.0806,6.1152,6.1306,6.1325,6.1647,6.1781,6.1781,6.1781,6.2089,6.257,6.257,6.2307,6.1936,6.2248,6.1765,6.097,6.1777,6.2071,6.2144,6.5904,6.5904,6.6005,6.6346,6.5742,6.5295,6.5563,6.4199,6.3086,6.3008,6.2246,6.1699,6.1699,6.1699,6.1699,6.1699,6.1699,6.1699,6.1699,6.1699,6.1699,6.1699,6.1699,6.1699,6.1699,6.1699,6.1699,6.1699,6.1699,6.1699,6.1699,6.1699,6.1699,6.1699,6.1699,6.1699,6.1699,6.1699,6.1699,6.1699,6.1699,6.1699,6.1699,6.1699,6.1699,6.1699,6.1699,6.1699,6.1699,6.1699,6.1699,6.1699,6.1699,6.1699,6.1699,6.1699,6.1699,6.1699,6.1699,6.1505,6.1323,6.1309,6.1068,6.0821,6.0793,6.0806,6.0806,6.0806,6.0806,6.0806,6.0806,6.0806,6.0806,6.0806,6.0806,6.0806,6.0806,6.0806,6.0806,6.0806,6.0806,6.0806,6.0806,6.0806,6.0806,6.0806,6.0806,6.0806,6.0806,6.0806,6.0806,6.0806,6.0806,6.0845,6.0921,6.1691,6.1691,6.0941,6.1787,6.221,6.223,6.2974,6.3295,6.3295,6.3295,6.3333,6.3429,6.3429,6.2911,6.22,6.2918,6.2595,6.1796,6.2536,6.2793,6.2793,6.5904,6.5904,6.6005,6.6346,6.6231,6.5999,6.5642,6.4707,6.3769,6.3086,6.2246,6.1699,6.1699,6.1699,6.1699,6.1699,6.1699,6.1699,6.1699,6.1699,6.1699,6.1699,6.1699,6.1699,6.1699,6.1699,6.1699,6.1699,6.1699,6.1699,6.1699,6.1699,6.1699,6.1699,6.1699,6.1699,6.1699,6.1699,6.1699,6.1699,6.1699,6.1699,6.1699,6.1699,6.1699,6.1699,6.1699,6.1699,6.1699,6.1699,6.1699,6.1699,6.1699,6.1699,6.1699,6.1699,6.1699,6.1679,6.1577,6.1504,6.1436,6.1334,6.1124,6.0925,6.0819,6.0806,6.0806,6.0806,6.0806,6.0806,6.0806,6.0806,6.0806,6.0806,6.0806,6.0806,6.0806,6.0806,6.0806,6.0806,6.0806,6.0806,6.0806,6.0806,6.0806,6.0806,6.0806,6.0806,6.0806,6.0806,6.0806,6.0806,6.0806,6.1133,6.1806,6.1999,6.1999,6.1826,6.2647,6.3051,6.3045,6.3218,6.3295,6.3295,6.3295,6.3679,6.4314,6.4314,6.4141,6.3889,6.4058,6.3465,6.2554,6.2738,6.2793,6.2793,6.5904,6.5904,6.6005,6.6346,6.6406,6.6352,6.6247,6.5488,6.4609,6.373,6.2851,6.2168,6.1758,6.1699,6.1699,6.1699,6.1699,6.1699,6.1699,6.1699,6.1699,6.1699,6.1699,6.1699,6.1699,6.1699,6.1699,6.1699,6.1699,6.1699,6.1699,6.1699,6.1699,6.1699,6.1699,6.1699,6.1699,6.1699,6.1699,6.1699,6.1699,6.1699,6.1699,6.1699,6.1699,6.1699,6.1699,6.1699,6.1699,6.1699,6.1699,6.1699,6.1699,6.1699,6.1699,6.1699,6.1699,6.1679,6.161,6.1548,6.1464,6.1323,6.1158,6.099,6.091,6.085,6.0806,6.0806,6.0806,6.0806,6.0806,6.0806,6.0806,6.0806,6.0806,6.0806,6.0806,6.0806,6.0806,6.0806,6.0806,6.0806,6.0806,6.0806,6.0806,6.0806,6.0806,6.0806,6.0806,6.0806,6.0806,6.0806,6.121,6.1633,6.2095,6.2884,6.3288,6.3307,6.3724,6.391,6.3929,6.4359,6.4551,6.4551,6.4551,6.4801,6.5224,6.5224,6.4905,6.4398,6.4398,6.3737,6.2793,6.2793,6.2793,6.2793,6.5904,6.5904,6.6005,6.6346,6.6406,6.6508,6.6853,6.6152,6.5332,6.4629,6.3633,6.2715,6.1992,6.1797,6.1699,6.1699,6.1699,6.1699,6.1699,6.1699,6.1699,6.1699,6.1699,6.1699,6.1699,6.1699,6.1699,6.1699,6.1699,6.1699,6.1699,6.1699,6.1699,6.1699,6.1699,6.1699,6.1699,6.1699,6.1699,6.1699,6.1699,6.1699,6.1699,6.1699,6.1699,6.1699,6.1699,6.1699,6.1699,6.1699,6.1699,6.1699,6.1699,6.1699,6.1699,6.1699,6.1699,6.1699,6.1699,6.1611,6.1504,6.1379,6.1184,6.1048,6.101,6.0899,6.0806,6.0806,6.0806,6.0806,6.0806,6.0806,6.0806,6.0806,6.0806,6.0806,6.0806,6.0806,6.0806,6.0806,6.0806,6.0806,6.0806,6.0806,6.0806,6.0806,6.0806,6.0806,6.0806,6.0941,6.1018,6.1018,6.1864,6.2383,6.2537,6.3916,6.4666,6.482,6.482,6.482,6.4859,6.557,6.5904,6.5904,6.5904,6.5904,6.5904,6.5904,6.5314,6.4398,6.4398,6.3737,6.2793,6.2793,6.2793,6.2793,6.5904,6.5904,6.6005,6.6346,6.6406,6.6508,6.6853,6.6152,6.5566,6.5449,6.4004,6.2969,6.2832,6.2148,6.1699,6.1699,6.1699,6.1699,6.1699,6.1699,6.1699,6.1699,6.1699,6.1699,6.1699,6.1699,6.1699,6.1699,6.1699,6.1699,6.1699,6.1699,6.1699,6.1699,6.1699,6.1699,6.1699,6.1699,6.1699,6.1699,6.1699,6.1699,6.1699,6.1699,6.1699,6.1699,6.1699,6.1699,6.1699,6.1699,6.1699,6.1699,6.1699,6.1699,6.1699,6.1699,6.1699,6.1699,6.1699,6.1699,6.1635,6.1507,6.1364,6.1217,6.1044,6.0899,6.0806,6.0806,6.0806,6.0806,6.0806,6.0806,6.0806,6.0806,6.0806,6.0806,6.0806,6.0806,6.0806,6.0806,6.0806,6.0806,6.0806,6.0806,6.0806,6.0806,6.0806,6.0806,6.0806,6.1518,6.1922,6.1922,6.2704,6.3506,6.4243,6.4493,6.4974,6.5724,6.5724,6.5724,6.5731,6.5846,6.5904,6.5904,6.5904,6.5904,6.5904,6.5904,6.5314,6.4398,6.4398,6.3737,6.2793,6.2793,6.2793,6.2793,6.5904,6.5967,6.6094,6.6344,6.646,6.6601,6.6854,6.6562,6.6152,6.5664,6.4922,6.4082,6.3105,6.2226,6.1699,6.1699,6.1699,6.1699,6.1699,6.1699,6.1699,6.1699,6.1699,6.1699,6.1699,6.1699,6.1699,6.1699,6.1699,6.1699,6.1699,6.1699,6.1699,6.1699,6.1699,6.1699,6.1699,6.1699,6.1699,6.1699,6.1699,6.1699,6.1699,6.1699,6.1699,6.1699,6.1699,6.1699,6.1699,6.1699,6.1699,6.1699,6.1699,6.1699,6.1699,6.1699,6.1699,6.1699,6.1699,6.1699,6.1678,6.1521,6.1409,6.1243,6.1052,6.0899,6.0806,6.0806,6.0806,6.0806,6.0806,6.0806,6.0806,6.0806,6.0806,6.0806,6.0806,6.0806,6.0806,6.0806,6.0806,6.0806,6.0806,6.0806,6.0806,6.0806,6.0806,6.1018,6.1499,6.1883,6.2306,6.2762,6.3589,6.4205,6.4609,6.507,6.5513,6.5904,6.5904,6.5904,6.5904,6.5904,6.5904,6.5904,6.5904,6.5904,6.5904,6.5904,6.5314,6.4398,6.4398,6.3737,6.2793,6.2793,6.2793,6.2793]}]]